[[{"header":{"parameterUnit":"m.s-1","parameterCategory":1,"la1":30.6,"la2":28.766,"lo1":-90.7593,"lo2":-88.6598,"dy":0.0162,"dx":0.0183,"nx":116,"ny":114,"refTime":"2024-03-27T12:00:00:Z","depth":0,"parameterNumber":2,"parameterNumberName":"U-component_of_WINDS"},"data":[0.0,0.0,0.0,0.0,0.0,0.0,0.0,0.0,0.0,0.0,0.0,0.0,0.0,0.0,0.0,0.0,0.0,0.0,0.0,0.0,0.0,0.0,0.0,0.0,0.0,0.0,0.0,0.0,0.0,0.0,0.0,0.0,0.0,0.0,0.0,0.0,0.0,0.0,0.0,0.0,0.0,0.0,0.0,0.0,0.0,0.0,0.0,0.0,0.0,0.0,0.0,0.0,0.0,0.0,0.0,0.0,0.0,0.0,0.0,0.0,0.0,0.0,0.0,0.0,0.0,0.0,0.0,0.0,0.0,0.0,0.0,0.0,0.0,0.0,0.0,0.0,0.0,0.0,0.0,0.0,0.0,0.0,0.0,0.0,0.0,0.0,0.0,0.0,0.0,0.0,0.0,0.0,0.0,0.0,0.0,0.0,0.0,0.0,0.0,0.0,0.0,0.0,0.0,0.0,0.0,0.0,0.0,0.0,0.0,0.0,0.0,0.0,0.0,0.0,0.0,0.0,0.0,0.0,0.0,0.0,0.0,0.0,0.0,0.0,0.0,0.0,0.0,0.0,0.0,0.0,0.0,0.0,0.0,0.0,0.0,0.0,0.0,0.0,0.0,0.0,0.0,0.0,0.0,0.0,0.0,0.0,0.0,0.0,0.0,0.0,0.0,0.0,0.0,0.0,0.0,0.0,0.0,0.0,0.0,0.0,0.0,0.0,0.0,0.0,0.0,0.0,0.0,0.0,0.0,0.0,0.0,0.0,0.0,0.0,0.0,0.0,0.0,0.0,0.0,0.0,0.0,0.0,0.0,0.0,0.0,0.0,0.0,0.0,0.0,0.0,0.0,0.0,0.0,0.0,0.0,0.0,0.0,0.0,0.0,0.0,0.0,0.0,0.0,0.0,0.0,0.0,0.0,0.0,0.0,0.0,0.0,0.0,0.0,0.0,0.0,0.0,0.0,0.0,0.0,0.0,0.0,0.0,0.0,0.0,0.0,0.0,0.0,0.0,0.0,0.0,0.0,0.0,0.0,0.0,0.0,0.0,0.0,0.0,0.0,0.0,0.0,0.0,0.0,0.0,0.0,0.0,0.0,0.0,0.0,0.0,0.0,0.0,0.0,0.0,0.0,0.0,0.0,0.0,0.0,0.0,0.0,0.0,0.0,0.0,0.0,0.0,0.0,0.0,0.0,0.0,0.0,0.0,0.0,0.0,0.0,0.0,0.0,0.0,0.0,0.0,0.0,0.0,0.0,0.0,0.0,0.0,0.0,0.0,0.0,0.0,0.0,0.0,0.0,0.0,0.0,0.0,0.0,0.0,0.0,0.0,0.0,0.0,0.0,0.0,0.0,0.0,0.0,0.0,0.0,0.0,0.0,0.0,0.0,0.0,0.0,0.0,0.0,0.0,0.0,0.0,0.0,0.0,0.0,0.0,0.0,0.0,0.0,0.0,0.0,0.0,0.0,0.0,0.0,0.0,0.0,0.0,0.0,0.0,0.0,0.0,0.0,0.0,0.0,0.0,0.0,0.0,0.0,0.0,0.0,0.0,0.0,0.0,0.0,0.0,0.0,0.0,0.0,0.0,0.0,0.0,0.0,0.0,0.0,0.0,0.0,0.0,0.0,0.0,0.0,0.0,0.0,0.0,0.0,0.0,0.0,0.0,0.0,0.0,0.0,0.0,0.0,0.0,0.0,0.0,0.0,0.0,0.0,0.0,0.0,0.0,0.0,0.0,0.0,0.0,0.0,0.0,0.0,0.0,0.0,0.0,0.0,0.0,0.0,0.0,0.0,0.0,0.0,0.0,0.0,0.0,0.0,0.0,0.0,0.0,0.0,0.0,0.0,0.0,0.0,0.0,0.0,0.0,0.0,0.0,0.0,0.0,0.0,0.0,0.0,0.0,0.0,0.0,0.0,0.0,0.0,0.0,0.0,0.0,0.0,0.0,0.0,0.0,0.0,0.0,0.0,0.0,0.0,0.0,0.0,0.0,0.0,0.0,0.0,0.0,0.0,0.0,0.0,0.0,0.0,0.0,0.0,0.0,0.0,0.0,0.0,0.0,0.0,0.0,0.0,0.0,0.0,0.0,0.0,0.0,0.0,0.0,0.0,0.0,0.0,0.0,0.0,0.0,0.0,0.0,0.0,0.0,0.0,0.0,0.0,0.0,0.0,0.0,0.0,0.0,0.0,0.0,0.0,0.0,0.0,0.0,0.0,0.0,0.0,0.0,0.0,0.0,0.0,0.0,0.0,0.0,0.0,0.0,0.0,0.0,0.0,0.0,0.0,0.0,0.0,0.0,0.0,0.0,0.0,0.0,0.0,0.0,0.0,0.0,0.0,0.0,0.0,0.0,0.0,0.0,0.0,0.0,0.0,0.0,0.0,0.0,0.0,0.0,0.0,0.0,0.0,0.0,0.0,0.0,0.0,0.0,0.0,0.0,0.0,0.0,0.0,0.0,0.0,0.0,0.0,0.0,0.0,0.0,0.0,0.0,0.0,0.0,0.0,0.0,0.0,0.0,0.0,0.0,0.0,0.0,0.0,0.0,0.0,0.0,0.0,0.0,0.0,0.0,0.0,0.0,0.0,0.0,0.0,0.0,0.0,0.0,0.0,0.0,0.0,0.0,0.0,0.0,0.0,0.0,0.0,0.0,0.0,0.0,0.0,0.0,0.0,0.0,0.0,0.0,0.0,0.0,0.0,0.0,0.0,0.0,0.0,0.0,0.0,0.0,0.0,0.0,0.0,0.0,0.0,0.0,0.0,0.0,0.0,0.0,0.0,0.0,0.0,0.0,0.0,0.0,0.0,0.0,0.0,0.0,0.0,0.0,0.0,0.0,0.0,0.0,0.0,0.0,0.0,0.0,0.0,0.0,0.0,0.0,0.0,0.0,0.0,0.0,0.0,0.0,0.0,0.0,0.0,0.0,0.0,0.0,0.0,0.0,0.0,0.0,0.0,0.0,0.0,0.0,0.0,0.0,0.0,0.0,0.0,0.0,0.0,0.0,0.0,0.0,0.0,0.0,0.0,0.0,0.0,0.0,0.0,0.0,0.0,0.0,0.0,0.0,0.0,0.0,0.0,0.0,0.0,0.0,0.0,0.0,0.0,0.0,0.0,0.0,0.0,0.0,0.0,0.0,0.0,0.0,0.0,0.0,0.0,0.0,0.0,0.0,0.0,0.0,0.0,0.0,0.0,0.0,0.0,0.0,0.0,0.0,0.0,0.0,0.0,0.0,0.0,0.0,0.0,0.0,0.0,0.0,0.0,0.0,0.0,0.0,0.0,0.0,0.0,0.0,0.0,0.0,0.0,0.0,0.0,0.0,0.0,0.0,0.0,0.0,0.0,0.0,0.0,0.0,0.0,0.0,0.0,0.0,0.0,0.0,0.0,0.0,0.0,0.0,0.0,0.0,0.0,0.0,0.0,0.0,0.0,0.0,0.0,0.0,0.0,0.0,0.0,0.0,0.0,0.0,0.0,0.0,0.0,0.0,0.0,0.0,0.0,0.0,0.0,0.0,0.0,0.0,0.0,0.0,0.0,0.0,0.0,0.0,0.0,0.0,0.0,0.0,0.0,0.0,0.0,0.0,0.0,0.0,0.0,0.0,0.0,0.0,0.0,0.0,0.0,0.0,0.0,0.0,0.0,0.0,0.0,0.0,0.0,0.0,0.0,0.0,0.0,0.0,0.0,0.0,0.0,0.0,0.0,0.0,0.0,0.0,0.0,0.0,0.0,0.0,0.0,0.0,0.0,0.0,0.0,0.0,0.0,0.0,0.0,0.0,0.0,0.0,0.0,0.0,0.0,0.0,0.0,0.0,0.0,0.0,0.0,0.0,0.0,0.0,0.0,0.0,0.0,0.0,0.0,0.0,0.0,0.0,0.0,0.0,0.0,0.0,0.0,0.0,0.0,0.0,0.0,0.0,0.0,0.0,0.0,0.0,0.0,0.0,0.0,0.0,0.0,0.0,0.0,0.0,0.0,0.0,0.0,0.0,0.0,0.0,0.0,0.0,0.0,0.0,0.0,0.0,0.0,0.0,0.0,0.0,0.0,0.0,0.0,0.0,0.0,0.0,0.0,0.0,0.0,0.0,0.0,0.0,0.0,0.0,0.0,0.0,0.0,0.0,0.0,0.0,0.0,0.0,0.0,0.0,0.0,0.0,0.0,0.0,0.0,0.0,0.0,0.0,0.0,0.0,0.0,0.0,0.0,0.0,0.0,0.0,0.0,0.0,0.0,0.0,0.0,0.0,0.0,0.0,0.0,0.0,0.0,0.0,0.0,0.0,0.0,0.0,0.0,0.0,0.0,0.0,0.0,0.0,0.0,0.0,0.0,0.0,0.0,0.0,0.0,0.0,0.0,0.0,0.0,0.0,0.0,0.0,0.0,0.0,0.0,0.0,0.0,0.0,0.0,0.0,0.0,0.0,0.0,0.0,0.0,0.0,0.0,0.0,0.0,0.0,0.0,0.0,0.0,0.0,0.0,0.0,0.0,0.0,0.0,0.0,0.0,0.0,0.0,0.0,0.0,0.0,0.0,0.0,0.0,0.0,0.0,0.0,0.0,0.0,0.0,0.0,0.0,0.0,0.0,0.0,0.0,0.0,0.0,0.0,0.0,0.0,0.0,0.0,0.0,0.0,0.0,0.0,0.0,0.0,0.0,0.0,0.0,0.0,0.0,0.0,0.0,0.0,0.0,0.0,0.0,0.0,0.0,0.0,0.0,0.0,0.0,0.0,0.0,0.0,0.0,0.0,0.0,0.0,0.0,0.0,0.0,0.0,0.0,0.0,0.0,0.0,0.0,0.0,0.0,0.0,0.0,0.0,0.0,0.0,0.0,0.0,0.0,0.0,0.0,0.0,0.0,0.0,0.0,0.0,0.0,0.0,0.0,0.0,0.0,0.0,0.0,0.0,0.0,0.0,0.0,0.0,0.0,0.0,0.0,0.0,0.0,0.0,0.0,0.0,0.0,0.0,0.0,0.0,0.0,0.0,0.0,0.0,0.0,0.0,0.0,0.0,0.0,0.0,0.0,0.0,0.0,0.0,0.0,0.0,0.0,0.0,0.0,0.0,0.0,0.0,0.0,0.0,0.0,0.0,0.0,0.0,0.0,0.0,0.0,0.0,0.0,0.0,0.0,0.0,0.0,0.0,0.0,0.0,0.0,0.0,0.0,0.0,0.0,0.0,0.0,0.0,0.0,0.0,0.0,0.0,0.0,0.0,0.0,0.0,0.0,0.0,0.0,0.0,0.0,0.0,0.0,0.0,0.0,0.0,0.0,0.0,0.0,0.0,0.0,0.0,0.0,0.0,0.0,0.0,0.0,0.0,0.0,0.0,0.0,0.0,0.0,0.0,0.0,0.0,0.0,0.0,0.0,0.0,0.0,0.0,0.0,0.0,0.0,0.0,0.0,0.0,0.0,0.0,0.0,0.0,0.0,0.0,0.0,0.0,0.0,0.0,0.0,0.0,0.0,0.0,0.0,0.0,0.0,0.0,0.0,0.0,0.0,0.0,0.0,0.0,0.0,0.0,0.0,0.0,0.0,0.0,0.0,0.0,0.0,0.0,0.0,0.0,0.0,0.0,0.0,0.0,0.0,0.0,0.0,0.0,0.0,0.0,0.0,0.0,0.0,0.0,0.0,0.0,0.0,0.0,0.0,0.0,0.0,0.0,0.0,0.0,0.0,0.0,0.0,0.0,0.0,0.0,0.0,0.0,0.0,0.0,0.0,0.0,0.0,0.0,0.0,0.0,0.0,0.0,0.0,0.0,0.0,0.0,0.0,0.0,0.0,0.0,0.0,0.0,0.0,0.0,0.0,0.0,0.0,0.0,0.0,0.0,0.0,0.0,0.0,0.0,0.0,0.0,0.0,0.0,0.0,0.0,0.0,0.0,0.0,0.0,0.0,0.0,0.0,0.0,0.0,0.0,0.0,0.0,0.0,0.0,0.0,0.0,0.0,0.0,0.0,0.0,0.0,0.0,0.0,0.0,0.0,0.0,0.0,0.0,0.0,0.0,0.0,0.0,0.0,0.0,0.0,0.0,0.0,0.0,0.0,0.0,0.0,0.0,0.0,0.0,0.0,0.0,0.0,0.0,-4.3537,0.0,0.0,0.0,0.0,0.0,0.0,0.0,0.0,0.0,0.0,0.0,0.0,0.0,0.0,0.0,0.0,0.0,0.0,0.0,0.0,0.0,0.0,0.0,0.0,-3.0887,-3.0909,-3.0892,-3.0894,-3.0896,-3.0896,0.0,0.0,0.0,0.0,0.0,-3.0695,-3.0597,-3.0728,-3.1083,-3.1033,-3.1441,-3.2295,-3.2673,-3.2403,-3.1577,0.0,0.0,0.0,0.0,0.0,0.0,0.0,0.0,0.0,0.0,0.0,0.0,0.0,0.0,0.0,0.0,0.0,0.0,0.0,0.0,0.0,0.0,0.0,0.0,0.0,0.0,0.0,0.0,0.0,0.0,0.0,0.0,0.0,0.0,0.0,0.0,0.0,0.0,0.0,0.0,0.0,0.0,0.0,0.0,0.0,0.0,0.0,0.0,0.0,0.0,0.0,0.0,0.0,0.0,0.0,0.0,0.0,0.0,0.0,0.0,0.0,0.0,0.0,0.0,0.0,0.0,0.0,0.0,0.0,0.0,0.0,-4.4581,0.0,0.0,0.0,0.0,0.0,0.0,0.0,0.0,0.0,0.0,0.0,0.0,0.0,0.0,0.0,0.0,0.0,0.0,0.0,0.0,0.0,-3.0822,-3.0822,-3.0865,-3.0967,-3.1103,-3.0972,-3.0955,-3.1092,-3.0975,0.0,0.0,-3.0716,-3.0742,-3.0918,-3.0776,-3.1171,-3.2133,-3.2441,-3.291,-3.3603,-3.5192,-3.5173,-3.3718,-3.1885,0.0,0.0,0.0,0.0,0.0,0.0,0.0,0.0,0.0,0.0,0.0,0.0,0.0,0.0,0.0,0.0,0.0,0.0,0.0,0.0,0.0,0.0,0.0,0.0,0.0,0.0,0.0,0.0,0.0,0.0,0.0,0.0,0.0,0.0,0.0,0.0,0.0,0.0,0.0,0.0,0.0,0.0,0.0,0.0,0.0,0.0,0.0,0.0,0.0,0.0,0.0,0.0,0.0,0.0,0.0,0.0,0.0,0.0,0.0,0.0,0.0,0.0,0.0,0.0,-4.5123,-4.4446,-4.5309,-4.6457,-4.7715,-4.6909,-4.725,-4.8179,0.0,0.0,0.0,0.0,0.0,0.0,0.0,0.0,0.0,0.0,0.0,0.0,0.0,0.0,0.0,0.0,0.0,0.0,0.0,0.0,-3.0887,-3.0887,-3.0888,-3.1182,-3.1888,-3.1301,-3.1205,-3.1893,-3.1239,-3.08,-3.0801,-3.0675,-3.0966,-3.1728,-3.1618,-3.232,-3.3859,-3.5328,-3.6096,-3.6212,-3.7219,-3.7546,-3.7219,-3.4776,-3.3705,-3.3551,0.0,0.0,0.0,0.0,0.0,0.0,0.0,0.0,0.0,0.0,0.0,0.0,0.0,0.0,0.0,0.0,0.0,0.0,0.0,0.0,0.0,0.0,0.0,0.0,0.0,0.0,0.0,0.0,0.0,0.0,0.0,0.0,0.0,0.0,0.0,0.0,0.0,0.0,0.0,0.0,0.0,-3.9481,-4.0352,0.0,0.0,0.0,0.0,0.0,0.0,0.0,0.0,0.0,0.0,0.0,0.0,0.0,0.0,-4.3634,-4.5084,-4.5768,-4.5671,-4.7947,-4.8972,-4.8875,-4.9699,-5.0183,-5.0357,-4.9552,0.0,-4.8372,-4.7908,0.0,0.0,0.0,0.0,0.0,0.0,0.0,0.0,0.0,0.0,0.0,0.0,0.0,0.0,0.0,0.0,0.0,0.0,0.0,0.0,0.0,-3.157,-3.1904,-3.2764,-3.2514,-3.2239,-3.2054,-3.1696,-3.1246,-3.0706,-3.1063,-3.1439,-3.1782,-3.2651,-3.3942,-3.5617,-3.7322,-3.7911,-3.7469,-3.8796,-3.9161,-3.8681,-3.7572,-3.6526,-3.5468,-3.341,0.0,0.0,0.0,0.0,0.0,0.0,0.0,0.0,0.0,0.0,0.0,0.0,0.0,0.0,0.0,0.0,0.0,0.0,0.0,0.0,0.0,0.0,0.0,0.0,0.0,0.0,0.0,0.0,0.0,0.0,0.0,0.0,0.0,0.0,0.0,0.0,0.0,0.0,0.0,-3.8295,-3.9262,-4.0642,-4.0797,-4.0797,0.0,0.0,0.0,0.0,0.0,0.0,0.0,0.0,0.0,-4.5258,-4.5742,-4.6283,-4.6883,-4.8063,-4.845,-4.8005,-4.9146,-4.9436,-4.8991,-4.9842,-5.0221,-5.0221,-5.0318,-5.0163,-4.9687,-4.8256,-4.7076,-4.6071,0.0,0.0,0.0,0.0,0.0,-4.4949,0.0,0.0,0.0,0.0,0.0,0.0,0.0,0.0,0.0,0.0,0.0,0.0,-3.2032,-3.2309,-3.278,-3.3658,-3.3528,-3.3288,-3.298,-3.2549,-3.2079,-3.1584,-3.1917,-3.2188,-3.2339,-3.4205,-3.5989,-3.768,-3.9181,-3.9719,-3.9335,-4.0585,-4.0862,-4.0258,-4.0046,-3.8988,-3.7257,-3.5565,-3.4122,-3.2929,0.0,0.0,0.0,0.0,0.0,0.0,0.0,0.0,0.0,0.0,0.0,0.0,0.0,0.0,0.0,0.0,0.0,0.0,0.0,0.0,0.0,0.0,0.0,0.0,0.0,0.0,0.0,0.0,0.0,0.0,0.0,0.0,0.0,0.0,0.0,0.0,0.0,-3.8895,-3.9746,-4.1255,-4.1641,-4.1777,0.0,0.0,0.0,0.0,0.0,0.0,-4.5258,-4.5239,-4.5722,-4.6748,-4.7424,-4.8275,-4.9359,-4.9958,-4.9958,-4.9378,-4.9591,-4.9359,-4.8759,-4.9629,-5.0016,-5.0035,-5.0415,-5.0705,-5.0743,-4.8856,-4.8198,-4.8275,-4.696,-4.6232,-4.5942,-4.6387,-4.6503,-4.6709,0.0,0.0,0.0,0.0,0.0,0.0,0.0,0.0,0.0,0.0,0.0,-3.2052,-3.2091,-3.2831,-3.369,-3.457,-3.3886,-3.403,-3.5512,-3.4062,-3.3452,-3.4182,-3.3393,-3.3293,-3.4071,-3.6521,-3.8623,-4.0304,-4.1239,-4.2085,-4.2854,-4.2931,-4.2951,-4.2874,-4.2047,-4.0739,-3.9053,-3.7315,-3.6519,-3.6231,-3.3814,0.0,0.0,0.0,0.0,0.0,0.0,0.0,0.0,0.0,0.0,0.0,0.0,0.0,0.0,0.0,0.0,0.0,0.0,0.0,0.0,0.0,0.0,0.0,0.0,0.0,0.0,0.0,0.0,0.0,0.0,0.0,0.0,0.0,0.0,0.0,0.0,0.0,0.0,-4.3073,-4.3904,0.0,0.0,0.0,0.0,-4.4536,-4.4613,-4.5336,-4.6883,-4.696,-4.7753,-4.9455,-4.9552,-4.9204,-4.8469,-4.8508,-4.8508,-4.8488,-4.9301,-4.9687,-4.9668,-5.0473,-5.084,-5.0801,-5.0074,-5.0183,-5.0898,-5.0763,-4.9803,-4.8392,-4.8295,-4.7289,-4.6097,-4.7695,-4.8275,-4.8508,0.0,0.0,0.0,0.0,0.0,-2.7932,-2.8244,-2.9474,-3.0489,-3.0761,-3.1563,-3.2304,-3.289,-3.3714,-3.4567,-3.5405,-3.5192,-3.4966,-3.4847,-3.4247,-3.4028,-3.4266,-3.4494,-3.5751,-3.8202,-3.9688,-4.1008,-4.2162,-4.2489,-4.2797,-4.3104,-4.3104,-4.3104,-4.3085,-4.2777,-4.2297,-4.1623,-3.9892,-3.8527,-3.7469,-3.6546,-3.5026,0.0,0.0,0.0,0.0,0.0,0.0,0.0,0.0,0.0,0.0,0.0,0.0,0.0,0.0,0.0,0.0,0.0,0.0,0.0,0.0,0.0,0.0,0.0,0.0,0.0,0.0,0.0,0.0,0.0,0.0,0.0,0.0,0.0,0.0,0.0,0.0,0.0,-4.3266,-4.4078,0.0,-4.3827,-4.5258,-4.6206,-4.6206,-4.7734,-4.8693,-4.8778,-4.8778,-4.8798,-4.8856,-4.9417,-4.9552,-4.9243,-4.9745,-5.0008,-5.0008,-5.0318,-5.077,-5.1312,-5.1602,-5.1738,-5.1718,-5.1428,-5.1157,-5.0898,-5.0898,-5.055,-5.0008,-5.0008,-4.9649,-4.9184,-4.9784,-5.0008,-5.0086,0.0,0.0,0.0,0.0,-2.7132,-2.8303,-2.8303,-2.9727,-3.0917,-3.1192,-3.1992,-3.2871,-3.3749,-3.4836,-3.5719,-3.6253,-3.6551,-3.651,-3.6046,-3.5745,-3.5548,-3.5482,-3.6045,-3.7796,-4.0873,-4.1508,-4.2354,-4.3508,-4.3797,-4.4085,-4.4374,-4.4374,-4.4374,-4.4374,-4.4066,-4.3778,-4.3431,-4.2258,-4.0816,-3.9258,-3.895,-3.7315,-3.4949,0.0,0.0,0.0,0.0,0.0,0.0,0.0,0.0,0.0,0.0,0.0,0.0,0.0,0.0,0.0,0.0,0.0,0.0,0.0,0.0,0.0,0.0,0.0,0.0,0.0,0.0,0.0,0.0,0.0,0.0,0.0,0.0,0.0,0.0,0.0,-4.3265,-4.3265,-4.4527,-4.5184,-4.4639,-4.6602,-4.7936,-4.7966,-4.9517,-5.0233,-4.9726,-4.9707,-4.9571,-4.9243,-4.9803,-5.0113,-5.0113,-5.0627,-5.0898,-5.0898,-5.1196,-5.1641,-5.221,-5.25,-5.2635,-5.2635,-5.2635,-5.2318,-5.1776,-5.1776,-5.1602,-5.1312,-5.1014,-5.0898,-5.0898,-5.0898,-5.0898,-5.0898,0.0,0.0,0.0,-2.5706,-2.7132,-2.8303,-2.8303,-2.9727,-3.1114,-3.1992,-3.2851,-3.3728,-3.4606,-3.6129,-3.7108,-3.7085,-3.7829,-3.8607,-3.9302,-3.8581,-3.808,-3.8072,-3.8142,-3.9354,-4.1808,-4.1904,-4.2739,-4.4374,-4.5229,-4.6086,-4.6942,-4.6942,-4.6942,-4.6904,-4.6028,-4.5171,-4.4374,-4.4355,-4.3393,-4.1788,-4.0893,-3.9065,-3.6769,0.0,0.0,0.0,0.0,0.0,0.0,0.0,0.0,0.0,0.0,0.0,0.0,0.0,0.0,0.0,0.0,0.0,0.0,0.0,0.0,0.0,0.0,0.0,0.0,0.0,0.0,0.0,0.0,0.0,0.0,0.0,0.0,0.0,-4.202,-4.2712,-4.332,-4.332,-4.5522,-4.7074,-4.7127,-4.8565,-4.9553,-4.9699,-4.9668,-4.9668,-4.9718,-4.9745,-5.0094,-5.0879,-5.0898,-5.0917,-5.0937,-5.0937,-5.0956,-5.0995,-5.1834,-5.2248,-5.2306,-5.3149,-5.3536,-5.3536,-5.3536,-5.3536,-5.3498,-5.3498,-5.2995,-5.2152,-5.1293,-5.0917,-5.0898,-5.0898,-5.0898,-5.0898,0.0,0.0,-2.5701,-2.5706,-2.7132,-2.8303,-2.8303,-2.9727,-3.1114,-3.1992,-3.2851,-3.3719,-3.4547,-3.6106,-3.7049,-3.6964,-3.7693,-3.822,-3.836,-3.8161,-3.857,-3.9765,-4.1585,-4.2893,-4.3605,-4.422,-4.5086,-4.6201,-4.6432,-4.6971,-4.7778,-4.7778,-4.7778,-4.774,-4.6913,-4.6413,-4.6144,-4.5509,-4.4605,-4.3489,-4.2027,-4.1027,-4.0173,0.0,0.0,0.0,0.0,0.0,0.0,0.0,0.0,0.0,0.0,0.0,0.0,0.0,0.0,0.0,0.0,0.0,0.0,0.0,0.0,0.0,0.0,0.0,0.0,0.0,0.0,0.0,0.0,0.0,0.0,0.0,0.0,-4.214,-4.1932,-4.4238,-4.5958,-4.5958,-4.7127,-4.7957,-4.7962,-4.8944,-4.9597,-4.9621,-5.0198,-5.0542,-5.0569,-5.0569,-5.0666,-5.0898,-5.0898,-5.1196,-5.1834,-5.1834,-5.2163,-5.2782,-5.3033,-5.3459,-5.4097,-5.4329,-5.4445,-5.4445,-5.4445,-5.4078,-5.3498,-5.3498,-5.3362,-5.3053,-5.2182,-5.1467,-5.0898,-5.0898,-5.0898,-5.0898,0.0,-2.571,-2.5814,-2.617,-2.7381,-2.8416,-2.8747,-2.9926,-3.1205,-3.2432,-3.3026,-3.3763,-3.4932,-3.6223,-3.7128,-3.7386,-3.8138,-3.8728,-3.9034,-3.9046,-3.995,-4.1997,-4.3181,-4.4124,-4.4816,-4.5701,-4.6394,-4.6904,-4.7605,-4.8182,-4.8644,-4.8644,-4.8644,-4.8586,-4.7432,-4.6904,-4.6827,-4.597,-4.5306,-4.472,-4.3393,-4.2431,-4.1596,-3.9758,-3.8834,-3.8373,-3.7026,-3.5988,-3.5276,-3.5442,0.0,0.0,0.0,0.0,0.0,0.0,0.0,0.0,0.0,0.0,0.0,0.0,0.0,0.0,0.0,0.0,0.0,0.0,0.0,0.0,0.0,0.0,0.0,0.0,-4.3096,-4.424,-4.355,-4.547,-4.7094,-4.7461,-4.8253,-4.8773,-4.8797,-4.9569,-5.0059,-5.0102,-5.0546,-5.0825,-5.0869,-5.085,-5.1032,-5.1396,-5.1396,-5.1829,-5.2743,-5.2743,-5.2995,-5.3498,-5.3865,-5.431,-5.4813,-5.5142,-5.5296,0.0,-5.5296,-5.5026,-5.4542,-5.4542,-5.4349,0.0,0.0,0.0,0.0,0.0,-5.1447,-5.1389,0.0,-2.5675,-2.5959,-2.6838,-2.7699,-2.8558,-2.9356,-3.0163,-3.1301,-3.307,-3.3245,-3.3833,-3.551,-3.6492,-3.7278,-3.7892,-3.8868,-3.9785,-4.0593,-4.0823,-4.1939,-4.4201,-4.3701,-4.4124,-4.571,-4.6509,-4.6981,-4.7182,-4.8663,-4.9452,-4.9548,-4.9548,-4.9548,-4.9471,-4.7894,-4.7135,-4.699,-4.6105,-4.5691,-4.5537,-4.4759,-4.3566,-4.2124,-4.1162,-4.0362,-3.9611,-3.8738,-3.7815,-3.6885,-3.6173,0.0,0.0,0.0,0.0,0.0,0.0,0.0,0.0,0.0,0.0,0.0,0.0,0.0,0.0,0.0,0.0,0.0,0.0,0.0,0.0,0.0,0.0,0.0,0.0,-4.4977,-4.7394,-4.621,-4.6698,-4.7467,-4.8237,-4.9057,-4.9566,-4.962,-5.0278,-5.0712,-5.0784,-5.0729,-5.0786,-5.0928,0.0,0.0,0.0,0.0,-5.2685,-5.3616,-5.3616,-5.3674,-5.3771,-5.4553,-5.494,-5.4959,-5.5675,-5.6012,-5.6012,-5.6012,-5.6012,-5.6012,-5.6012,-5.5586,-5.4832,-5.3884,-5.3498,-5.3401,-5.2635,-5.2345,0.0,0.0,-2.5578,-2.5887,-2.6698,-2.7598,-2.8464,-2.9226,-3.0069,-3.1252,-3.2997,-3.32,-3.3828,-3.5436,-3.6967,-3.7623,-3.7017,-3.8984,-4.0631,-4.1489,-4.2816,-4.3778,-4.4278,-4.4816,-4.5605,-4.6624,-4.6817,-4.7567,-4.8913,-4.924,-4.976,-5.0462,-5.0462,-5.0462,-5.0404,-4.9375,-4.8529,-4.7817,-4.7009,-4.624,-4.5594,-4.5421,-4.5152,-4.471,-4.3181,-4.2508,-4.2258,-4.1373,-4.0085,-3.8757,-3.8623,-3.7623,-3.6442,-3.6269,-3.5769,0.0,0.0,0.0,0.0,0.0,0.0,0.0,0.0,0.0,0.0,0.0,0.0,0.0,0.0,0.0,0.0,0.0,0.0,0.0,-4.5287,-4.5922,-4.6691,-4.8413,-4.8807,-4.898,-4.9163,-4.9923,-5.0442,-5.0462,-5.0615,-5.0711,-5.071,-5.0766,-5.1092,-5.1806,-5.1845,0.0,-5.3039,-5.3078,-5.3483,-5.438,-5.438,-5.4727,-5.5441,0.0,0.0,-5.5776,-5.5937,-5.6012,-5.6012,-5.6012,-5.6012,-5.6012,-5.6012,-5.5915,-5.5625,-5.4097,-5.3498,-5.3478,-5.3304,-5.3246,-5.3111,0.0,-2.5473,-2.5957,-2.7239,-2.7838,-2.8566,-2.976,-3.0288,-3.1019,-3.2337,-3.2479,-3.2917,-3.4118,-3.4993,-3.5657,-3.6065,-3.843,-4.0431,-4.1712,-4.2989,-4.4066,-4.4913,-4.5778,-4.6451,-4.6885,-4.7721,-4.8567,-4.9394,-4.9837,-5.0269,-5.0712,-5.0712,-5.0712,-5.0654,-4.9779,-4.9163,-4.8663,-4.7432,-4.6644,-4.6201,-4.5787,-4.5594,-4.546,-4.4182,-4.3451,-4.2989,-4.2104,-4.0719,-3.9304,-3.9304,-3.843,-3.7353,-3.7353,-3.7065,-3.6507,0.0,0.0,0.0,0.0,0.0,0.0,0.0,0.0,0.0,0.0,0.0,0.0,0.0,0.0,-4.1412,-4.2297,0.0,-4.4778,-4.6047,-4.7317,-4.8442,-4.9279,-4.9779,-5.0048,-5.0048,-5.0442,-5.0712,-5.0712,-5.0693,-5.0702,-5.0702,-5.1087,-5.1549,-5.1982,-5.2406,-5.3042,-5.388,-5.3899,-5.4333,-5.5239,-5.5239,-5.5471,-5.5895,-5.5924,-5.5953,-5.5953,-5.5942,-5.5951,-5.5951,-5.5951,-5.5969,-5.5996,-5.5995,-5.6012,-5.5915,-5.5084,-5.4755,-5.4697,-5.4291,-5.4155,-5.402,0.0,-2.5376,-2.6001,-2.7768,-2.807,-2.8633,-3.0307,-3.053,-3.0799,-3.1667,-3.1721,-3.2006,-3.2814,-3.3045,-3.3853,-3.5577,-3.7757,-3.9758,-4.145,-4.2662,-4.3932,-4.5287,-4.6336,-4.6962,-4.7135,-4.8625,-4.9471,-4.9644,-5.0366,-5.0712,-5.0712,-5.0712,-5.0712,-5.0673,-4.9971,-4.9452,-4.9067,-4.7721,-4.6951,-4.6586,-4.5874,-4.5594,-4.5498,-4.4624,-4.3797,-4.3028,-4.2489,-4.1219,-3.9796,-3.9796,-3.92,-3.845,-3.8296,-3.8257,-3.795,-3.6423,-3.6558,0.0,0.0,0.0,0.0,0.0,0.0,0.0,0.0,0.0,-4.0104,-4.1266,-4.2047,-4.2643,-4.2962,-4.5154,-4.6836,-4.6614,-4.8769,-5.0269,-4.9721,-5.0269,-5.0712,-5.0712,-5.0712,-5.0712,-5.0712,-5.0712,-5.077,-5.0914,-5.1529,-5.2038,-5.2385,-5.3068,-5.3858,-5.4717,-5.4736,-5.5103,-5.5846,-5.5865,-5.5865,-5.5865,-5.5856,-5.5885,-5.5885,-5.5895,-5.5895,-5.5895,-5.5895,-5.5924,-5.5981,-5.5996,-5.5995,-5.5995,-5.6003,-5.6012,-5.5915,-5.5277,-5.5026,-5.4909,0.0,-2.5276,-2.5875,-2.7613,-2.7923,-2.8483,-3.0161,-3.0427,-3.0729,-3.1595,-3.1705,-3.2006,-3.2814,-3.3583,-3.4737,-3.6423,-3.7526,-3.8854,-4.0535,-4.2854,-4.4239,-4.4432,-4.6028,-4.7231,-4.7952,-4.8913,-4.9779,-5.0558,-5.0654,-5.0712,-5.0712,-5.0712,-5.0712,-5.0712,-5.0596,-4.9683,-4.824,-4.8048,-4.7105,-4.5748,-4.5633,-4.5594,-4.5498,-4.4624,-4.3797,-4.3181,-4.3797,-4.2951,-4.1527,-4.1527,-4.0931,-4.0092,-3.9381,-3.915,-3.8977,-3.8007,-3.8334,-3.8815,-3.7969,-3.8411,-3.9342,-4.0035,-3.9765,-4.0265,0.0,0.0,-4.22,-4.4536,-4.5114,-4.5624,-4.7124,-4.7124,-4.7605,-4.9788,-4.9798,-4.9779,-5.0462,-5.0635,-5.0712,-5.0712,-5.0712,-5.0712,-5.0712,-5.0712,-5.0991,-5.1712,-5.1846,-5.2577,-5.4126,-5.4299,-5.4722,-5.5541,-5.556,-5.5618,-5.5724,-5.5724,-5.5724,-5.5724,-5.5776,-5.5797,-5.5797,-5.5856,-5.5895,-5.5895,-5.5895,-5.5905,-5.5914,-5.5981,-5.5999,-5.6008,-5.5995,-5.6012,-5.5993,-5.5896,-5.5877,-5.576,0.0,0.0,-2.5641,-2.6921,-2.7565,-2.8466,-3.014,-3.0404,-3.0538,-3.0904,-3.0942,-3.1077,-3.1404,-3.2218,-3.3026,-3.3737,-3.5481,-3.7257,-3.8931,-4.0958,-4.2739,-4.4239,-4.547,-4.6547,-4.7394,-4.8221,-4.9067,-4.9933,-4.9933,-5.0202,-5.0712,-5.0712,-5.0712,-5.0673,-5.0173,-4.9529,-4.8798,-4.7817,-4.7009,-4.6317,-4.5806,-4.5306,-4.4855,-4.4998,-4.3932,-4.2393,-4.272,-4.2393,0.0,-4.12,-4.0489,-3.9746,-3.9419,-3.8957,-3.8469,-3.8104,-3.8623,-3.9534,-4.0662,-4.1219,-4.147,-4.1296,-4.1739,-4.2412,-4.3201,-4.3316,-4.3701,-4.5287,-4.599,-4.6567,-4.7278,-4.7913,-4.8702,0.0,-5.0048,-5.0289,-5.0654,-5.0712,-5.0856,-5.1337,-5.1395,-5.1202,-5.075,-5.0712,-5.1029,-5.1846,-5.2365,-5.3203,-5.4434,-5.4934,-5.5338,-5.5684,-5.5703,-5.5703,-5.5703,-5.5703,-5.5703,-5.5703,-5.5735,-5.5745,-5.5745,-5.5766,-5.5776,-5.5796,-5.5826,-5.5836,-5.5846,-5.5914,-5.5933,-5.5933,-5.5933,-5.596,-5.6007,-5.5995,-5.6012,-5.5954,0.0,0.0,0.0,-2.6414,-2.7286,-2.8365,-2.9827,-3.025,-3.0404,-3.0404,-3.0404,-3.0404,-3.0404,-3.0962,-3.1448,-3.1679,-3.3814,-3.5757,-3.7219,-3.9315,-4.1324,-4.3162,-4.4767,-4.5893,-4.6528,-4.7567,-4.8413,-4.9048,-4.9048,-4.9356,-4.9971,-4.9971,-4.9971,-4.9952,-4.9317,-4.8913,-4.8625,-4.7432,-4.6615,-4.6124,-4.549,-4.4855,-4.4316,-4.4489,-4.3566,-4.2162,-4.2162,-4.1854,-4.1354,-4.0708,-3.9977,-3.9304,-3.9304,-3.87,-3.8046,-3.8296,-3.895,-4.0035,-4.1873,-4.272,-4.2951,-4.2316,-4.3239,-4.4047,-4.3066,-4.3605,-4.4624,-4.572,-4.6471,-4.7038,-4.7509,-4.8586,-4.9471,-4.9721,-5.0289,-5.0712,-5.0712,-5.0712,-5.0991,-5.1788,-5.1904,-5.1779,-5.1414,-5.1164,-5.1471,-5.2538,-5.2991,-5.3683,-5.4761,-5.5376,-5.5703,-5.5703,-5.5703,-5.5703,-5.5703,-5.5703,-5.5703,-5.5703,-5.5703,-5.5703,-5.5703,-5.5703,-5.5703,-5.5714,-5.5756,-5.5766,-5.5776,-5.5836,-5.5875,-5.5866,-5.5895,-5.5924,-5.5981,-5.5979,-5.5986,-5.6012,0.0,0.0,0.0,0.0,-2.722,-2.8118,-2.9006,-2.9871,-3.0404,-3.0404,-3.0404,-3.0404,-3.0404,-3.0423,-3.0788,-3.1641,-3.3256,-3.4622,-3.5519,-3.8661,-4.0535,-4.0612,-4.3825,-4.5614,-4.5633,-4.7259,-4.8105,-4.8144,-4.8144,-4.8144,-4.8182,-4.8182,-4.8182,-4.8182,-4.8144,-4.7721,-4.6962,-4.6923,-4.5932,-4.4374,-4.4355,-4.4316,-4.4124,-4.2527,-4.2393,-4.3066,-4.3066,-4.197,-4.0535,-4.0516,-3.9977,-3.9304,-3.9304,-3.87,-3.8161,-3.9015,-3.9823,-4.0477,-4.0554,-4.1816,-4.3085,-4.3066,-4.3682,-4.4509,-4.5306,-4.4874,-4.4797,-4.6509,-4.6885,-4.7413,-4.9029,-4.9375,-4.9683,-5.0519,-5.0673,-5.0712,-5.0712,-5.0712,-5.0991,-5.1788,-5.1904,-5.2212,0.0,-5.2346,-5.2558,-5.428,-5.3664,-5.3914,-5.5568,-5.5684,-5.5703,-5.5703,-5.5703,-5.5703,-5.5703,-5.5703,-5.5703,-5.5703,-5.5703,-5.5703,-5.5703,-5.5703,-5.5703,-5.5703,-5.5714,-5.5714,-5.5714,-5.5776,-5.5797,-5.5816,-5.5866,-5.5895,-5.5905,-5.5905,-5.5942,-5.6012,0.0,0.0,0.0,0.0,0.0,-2.7896,-2.8195,-2.9475,-3.0404,-3.0404,-3.0404,0.0,0.0,0.0,0.0,0.0,-3.1891,-3.3141,-3.4545,-3.6238,-3.818,-4.04,-4.1593,-4.2766,-4.3912,-4.4489,-4.5047,-4.5586,-4.5586,-4.6163,-4.7288,-4.7288,-4.7586,-4.8048,-4.6932,-4.6278,-4.5951,-4.4855,-4.4047,-4.3508,-4.3508,-4.2816,-4.1843,-4.2431,-4.145,-3.9796,0.0,-4.0208,-3.9631,-3.9046,-3.8661,-3.843,-3.843,-3.7834,-3.7315,-3.818,-3.9027,-4.0073,-4.1758,-4.2643,-4.3239,-4.3758,-4.4528,-4.5094,-4.4797,-4.496,-4.549,-4.6663,-4.6904,-4.724,-4.8336,-4.9009,-4.949,-4.9779,-5.0327,-5.0712,-5.0712,-5.0712,-5.1202,-5.2606,-5.275,0.0,0.0,0.0,0.0,-5.4414,-5.4222,-5.453,-5.5645,-5.5703,-5.5703,-5.5703,-5.5703,-5.5703,-5.5703,-5.5703,-5.5703,-5.5703,-5.5703,-5.5703,-5.5703,-5.5703,-5.5703,-5.5703,-5.5703,-5.5703,-5.5703,-5.5724,-5.5735,-5.5735,-5.5756,-5.5787,-5.5836,-5.5836,-5.5876,-5.5933,0.0,0.0,0.0,0.0,0.0,0.0,0.0,0.0,0.0,0.0,0.0,0.0,0.0,0.0,0.0,0.0,0.0,-3.216,-3.3237,-3.4391,-3.6142,-3.8604,-3.9277,-4.0277,-4.17,-4.2027,-4.2585,-4.3412,-4.3412,-4.4143,-4.5547,-4.5547,-4.5817,-4.6278,-4.5182,-4.471,-4.4624,-4.322,-4.2607,-4.2516,-4.1909,-4.1163,-4.0485,-4.1037,-3.9873,0.0,-3.8269,-3.818,-3.7853,-3.7296,-3.7103,-3.7103,-3.7103,-3.7142,-3.7334,-3.82,-3.9296,-4.0681,-4.2912,-4.3528,-4.372,-4.4547,-4.519,-4.546,-4.4893,-4.5432,-4.6317,-4.7163,-4.7336,-4.7586,-4.8413,-4.9029,-4.9394,-4.9394,-5.0125,-5.0712,-5.0712,-5.0712,-5.1318,-5.301,-5.3203,-5.3857,0.0,0.0,0.0,-5.4876,-5.4664,-5.4857,-5.5665,-5.5703,-5.5703,-5.5703,-5.5703,-5.5703,-5.5703,-5.5703,-5.5703,-5.5703,-5.5703,-5.5703,-5.5703,-5.5703,-5.5703,-5.5703,-5.5703,-5.5703,-5.5703,-5.5703,-5.5703,-5.5703,-5.5703,-5.5735,-5.5766,-5.5766,-5.5816,-5.5866,0.0,0.0,0.0,0.0,0.0,0.0,0.0,0.0,0.0,0.0,0.0,0.0,0.0,0.0,0.0,0.0,0.0,0.0,-3.1698,-3.3179,-3.4487,-3.5385,-3.6969,-3.82,-3.9092,-3.99,-4.07,-4.1538,-4.1577,-4.2047,-4.2912,-4.2912,-4.2923,-4.2962,-4.2904,-4.2885,-4.2827,-4.1953,-4.1519,-4.125,-3.9676,-3.9453,-3.9928,-3.8454,-3.7835,-3.767,-3.6952,-3.6166,-3.55,-3.55,-3.5538,-3.5577,-3.5673,-3.6796,-3.8257,-3.9161,-4.0546,-4.2181,-4.3835,-4.4297,-4.4509,-4.5383,-4.5594,-4.5594,-4.5594,-4.624,-4.7048,-4.7817,-4.7952,-4.8163,0.0,0.0,-4.926,-4.926,-5.0067,-5.0712,-5.0712,-5.0712,-5.1318,0.0,0.0,0.0,0.0,0.0,0.0,-5.564,0.0,-5.4865,-5.5635,-5.5684,-5.5703,-5.5703,-5.5703,-5.5703,-5.5703,-5.5703,-5.5703,-5.5703,-5.5703,-5.5703,-5.5703,-5.5703,-5.5703,-5.5703,-5.5703,-5.5703,-5.5703,-5.5703,-5.5703,-5.5703,-5.5703,-5.5703,-5.5703,-5.5703,-5.5745,-5.5797,0.0,0.0,0.0,0.0,0.0,0.0,0.0,0.0,0.0,0.0,0.0,0.0,0.0,0.0,0.0,0.0,0.0,0.0,-3.166,-3.2102,-3.2987,-3.4468,-3.493,-3.5584,-3.6442,-3.7257,-3.7777,-3.8,-3.8661,-3.9411,-4.0258,-4.0164,-4.0466,-4.1053,-4.036,-4.0057,-3.998,-3.9118,-3.8727,-3.8663,-3.8231,-3.7832,-3.75,-3.7679,-3.7015,-3.6005,-3.6404,-3.6067,-3.5427,-3.5474,-3.5904,-3.6615,-3.7911,-3.8623,-3.9258,-4.0739,-4.147,-4.2181,-4.3835,-4.4297,-4.4509,-4.5383,-4.5594,-4.5594,-4.5594,-4.5768,-4.599,-4.621,-4.572,-4.5336,0.0,0.0,0.0,-4.7548,-4.9317,0.0,-5.0712,-5.0712,0.0,-5.301,0.0,-5.3782,-5.526,-5.5339,0.0,0.0,-5.5065,-5.519,-5.5382,-5.5596,-5.5703,-5.5703,-5.5703,-5.5703,-5.5703,-5.5703,-5.5703,-5.5703,-5.5703,-5.5703,-5.5703,-5.5703,-5.5703,-5.5703,-5.5703,-5.5703,-5.5703,-5.5703,-5.5703,-5.5703,-5.5703,-5.5703,-5.5703,-5.5703,-5.5714,-5.5735,0.0,0.0,0.0,0.0,0.0,0.0,0.0,0.0,0.0,0.0,0.0,0.0,0.0,0.0,0.0,0.0,0.0,0.0,0.0,-3.1084,-3.1655,-3.2926,-3.2976,-3.336,-3.4203,-3.5013,-3.5465,-3.5556,-3.6791,-3.7651,-3.8161,-3.8431,-3.884,-3.9273,-3.8691,-3.8437,-3.836,-3.7519,-3.736,0.0,0.0,-3.6478,-3.6385,-3.6505,-3.5997,-3.5269,-3.5793,-3.5979,-3.6027,-3.6414,-3.6877,-3.745,-3.8411,-3.9227,-4.0092,-4.1412,-4.2316,-4.3181,-4.4509,-4.4874,-4.4998,-4.5479,-4.5594,-4.5498,-4.5133,-4.5325,-4.5498,-4.5114,-4.4643,-4.4297,-4.4297,-4.572,0.0,0.0,0.0,0.0,-5.0712,-5.0712,-5.1318,0.0,-5.307,0.0,-5.4619,-5.4485,-5.4257,0.0,-5.4832,-5.5301,-5.5301,-5.5543,-5.5703,-5.5703,-5.5703,-5.5703,-5.5703,-5.5703,-5.5703,-5.5703,-5.5703,-5.5703,-5.5703,-5.5703,-5.5703,-5.5703,0.0,-5.5703,-5.5703,-5.5703,-5.5703,-5.5703,-5.5703,-5.5703,-5.5703,-5.5703,-5.5703,-5.5703,0.0,0.0,0.0,0.0,0.0,0.0,0.0,0.0,0.0,0.0,-3.0246,0.0,0.0,0.0,0.0,0.0,0.0,0.0,0.0,0.0,0.0,-3.1169,-3.1207,-3.1531,-3.2225,-3.3024,-3.3535,-3.3733,-3.5404,-3.627,-3.6356,-3.7172,-3.7535,-3.7515,-3.7394,-3.7332,-3.7274,-3.6578,-3.6668,-3.711,-3.5664,-3.5457,-3.597,0.0,0.0,-3.5101,-3.5237,-3.5887,-3.6799,-3.7621,-3.8016,-3.8219,-3.843,-3.9585,-4.1016,-4.1873,-4.3239,-4.4643,-4.5402,-4.5594,-4.5594,-4.5594,-4.5594,-4.5364,-4.4489,-4.4874,-4.5152,-4.4162,-4.397,-4.3932,-4.3816,-4.5316,-4.6586,-4.6721,0.0,-5.0577,-5.0673,-5.0712,-5.1308,-5.295,-5.2886,-5.3016,-5.3798,-5.3498,-5.3191,-5.3046,-5.4362,-5.5191,-5.5217,-5.5497,-5.5651,-5.5703,-5.5703,-5.5703,-5.5703,-5.5703,-5.5703,-5.5703,-5.5703,-5.5703,-5.5703,-5.5703,-5.5703,-5.5703,0.0,0.0,-5.5703,-5.5703,-5.5703,-5.5703,-5.5703,-5.5703,-5.5703,-5.5703,-5.5703,-5.5703,0.0,0.0,0.0,0.0,0.0,0.0,0.0,0.0,0.0,0.0,-2.9907,-3.0104,0.0,0.0,0.0,0.0,0.0,0.0,0.0,0.0,0.0,0.0,-3.0162,-3.0238,-3.0371,-3.1159,-3.1646,0.0,0.0,-3.4345,-3.4473,-3.5244,-3.5583,-3.5583,-3.5447,-3.5382,-3.5382,-3.523,-3.5258,-3.5334,-3.505,-3.5022,-3.5116,0.0,0.0,0.0,-3.5168,-3.5785,-3.6672,-3.7586,-3.842,-3.9315,-4.07,-4.1835,-4.2816,-4.3624,-4.4586,-4.5421,-4.5556,-4.5594,-4.5594,-4.5594,-4.5594,-4.5364,-4.4489,-4.4412,0.0,-4.2547,-4.2239,-4.2008,-4.1285,-4.3124,-4.4989,-4.571,-4.7952,-4.9875,-5.0596,-5.0712,-5.1209,0.0,-5.274,-5.2861,-5.3223,0.0,0.0,0.0,0.0,0.0,-5.4866,-5.5191,-5.5461,-5.5684,-5.5703,-5.5703,-5.5703,-5.5703,-5.5703,-5.5703,-5.5703,-5.5703,-5.5703,-5.5703,-5.5703,-5.5703,0.0,0.0,-5.5703,-5.5703,-5.5703,-5.5703,-5.5703,-5.5703,-5.5703,-5.5703,-5.5703,-5.5703,0.0,0.0,0.0,0.0,0.0,0.0,0.0,-2.9259,-2.932,-2.9385,-2.9907,-3.0186,-3.0014,-2.9965,-2.9958,0.0,0.0,0.0,0.0,0.0,0.0,0.0,0.0,0.0,0.0,0.0,0.0,0.0,0.0,0.0,0.0,0.0,0.0,0.0,0.0,0.0,0.0,-3.4908,-3.4908,0.0,0.0,0.0,0.0,0.0,0.0,0.0,0.0,-3.5702,-3.6578,-3.7025,-3.8105,-3.9542,-4.1269,-4.2412,-4.3258,-4.4066,-4.4921,-4.5594,-4.5594,-4.5594,-4.5594,-4.5594,-4.5594,-4.5267,-4.397,0.0,0.0,-4.147,-4.1127,-4.1003,-4.0585,-4.2239,-4.3951,-4.4778,-4.7067,-4.9029,-4.9894,-5.0423,-5.1198,-5.2549,-5.2558,-5.2452,0.0,0.0,0.0,0.0,0.0,0.0,-5.4509,-5.4866,-5.5091,-5.5224,-5.5237,-5.5237,-5.5237,-5.5394,-5.5485,-5.5485,-5.5629,-5.5703,-5.5703,-5.5703,-5.5703,-5.5703,-5.5703,0.0,-5.5703,-5.5703,-5.5703,-5.5703,-5.5703,-5.5703,-5.5703,-5.5703,-5.5703,-5.5703,0.0,0.0,0.0,0.0,0.0,0.0,-2.9005,-2.918,-2.9358,-2.9411,-3.0021,-3.032,-2.9955,-2.9979,-2.9966,0.0,0.0,0.0,0.0,0.0,0.0,0.0,0.0,0.0,0.0,0.0,0.0,0.0,0.0,0.0,0.0,0.0,0.0,0.0,0.0,0.0,0.0,0.0,0.0,0.0,0.0,0.0,0.0,0.0,0.0,0.0,0.0,-3.551,-3.6222,-3.6436,-3.7455,-3.8946,-4.0688,-4.1953,-4.2923,-4.3566,-4.4509,-4.5365,-4.5547,-4.5594,-4.5594,-4.5594,-4.5594,-4.5163,-4.3462,-4.3032,-4.2516,-4.083,-4.0479,-4.0499,-4.0492,-4.1769,-4.3126,0.0,-4.6117,-4.7943,-4.9124,-4.9873,-5.0804,0.0,-5.2167,0.0,-5.1809,0.0,0.0,0.0,0.0,0.0,-5.4243,-5.4623,-5.4791,-5.4791,-5.4791,-5.4791,-5.4791,-5.5069,-5.5191,-5.521,-5.5406,-5.5543,-5.5618,-5.5618,-5.564,-5.5703,-5.5703,0.0,0.0,-5.5703,-5.5703,-5.5703,-5.5703,-5.5703,-5.5703,-5.5703,-5.5703,-5.5703,0.0,0.0,0.0,0.0,0.0,0.0,-2.9005,-2.9641,-3.0093,-3.0105,-3.0237,-3.0296,-3.0256,-3.0383,-3.0153,0.0,0.0,0.0,0.0,0.0,0.0,0.0,0.0,0.0,0.0,0.0,0.0,0.0,0.0,0.0,0.0,0.0,0.0,0.0,0.0,0.0,0.0,0.0,0.0,0.0,0.0,0.0,0.0,0.0,0.0,0.0,0.0,-3.5103,-3.5361,-3.6203,-3.666,-3.7133,-3.881,-4.0485,-4.1863,-4.1992,0.0,0.0,-4.5385,-4.5594,-4.5594,-4.5594,-4.5594,-4.5143,-4.3408,0.0,-4.2518,-4.0778,-4.0458,-4.0502,-4.051,-4.122,-4.2373,-4.4025,-4.5102,-4.6482,-4.8636,-4.9014,-4.9493,-5.0662,0.0,0.0,0.0,0.0,0.0,0.0,0.0,0.0,0.0,-5.4623,-5.4791,-5.4791,-5.4791,-5.4791,-5.4791,-5.4821,-5.4836,-5.4851,-5.4866,-5.5037,-5.5339,-5.5339,-5.5461,-5.5703,0.0,0.0,0.0,-5.5703,-5.5703,-5.5703,-5.5703,-5.5703,-5.5703,-5.5703,-5.5703,-5.5703,0.0,0.0,0.0,0.0,0.0,0.0,-2.9005,-2.9262,-2.9482,-2.9482,-2.9921,-3.0062,-2.9566,-2.9991,-3.0035,-2.9309,0.0,0.0,0.0,0.0,0.0,0.0,0.0,0.0,0.0,0.0,-2.9178,-2.9115,0.0,0.0,0.0,0.0,0.0,0.0,0.0,0.0,0.0,0.0,0.0,0.0,0.0,0.0,0.0,0.0,0.0,0.0,0.0,0.0,-3.5166,-3.5541,-3.6075,-3.6607,-3.6765,-3.798,-3.9772,0.0,-4.2996,-4.3822,-4.5212,-4.5594,-4.5594,-4.5594,-4.5203,-4.4504,-4.3284,0.0,-4.1815,-4.0637,-4.0388,-4.0388,-4.0432,-4.0602,-4.1321,-4.3156,-4.396,-4.5074,-4.711,-4.816,-4.9007,-4.9799,-5.1016,0.0,0.0,0.0,0.0,0.0,0.0,0.0,0.0,-5.4125,-5.4194,-5.4194,-5.4194,-5.4194,-5.4194,-5.4397,-5.4495,-5.4495,-5.47,-5.4866,-5.4995,-5.4995,-5.505,-5.5159,0.0,0.0,0.0,-5.5159,-5.5282,-5.5449,-5.5449,-5.5562,-5.5703,-5.5703,-5.5703,-5.5703,0.0,0.0,0.0,0.0,0.0,-2.9005,-2.9005,-2.9207,-2.9354,-2.9354,-2.9861,-2.9989,-2.9427,-2.9647,-2.9657,-2.9178,-2.9134,0.0,0.0,0.0,0.0,0.0,0.0,0.0,0.0,0.0,-2.9078,-2.9005,-2.9149,-3.0028,0.0,0.0,0.0,0.0,0.0,0.0,0.0,0.0,0.0,0.0,0.0,0.0,0.0,0.0,0.0,0.0,0.0,0.0,0.0,0.0,0.0,-3.6088,-3.5461,-3.6077,-3.7666,-4.091,-4.2202,-4.294,-4.4425,-4.5028,-4.5229,-4.5229,-4.456,-4.3747,0.0,0.0,-4.1378,-4.0535,-4.0335,-4.0307,-4.027,-4.0167,-4.0653,-4.2402,-4.2965,-4.3879,-4.5866,-4.7055,-4.7928,0.0,0.0,0.0,0.0,0.0,0.0,0.0,0.0,0.0,0.0,-5.3813,-5.3813,-5.3813,-5.3813,-5.3813,-5.3813,-5.4035,-5.4142,-5.4142,-5.438,-5.456,-5.4654,-5.4654,-5.47,0.0,0.0,0.0,0.0,-5.4791,-5.4938,-5.5151,-5.5151,-5.532,-5.5585,-5.5585,-5.5629,-5.5703,0.0,0.0,0.0,0.0,0.0,0.0,-2.9005,-2.9684,-3.0191,-3.0191,-3.0191,-3.021,-3.0191,-2.9482,-2.9005,-2.9005,-2.9005,0.0,0.0,0.0,0.0,0.0,0.0,0.0,0.0,0.0,-2.9005,-2.9005,-2.9005,-2.9824,-3.1397,-3.147,-3.236,0.0,0.0,0.0,0.0,0.0,0.0,0.0,0.0,0.0,-3.4416,0.0,0.0,0.0,0.0,0.0,0.0,0.0,0.0,0.0,0.0,-3.5209,-3.5742,-3.8378,-4.0366,-4.1899,-4.2787,-4.3656,-4.4316,-4.4316,-4.3656,-4.2998,-4.2926,-4.2229,-4.135,-4.0472,-4.0309,-4.0243,-4.0042,-3.9993,-4.0484,-4.1957,-4.2214,-4.3007,-4.5288,-4.5633,-4.5862,0.0,0.0,0.0,0.0,0.0,0.0,0.0,0.0,0.0,0.0,-5.3813,-5.3813,-5.3813,-5.3813,-5.3813,-5.3813,-5.3794,-5.3813,-5.3813,-5.3813,-5.3981,-5.4315,-5.4315,0.0,0.0,0.0,0.0,0.0,-5.4791,-5.4806,-5.4806,-5.4806,-5.4995,-5.5301,-5.5301,-5.5461,-5.5703,0.0,0.0,0.0,0.0,0.0,0.0,-2.9005,-2.9225,-2.9372,-2.9372,-2.9372,-2.9372,-2.9372,-2.9152,-2.9005,-2.9005,-2.9005,0.0,0.0,0.0,0.0,0.0,0.0,0.0,0.0,-2.9005,-2.9262,-2.9824,-2.9824,-3.065,-3.2228,-3.2292,-3.2882,-3.3895,0.0,0.0,0.0,0.0,0.0,0.0,0.0,-3.4185,-3.4269,0.0,0.0,0.0,0.0,0.0,0.0,0.0,0.0,0.0,0.0,0.0,0.0,-3.6736,-3.8027,-3.9344,-4.0825,-4.1859,-4.2529,-4.2529,-4.2283,-4.2,-4.1838,-4.1139,-4.0422,-4.0155,-3.9977,-3.9916,-3.9998,-3.9777,-4.0174,-4.1925,-4.2436,-4.3104,0.0,0.0,0.0,0.0,0.0,0.0,0.0,0.0,0.0,0.0,0.0,0.0,0.0,0.0,-5.3813,-5.3813,-5.3813,-5.3813,-5.3813,-5.3813,-5.3813,-5.3813,-5.3813,-5.3851,-5.3963,-5.3963,0.0,0.0,0.0,0.0,0.0,-5.4125,-5.4264,-5.4463,-5.4463,-5.467,-5.4952,-5.4952,-5.5164,-5.5425,0.0,0.0,0.0,0.0,0.0,0.0,-2.9005,-2.9005,-2.9005,-2.9005,-2.9005,-2.9005,-2.9005,-2.9005,-2.9005,-2.9005,-2.9005,0.0,0.0,0.0,0.0,0.0,0.0,0.0,-2.9005,-2.9005,-2.939,-3.021,-3.0503,-3.1329,-3.2601,-3.2972,-3.3421,-3.3855,-3.3934,-3.3947,0.0,0.0,0.0,0.0,-3.3921,-3.3972,-3.4061,0.0,0.0,0.0,0.0,0.0,0.0,0.0,0.0,0.0,0.0,0.0,0.0,0.0,-3.6159,-3.7188,-3.9247,-4.0496,-4.1295,-4.1622,-4.135,-4.1055,-4.1251,-4.0566,-3.9903,-3.9986,-3.9848,-3.9739,-3.987,-3.9611,-3.9864,-4.1297,-4.1983,-4.2783,0.0,0.0,0.0,0.0,0.0,0.0,0.0,0.0,0.0,0.0,0.0,0.0,0.0,0.0,-5.3813,-5.3813,-5.3813,-5.3813,-5.3813,-5.3813,-5.3813,-5.3813,-5.3813,-5.3813,-5.3813,0.0,0.0,0.0,0.0,0.0,0.0,-5.3813,-5.3926,-5.4107,-5.4107,-5.4332,-5.4607,-5.4607,-5.4821,-5.5111,0.0,0.0,0.0,0.0,0.0,0.0,0.0,-2.9005,-2.9005,-2.9005,-2.9005,-2.9005,-2.9005,-2.9005,-2.9005,-2.9005,-2.9005,0.0,0.0,0.0,0.0,0.0,0.0,0.0,-2.9005,-2.9005,-2.9427,-3.0283,-3.1091,-3.1935,-3.2784,-3.3598,-3.3947,-3.388,-3.3892,-3.3873,-3.3807,-3.3807,-3.3807,-3.3807,-3.3807,-3.3788,0.0,0.0,0.0,0.0,0.0,0.0,0.0,0.0,0.0,0.0,0.0,0.0,0.0,0.0,0.0,0.0,0.0,-3.9336,-4.0302,-4.1166,-4.0626,-4.0115,-4.0961,-4.0389,0.0,-3.9933,-3.9804,-3.9689,-3.9757,-3.9552,-3.9647,-4.0444,-4.12,-4.224,0.0,-4.4896,0.0,0.0,0.0,0.0,0.0,0.0,0.0,0.0,0.0,0.0,0.0,0.0,-5.3813,-5.3813,-5.3813,-5.3813,-5.3813,-5.3813,-5.3813,-5.3813,-5.3813,-5.3813,-5.3813,-5.3813,0.0,0.0,0.0,0.0,0.0,-5.3813,-5.3813,-5.3813,-5.3813,-5.4,-5.4264,-5.4264,-5.4479,-5.4761,0.0,0.0,0.0,0.0,0.0,0.0,0.0,0.0,0.0,0.0,-2.9005,-2.9005,-2.9005,-2.9005,-2.9005,0.0,0.0,0.0,0.0,0.0,0.0,0.0,0.0,0.0,-2.9005,-2.9005,-2.9702,-3.1109,-3.1916,-3.3041,-3.4435,-3.4651,-3.4724,-3.4692,-3.4096,-3.3802,-3.3807,-3.3807,-3.3807,-3.3807,-3.3807,-3.3815,0.0,0.0,0.0,0.0,-3.4099,-3.4221,0.0,0.0,0.0,0.0,0.0,0.0,0.0,0.0,-3.4743,-3.5028,-3.6245,0.0,-3.7367,-3.8085,-3.8572,-3.9025,0.0,-3.9646,-3.9477,-3.9526,-3.9376,-3.9472,-4.0264,-3.9728,-3.9844,-4.1902,-4.2389,-4.3095,-4.4748,0.0,0.0,0.0,0.0,0.0,0.0,0.0,0.0,0.0,0.0,0.0,0.0,0.0,-5.3813,-5.3813,-5.3813,-5.3813,-5.3813,-5.3813,-5.3813,-5.3813,-5.3813,-5.3813,-5.3813,-5.3813,0.0,0.0,0.0,0.0,-5.3813,-5.3813,-5.3813,-5.3813,-5.3813,-5.3851,-5.3907,-5.3907,-5.4143,-5.4413,0.0,0.0,0.0,0.0,0.0,0.0,0.0,0.0,0.0,0.0,-2.8448,-2.8583,-2.8968,-2.9005,-2.9005,0.0,0.0,0.0,0.0,0.0,0.0,0.0,0.0,-2.9005,-2.9005,-2.9354,-3.0173,-3.1397,-3.2577,-3.3605,-3.4454,-3.4839,-3.4802,-3.4417,-3.399,-3.3807,-3.3807,-3.3807,-3.3807,-3.3807,-3.3807,0.0,0.0,0.0,0.0,0.0,-3.4036,-3.4099,0.0,-3.4086,-3.4179,-3.4314,0.0,0.0,0.0,0.0,-3.4439,-3.4595,-3.4932,-3.5832,-3.6837,-3.7562,-3.8342,-3.8994,-3.9333,-3.9324,-3.9285,-3.9376,-3.9232,-3.93,-3.993,-4.0151,-4.0568,0.0,-4.2965,0.0,0.0,0.0,0.0,0.0,0.0,0.0,0.0,0.0,0.0,0.0,0.0,0.0,0.0,0.0,-5.3813,-5.3813,-5.3813,-5.3813,-5.3813,-5.3813,-5.3813,-5.3813,-5.3813,-5.3813,-5.3813,-5.3813,0.0,0.0,0.0,0.0,-5.3813,-5.3813,-5.3813,-5.3813,-5.3813,-5.3813,-5.3813,-5.3813,-5.3907,-5.4072,0.0,0.0,0.0,0.0,0.0,0.0,0.0,0.0,0.0,0.0,0.0,0.0,0.0,0.0,0.0,0.0,0.0,0.0,0.0,0.0,0.0,0.0,-2.8994,-2.906,-2.9189,-2.9861,-3.065,-3.1568,-3.3183,-3.4045,-3.4192,-3.5004,-3.4876,-3.3972,-3.3844,-3.3807,-3.3807,-3.3807,-3.3807,-3.3807,-3.3807,0.0,0.0,0.0,0.0,0.0,0.0,0.0,0.0,-3.3895,-3.3934,-3.3972,-3.3908,0.0,0.0,0.0,0.0,0.0,-3.4222,-3.5701,-3.7419,-3.7972,-3.8646,-3.92,-3.9331,-3.9205,-3.9129,-3.9298,-3.9197,-3.924,-3.9757,-4.0817,0.0,0.0,0.0,0.0,0.0,0.0,0.0,0.0,0.0,0.0,0.0,0.0,0.0,0.0,0.0,0.0,0.0,0.0,0.0,-5.3813,-5.3813,-5.3813,-5.3813,-5.3813,-5.3813,-5.3813,-5.3813,-5.3813,-5.3813,-5.3813,0.0,0.0,0.0,0.0,-5.3813,-5.3813,-5.3813,-5.3813,-5.3813,-5.3813,-5.3813,-5.3813,-5.3813,-5.3813,0.0,0.0,0.0,0.0,0.0,0.0,0.0,0.0,0.0,0.0,0.0,0.0,0.0,0.0,0.0,0.0,0.0,0.0,0.0,0.0,0.0,-2.8822,-2.8947,-2.9317,-3.0008,-3.0136,-3.0925,-3.2417,-3.4032,-3.5188,-3.5936,-3.6725,-3.6285,-3.4784,-3.41,-3.3807,-3.3807,-3.3807,-3.3807,-3.3807,-3.3807,0.0,0.0,0.0,0.0,0.0,0.0,0.0,0.0,-3.3815,-3.3855,-3.3908,-3.3895,0.0,0.0,0.0,0.0,0.0,-3.4983,-3.638,-3.7497,-3.7002,-3.7506,-3.8319,-3.8989,-3.9073,-3.9021,-3.905,-3.8993,-3.9564,-4.1632,-4.1752,-4.2375,0.0,0.0,0.0,0.0,0.0,0.0,0.0,0.0,0.0,0.0,0.0,0.0,0.0,0.0,0.0,0.0,0.0,0.0,-5.3813,-5.3813,-5.3813,-5.3813,-5.3813,-5.3813,-5.3813,-5.3813,-5.3813,-5.3813,-5.3813,-5.3813,0.0,0.0,-5.3813,-5.3813,-5.3813,-5.3813,-5.3813,-5.3813,-5.3813,-5.3813,-5.3813,-5.3813,-5.3813,0.0,0.0,0.0,0.0,0.0,0.0,0.0,0.0,0.0,0.0,0.0,0.0,0.0,0.0,0.0,0.0,0.0,0.0,0.0,0.0,-2.8856,-2.9272,-2.9071,-2.9318,-3.0125,-3.1029,-3.2082,-3.3256,-3.4908,-3.5917,-3.6303,-3.6193,-3.5514,-3.4325,-3.3972,-3.3807,-3.3807,-3.3807,-3.3807,-3.3807,0.0,0.0,0.0,0.0,0.0,0.0,0.0,0.0,0.0,0.0,-3.3815,-3.386,-3.386,0.0,0.0,0.0,0.0,0.0,-3.4415,-3.573,-3.7026,-3.7123,-3.8455,-3.983,-4.02,-4.0263,-4.0233,-4.0233,-4.0285,-4.0747,0.0,0.0,-4.4378,-4.7194,0.0,0.0,0.0,0.0,0.0,0.0,0.0,0.0,0.0,0.0,0.0,0.0,0.0,0.0,0.0,0.0,0.0,0.0,-5.3813,-5.3813,-5.3813,-5.3813,-5.3813,-5.3813,-5.3813,-5.3813,-5.3813,-5.3813,-5.3813,-5.3813,0.0,-5.3813,-5.3813,-5.3813,-5.3813,-5.3813,-5.3813,-5.3813,-5.3813,-5.3813,-5.3813,-5.3813,0.0,0.0,0.0,0.0,0.0,0.0,0.0,0.0,0.0,0.0,0.0,0.0,0.0,0.0,0.0,0.0,0.0,0.0,0.0,-2.8331,-2.8737,-2.9341,-2.9233,-2.9704,-3.0912,-3.2025,-3.3201,-3.4394,-3.583,-3.6516,-3.6483,-3.5655,-3.483,-3.4037,-3.3853,-3.378,-3.378,-3.3766,-3.3753,-3.3753,0.0,0.0,0.0,0.0,0.0,0.0,0.0,0.0,0.0,0.0,0.0,0.0,0.0,0.0,0.0,-3.3807,-3.3807,-3.3844,-3.4027,-3.5335,-3.6849,-3.7658,-3.9316,-4.0852,-4.1206,-4.1151,-4.1098,-4.1486,-4.1628,0.0,0.0,-4.4432,0.0,-4.8399,0.0,0.0,0.0,0.0,0.0,0.0,0.0,0.0,0.0,0.0,0.0,0.0,0.0,0.0,0.0,0.0,0.0,0.0,-5.3813,-5.3793,-5.3793,-5.3793,-5.3793,-5.3793,-5.3793,-5.3755,-5.3736,-5.3736,-5.3755,-5.3793,-5.3793,-5.3793,-5.3813,-5.3813,-5.3813,-5.3813,-5.3813,-5.3813,-5.3813,-5.3813,-5.3813,-5.3813,0.0,0.0,0.0,0.0,0.0,0.0,0.0,0.0,0.0,0.0,0.0,0.0,0.0,0.0,0.0,0.0,0.0,0.0,0.0,-2.8264,-2.8411,-2.8398,-2.9329,-3.0972,-3.3387,-3.2886,-3.3757,-3.6119,-3.6856,-3.7201,-3.7122,-3.6376,-3.5597,-3.4788,-3.4041,-3.3712,-3.3698,-3.3629,-3.3601,-3.3601,-3.3601,0.0,0.0,0.0,0.0,0.0,0.0,0.0,0.0,0.0,0.0,0.0,0.0,0.0,-3.3807,-3.3807,-3.3807,-3.3972,-3.4711,-3.6138,-3.7603,-3.8429,-3.8847,-3.9464,-4.0963,-4.0661,-4.0522,-4.2016,-4.2279,0.0,0.0,-4.5973,0.0,0.0,0.0,0.0,0.0,0.0,0.0,0.0,0.0,0.0,0.0,0.0,0.0,0.0,0.0,0.0,0.0,0.0,0.0,0.0,0.0,-5.3774,-5.3714,-5.3714,-5.3714,-5.3714,-5.3714,-5.3637,-5.3519,-5.3519,-5.3598,-5.3714,-5.3714,-5.3735,-5.3813,-5.3813,-5.3813,-5.3813,-5.3813,-5.3813,-5.3813,-5.3813,-5.3813,-5.3813,0.0,0.0,0.0,0.0,0.0,0.0,0.0,0.0,0.0,0.0,0.0,-2.3283,-2.314,0.0,0.0,0.0,0.0,0.0,0.0,-2.7496,-2.812,-2.8582,-2.8677,-2.9944,-3.2589,-3.3518,-3.4918,-3.6869,-3.7606,-3.7466,-3.645,-3.617,-3.5327,-3.4081,-3.3775,-3.3647,-3.3647,-3.3619,-3.3605,-3.3605,-3.3605,-3.3605,0.0,0.0,0.0,0.0,0.0,0.0,0.0,0.0,-3.3698,-3.3739,-3.3739,-3.3766,-3.3807,-3.3807,-3.3807,-3.3972,-3.4784,-3.6229,-3.7694,-3.8505,-3.9102,-3.9939,-4.1542,-4.204,-4.2502,-4.3605,-4.4283,0.0,0.0,0.0,0.0,0.0,0.0,0.0,0.0,0.0,0.0,0.0,0.0,0.0,0.0,0.0,0.0,0.0,0.0,0.0,0.0,0.0,0.0,0.0,0.0,-5.3599,-5.3578,-5.3578,-5.3519,-5.3459,-5.3538,-5.3539,-5.3499,-5.3499,-5.3519,-5.3578,-5.3578,-5.3579,-5.3619,-5.3696,-5.3754,-5.3735,-5.3774,-5.3813,-5.3813,-5.3813,-5.3813,-5.3813,0.0,0.0,0.0,0.0,0.0,0.0,0.0,0.0,-2.3259,0.0,0.0,0.0,0.0,-2.2881,0.0,0.0,0.0,0.0,-2.6419,-2.717,-2.7844,-2.8399,-2.8356,-2.9329,-3.1428,-3.328,-3.5072,-3.6814,-3.7874,-3.7533,-3.5936,-3.5967,-3.5238,-3.3945,-3.3672,-3.3708,-3.3927,-3.3643,-3.3534,-3.3534,-3.3534,-3.3534,0.0,0.0,0.0,0.0,0.0,0.0,0.0,0.0,-3.3629,-3.3698,-3.3698,-3.3753,-3.3807,-3.3807,-3.4174,-3.4706,-3.5261,-3.6615,-3.808,-3.8872,-3.9478,-4.0377,-4.2249,-4.291,-4.3571,-4.5131,-4.5974,-4.6654,-4.7463,0.0,0.0,0.0,0.0,0.0,0.0,0.0,0.0,0.0,0.0,0.0,0.0,0.0,0.0,0.0,0.0,0.0,0.0,0.0,0.0,0.0,0.0,0.0,-5.344,-5.344,-5.338,-5.3274,-5.3357,-5.3416,-5.3416,-5.3416,-5.3418,-5.344,-5.344,-5.3461,-5.3519,-5.3598,-5.3636,-5.3656,-5.3735,-5.3774,-5.3774,-5.3793,-5.3813,-5.3813,0.0,0.0,0.0,0.0,0.0,0.0,0.0,0.0,-2.3114,-2.2932,-2.2906,0.0,0.0,0.0,0.0,0.0,0.0,0.0,-2.7178,-2.7465,-2.7602,-2.7602,-2.8558,-2.9467,-3.0262,-3.2072,-3.3978,-3.5994,-3.754,-3.7423,-3.5786,-3.5846,-3.5475,-3.4639,-3.3873,-3.3964,-3.4639,-3.3767,-3.3393,-3.3393,-3.3393,-3.3393,-3.3393,0.0,0.0,0.0,0.0,0.0,0.0,0.0,-3.3629,-3.3698,-3.3698,-3.3739,-3.3807,-3.3807,-3.4981,-3.6285,-3.6303,-3.7477,-3.8909,-3.9698,-3.9918,-4.0561,-4.2947,-4.2892,-4.324,-4.6452,-4.7113,-4.7351,-4.8159,0.0,0.0,0.0,0.0,0.0,0.0,0.0,0.0,0.0,0.0,0.0,0.0,0.0,0.0,0.0,0.0,0.0,0.0,0.0,0.0,0.0,0.0,0.0,-5.33,-5.33,-5.3274,-5.3185,-5.3185,-5.3185,-5.3185,-5.3185,-5.323,-5.33,-5.33,-5.338,-5.3499,-5.3499,-5.3499,-5.3519,-5.3656,-5.3714,-5.3714,-5.3774,-5.3813,-5.3813,0.0,0.0,0.0,0.0,0.0,0.0,0.0,0.0,-2.2838,-2.2829,-2.279,0.0,0.0,0.0,0.0,0.0,0.0,0.0,-2.6385,-2.7034,-2.7392,-2.7392,-2.766,-2.8084,-2.8602,-3.1131,-3.3563,-3.5846,-3.6864,-3.6558,-3.4969,-3.5564,-3.5108,-3.3803,-3.4129,-3.4093,-3.3767,-3.3502,-3.3393,-3.3393,-3.3393,-3.3393,-3.3393,0.0,0.0,0.0,0.0,0.0,0.0,0.0,0.0,0.0,-3.3563,-3.3619,-3.3671,-3.3712,-3.449,-3.5457,-3.6105,-3.7881,-3.9588,-3.9827,-4.1183,-4.278,-4.4048,-4.4158,-4.4745,0.0,-4.7938,-4.8012,-4.8269,0.0,0.0,0.0,0.0,0.0,0.0,0.0,0.0,0.0,0.0,0.0,0.0,0.0,0.0,0.0,0.0,0.0,0.0,0.0,0.0,0.0,0.0,0.0,-5.323,-5.323,-5.3227,-5.3185,-5.3185,-5.3185,-5.3185,-5.3185,-5.3206,-5.323,-5.323,-5.3251,-5.3293,-5.3357,-5.342,-5.3499,-5.3539,-5.3616,-5.3714,-5.3715,-5.3754,-5.3813,0.0,0.0,0.0,0.0,0.0,0.0,-2.2919,-2.2803,-2.2712,-2.2751,-2.2725,-2.2699,0.0,0.0,0.0,-2.4215,-2.4991,0.0,-2.654,-2.7023,-2.7299,-2.7299,-2.7299,-2.7606,-2.8226,-3.0662,-3.2697,-3.4248,-3.5788,-3.5856,-3.4609,-3.5406,-3.5279,-3.4356,-3.4844,-3.4808,-3.4335,-3.4009,-3.3701,-3.3393,-3.3393,-3.3393,-3.3393,0.0,0.0,0.0,0.0,0.0,0.0,0.0,0.0,0.0,-3.3509,-3.3549,-3.3747,-3.4438,-3.5249,-3.6216,-3.7793,-3.9276,-4.0524,-4.1167,-4.2431,-4.3864,-4.5315,0.0,0.0,0.0,-4.8306,-4.8306,-4.8306,0.0,0.0,0.0,0.0,0.0,0.0,0.0,0.0,0.0,0.0,0.0,0.0,0.0,0.0,0.0,0.0,0.0,0.0,0.0,0.0,0.0,0.0,0.0,-5.2729,-5.3041,-5.3185,-5.3185,-5.3185,-5.3185,-5.3185,-5.3185,-5.3185,-5.3185,-5.3185,-5.3185,-5.3206,-5.3233,-5.3295,-5.3378,-5.3418,-5.3479,-5.3558,-5.3598,-5.3657,-5.3697,0.0,0.0,-2.2699,-2.2699,0.0,0.0,-2.2699,-2.2699,-2.2699,-2.2699,-2.2699,-2.2733,0.0,0.0,0.0,-2.5023,-2.5697,-2.6437,-2.7263,-2.7299,-2.7299,-2.7299,-2.733,-2.7766,-2.866,-3.0455,-3.1504,-3.1751,-3.4408,-3.5279,-3.4516,-3.5388,-3.575,-3.5695,-3.5768,-3.575,-3.5641,-3.4826,-3.4081,-3.3393,-3.3393,-3.3393,-3.3393,-3.3393,0.0,0.0,0.0,0.0,0.0,0.0,0.0,0.0,-3.3568,-3.3629,-3.4006,-3.5612,-3.6753,-3.7992,-4.0253,-4.104,-4.157,-4.302,-4.357,0.0,-4.6672,-4.7773,-4.8306,-4.8306,0.0,-4.8306,0.0,0.0,0.0,0.0,0.0,0.0,0.0,0.0,0.0,0.0,0.0,0.0,0.0,0.0,0.0,0.0,0.0,0.0,0.0,0.0,0.0,0.0,0.0,0.0,-5.1995,-5.2803,-5.3185,0.0,-5.3185,-5.3185,-5.3185,-5.3185,-5.3185,-5.3185,-5.3185,-5.3185,-5.3185,-5.3185,-5.3185,-5.3206,-5.3274,-5.3279,-5.33,-5.344,-5.3499,-5.3499,0.0,0.0,-2.2699,-2.2699,0.0,0.0,-2.2699,-2.2699,-2.2699,-2.2699,-2.2699,-2.2923,-2.3509,-2.3698,0.0,-2.5732,-2.6008,-2.6437,-2.7263,-2.7299,-2.7299,-2.7299,-2.7452,-2.7644,-2.7844,-2.9631,-3.0581,-3.0643,-3.3468,-3.4461,-3.3701,-3.5116,-3.546,-3.4881,-3.5514,-3.5442,-3.4808,-3.4009,-3.3556,-3.3393,-3.3393,-3.3393,-3.3393,-3.3393,-3.3393,0.0,0.0,0.0,0.0,0.0,0.0,0.0,-3.4151,-3.4365,-3.4594,-3.5633,-3.7002,-3.8319,-3.8894,-4.0531,-4.2139,-4.247,-4.3975,-4.5847,-4.7645,-4.8196,-4.8306,-4.8306,-4.8306,0.0,0.0,0.0,0.0,0.0,0.0,0.0,0.0,0.0,0.0,0.0,0.0,0.0,0.0,0.0,0.0,0.0,0.0,0.0,0.0,0.0,0.0,0.0,0.0,-5.1995,-5.1995,-5.2803,-5.3185,0.0,-5.3185,-5.3185,-5.3185,-5.3185,-5.3185,-5.3185,-5.3185,-5.3185,-5.3185,-5.3185,-5.3185,-5.3206,-5.3227,-5.3254,-5.33,-5.3339,-5.34,-5.3499,0.0,0.0,0.0,0.0,0.0,0.0,0.0,0.0,-2.2699,-2.2699,-2.3009,-2.3371,-2.3767,-2.4456,0.0,0.0,-2.6454,-2.6851,-2.7264,-2.7299,-2.7299,-2.7299,-2.7407,-2.7625,-2.799,-2.9374,-3.0353,-3.0869,-3.2862,-3.3625,-3.3247,-3.4581,-3.4989,-3.4643,-3.5442,-3.5351,-3.4555,-3.4154,-3.3755,-3.3393,-3.3393,-3.3393,-3.3393,-3.3393,-3.3393,-3.3393,-3.3393,0.0,0.0,0.0,0.0,0.0,0.0,0.0,-3.5419,-3.6676,-3.7394,-3.8148,-3.9829,-4.0974,-4.2052,-4.3627,0.0,-4.6324,-4.7939,-4.8306,-4.8306,-4.8306,0.0,0.0,0.0,0.0,0.0,0.0,0.0,0.0,0.0,0.0,0.0,0.0,0.0,0.0,0.0,0.0,0.0,0.0,0.0,0.0,0.0,0.0,0.0,0.0,-5.0216,-5.1022,-5.1426,-5.2215,-5.2821,-5.3185,-5.3185,-5.3185,-5.3185,-5.3185,-5.3185,-5.3185,-5.3185,-5.3185,-5.3185,-5.3185,-5.3185,-5.3185,-5.3185,-5.3209,-5.3254,-5.3254,-5.3314,-5.3355,0.0,0.0,0.0,0.0,0.0,0.0,0.0,0.0,0.0,-2.2888,-2.3543,-2.406,-2.4181,-2.5335,-2.6146,0.0,0.0,0.0,-2.7299,-2.7299,-2.7299,-2.7299,-2.742,-2.7782,-2.8385,-2.9481,-3.0478,-3.1359,-3.2362,-3.2952,-3.316,-3.4143,-3.4606,-3.4643,-3.5297,-3.5206,-3.4591,-3.4461,-3.4009,-3.3393,-3.3393,-3.3393,-3.3393,-3.3393,-3.3393,-3.3393,-3.3393,-3.3502,-3.3719,-3.4389,0.0,0.0,0.0,0.0,-3.6306,-3.7855,-3.7907,-3.8138,-4.0967,-4.1492,-4.1965,-4.5113,-4.5902,0.0,-4.7939,-4.8306,-4.8306,0.0,0.0,0.0,0.0,0.0,0.0,0.0,0.0,0.0,0.0,0.0,0.0,0.0,0.0,0.0,0.0,0.0,0.0,0.0,0.0,0.0,0.0,0.0,-4.8306,-4.8306,-4.9132,-4.9922,-5.0582,-5.1518,-5.2325,-5.3004,-5.3133,-5.3185,-5.3185,-5.3185,-5.3185,-5.3185,-5.3185,-5.3185,-5.3185,-5.3185,-5.3185,-5.3185,-5.3185,-5.3185,-5.3185,-5.3185,-5.3185,-5.3185,0.0,0.0,0.0,0.0,0.0,0.0,0.0,0.0,0.0,0.0,-2.4353,-2.5092,-2.5715,-2.5973,-2.6385,-2.7075,-2.723,-2.7299,-2.7299,0.0,0.0,-2.7299,-2.7902,-2.8299,-2.8403,-2.9851,-3.0664,-3.0803,-3.1795,-3.279,-3.37,-3.4317,-3.4606,-3.4606,-3.47,-3.4715,-3.4552,-3.3864,-3.3502,-3.3393,-3.3393,-3.3393,-3.3393,-3.3393,-3.3393,-3.3393,-3.3393,-3.3846,-3.4461,-3.457,-3.5062,0.0,0.0,0.0,-3.7013,-3.7954,-3.8657,-3.9269,-3.9739,-4.0915,-4.266,0.0,-4.5902,-4.6324,0.0,0.0,-4.8306,0.0,0.0,0.0,0.0,0.0,0.0,0.0,0.0,0.0,0.0,0.0,0.0,0.0,0.0,0.0,0.0,0.0,0.0,0.0,0.0,0.0,0.0,-4.8306,-4.8306,-4.8306,-4.9132,-4.9647,-4.9757,-5.1263,-5.205,-5.216,-5.2876,-5.3185,-5.3185,-5.3185,-5.3185,-5.3185,-5.3185,-5.3185,-5.3185,-5.3185,-5.3185,-5.3185,-5.3185,-5.3185,-5.3185,-5.3185,-5.3185,-5.3185,0.0,0.0,0.0,0.0,0.0,0.0,0.0,0.0,0.0,0.0,0.0,-2.5747,-2.6059,-2.6506,-2.6902,-2.728,-2.7299,-2.7299,-2.7299,-2.7299,-2.7471,-2.7902,-2.823,-2.8799,-2.9661,-3.0351,-3.0975,-3.1533,-3.2126,-3.2962,-3.4027,-3.4418,-3.4606,-3.4606,-3.4606,-3.4353,-3.39,-3.3556,-3.3393,-3.3393,-3.3393,-3.3966,-3.47,-3.3752,-3.3984,-3.4682,-3.3734,-3.3918,-3.4663,-3.5116,-3.582,-3.6598,-3.743,0.0,0.0,0.0,-3.7807,-3.8401,-3.9829,-4.1204,-4.2806,0.0,-4.5902,-4.6324,-4.7939,0.0,0.0,0.0,0.0,0.0,0.0,0.0,0.0,0.0,0.0,0.0,0.0,0.0,0.0,0.0,0.0,0.0,0.0,0.0,0.0,0.0,0.0,0.0,-4.8306,-4.8306,-4.8306,-4.8306,-4.8673,0.0,-4.961,-5.0308,-5.1116,-5.1995,-5.2821,-5.3185,-5.3185,-5.3185,-5.3185,-5.3185,-5.3185,-5.3185,-5.3185,-5.3185,-5.3185,-5.3185,-5.3185,-5.3185,-5.3185,-5.3185,-5.3185,-5.3185,0.0,0.0,0.0,0.0,0.0,0.0,0.0,0.0,0.0,0.0,0.0,-2.6402,-2.6402,0.0,0.0,0.0,-2.7299,-2.7299,-2.7299,-2.7471,-2.7833,-2.8385,-2.8782,-2.9523,-3.0662,-3.0869,-3.1339,-3.209,-3.237,-3.3118,-3.4278,-3.4643,-3.4911,-3.5058,-3.4739,-3.428,-3.3701,-3.3502,-3.3647,-3.4009,-3.4039,-3.49,-3.609,-3.506,-3.5439,-3.6339,-3.4867,-3.4854,-3.5597,-3.5983,-3.6635,-3.7412,-3.8009,-3.7647,0.0,0.0,0.0,-3.7209,-3.9536,0.0,-4.1859,-4.46,-4.5407,-4.6012,0.0,0.0,0.0,0.0,0.0,0.0,0.0,0.0,0.0,0.0,0.0,0.0,0.0,0.0,0.0,0.0,0.0,0.0,0.0,0.0,0.0,0.0,0.0,0.0,-4.8287,-4.8191,-4.8132,-4.8132,-4.8132,-4.8425,-4.9085,-4.9625,-5.06,-5.1995,-5.2821,-5.3185,-5.3185,-5.3185,-5.3185,-5.3185,-5.3185,-5.3185,-5.3185,-5.3185,-5.3185,-5.3185,-5.3185,-5.3185,-5.3185,-5.3185,-5.3185,-5.3185,0.0,0.0,0.0,0.0,0.0,0.0,0.0,0.0,0.0,0.0,0.0,-2.723,-2.723,-2.7264,-2.7299,-2.7299,-2.7299,-2.7299,-2.7299,-2.7954,-2.8368,-2.8403,-2.9799,0.0,-3.0714,-3.1386,-3.1784,-3.1818,-3.209,-3.3001,-3.4492,-3.5064,-3.5731,-3.6341,-3.5133,-3.4588,-3.4498,-3.3719,-3.428,-3.5693,-3.5732,-3.6272,-3.7124,-3.7858,-3.8182,-3.8164,-3.723,-3.7417,-3.7996,-3.7209,-3.7466,-3.8154,-3.8191,-3.7647,-3.6995,0.0,0.0,0.0,0.0,-3.8483,0.0,-4.27,-4.4089,0.0,0.0,0.0,0.0,0.0,0.0,0.0,0.0,0.0,0.0,0.0,0.0,0.0,0.0,0.0,0.0,0.0,0.0,0.0,0.0,0.0,0.0,0.0,0.0,0.0,-4.8287,-4.7877,-4.7632,-4.7632,-4.7632,-4.765,-4.7705,-4.972,-5.1151,-5.1995,-5.2821,-5.3185,-5.3185,-5.3185,-5.3185,-5.3185,-5.3185,-5.3185,-5.3185,-5.3185,-5.3185,-5.3185,-5.3185,-5.3185,-5.3185,-5.3185,-5.3185,-5.3185,0.0,0.0,0.0,0.0,0.0,0.0,0.0,0.0,0.0,0.0,0.0,0.0,0.0,-2.7299,-2.7299,-2.7299,-2.7299,-2.7489,-2.7971,-2.8247,-2.8834,-2.9834,-3.0403,-3.0903,-3.1386,-3.1662,-3.18,-3.18,-3.2073,-3.2827,-3.4058,-3.4454,-3.5133,-3.6037,-3.5573,-3.508,-3.4588,-3.4298,-3.4516,-3.5131,-3.6222,-3.7483,-3.8605,-3.7863,-3.8601,-3.9812,0.0,0.0,-3.8251,-3.7927,-3.8005,-3.8118,-3.7593,-3.687,-3.6127,-3.5602,-3.562,-3.6053,0.0,0.0,0.0,-4.1352,-4.3212,-4.4894,0.0,0.0,0.0,0.0,0.0,0.0,0.0,0.0,0.0,0.0,0.0,0.0,0.0,0.0,0.0,0.0,0.0,0.0,0.0,0.0,0.0,0.0,0.0,0.0,-4.7417,-4.7527,-4.7464,-4.716,-4.7138,-4.7138,-4.7138,-4.9065,-5.0259,-5.0736,-5.1888,-5.2711,-5.3185,-5.3185,-5.3185,-5.3185,-5.3185,-5.3185,-5.3185,-5.3185,-5.3185,-5.3185,-5.3185,-5.3185,-5.3185,-5.3185,-5.3185,-5.3185,0.0,0.0,0.0,-2.5367,0.0,-2.6506,-2.6506,-2.6954,-2.7299,-2.7299,0.0,0.0,0.0,0.0,-2.7385,-2.7644,-2.7661,-2.7971,-2.873,-2.9023,-2.9627,-3.0662,-3.0938,-3.13,-3.1783,-3.1558,-3.1541,-3.18,-3.1812,-3.2459,-3.3653,-3.4295,-3.497,-3.564,-3.6025,-3.591,-3.5385,-3.5131,-3.5313,-3.5944,-3.736,-3.8589,-3.9515,-3.9004,-3.9692,0.0,0.0,0.0,0.0,0.0,0.0,0.0,-3.8096,-3.6902,0.0,0.0,0.0,0.0,-3.6427,0.0,0.0,0.0,-4.1882,-4.367,0.0,0.0,0.0,0.0,0.0,0.0,0.0,0.0,0.0,0.0,0.0,0.0,0.0,0.0,0.0,0.0,0.0,0.0,0.0,0.0,0.0,0.0,0.0,0.0,-4.6908,-4.7049,-4.6981,-4.6678,-4.6672,-4.6747,-4.6908,-4.8359,-4.9201,-4.9365,-5.0798,-5.1854,-5.2532,-5.2806,-5.3039,-5.3185,-5.3185,-5.3185,-5.3185,-5.3185,-5.3185,-5.3185,-5.3185,-5.3185,-5.3185,-5.3185,-5.3185,-5.3185,-2.5074,-2.5643,-2.6128,-2.6128,-2.6782,-2.7299,-2.7299,-2.7299,-2.7299,-2.7299,0.0,0.0,0.0,0.0,0.0,-2.8368,-2.8437,-2.8747,-2.9489,-3.0265,-3.0696,-3.0713,-3.142,-3.18,-3.18,-3.1093,-3.1076,-3.18,-3.1342,-3.1847,-3.3297,-3.4673,-3.5285,-3.5321,-3.6448,-3.6977,-3.6941,-3.6164,-3.6743,-3.8262,-3.9226,-3.9607,-3.9775,-4.1567,0.0,0.0,-4.0933,-4.0879,0.0,-4.0898,0.0,0.0,0.0,0.0,0.0,0.0,0.0,0.0,0.0,0.0,0.0,0.0,0.0,0.0,-4.3907,0.0,0.0,0.0,0.0,0.0,0.0,0.0,0.0,0.0,0.0,0.0,0.0,0.0,0.0,0.0,0.0,0.0,0.0,0.0,0.0,0.0,0.0,-4.6387,-4.684,-4.6435,-4.6186,-4.6186,-4.6186,-4.6411,-4.6863,-4.7658,-4.8056,-4.8109,-4.9609,-5.0641,-5.1194,-5.2009,-5.2658,-5.3185,-5.3185,-5.3185,-5.3185,-5.3185,-5.3185,-5.3185,-5.3185,-5.3185,-5.3185,-5.3185,-5.3185,-5.3185,-2.6661,-2.6833,-2.6971,-2.6971,-2.7144,-2.7299,-2.7299,-2.7299,-2.7299,0.0,0.0,0.0,-2.7299,-2.7782,-2.8385,-2.9127,-2.9196,-2.9523,-3.0317,-3.0575,-3.0938,-3.1472,-3.1679,-3.18,-3.18,-3.1593,-3.1593,-3.18,-3.1667,-3.1915,-3.2511,-3.3086,-3.3779,-3.4549,-3.5654,-3.6453,-3.6995,-3.6759,-3.6922,-3.7519,-3.9609,-4.0808,0.0,0.0,0.0,0.0,0.0,-4.3122,-4.2648,0.0,-4.1866,-3.9546,0.0,0.0,-3.5713,0.0,0.0,0.0,-3.5894,0.0,0.0,0.0,0.0,0.0,-4.1612,-4.3853,0.0,0.0,0.0,0.0,0.0,0.0,0.0,0.0,0.0,0.0,0.0,0.0,0.0,0.0,0.0,0.0,0.0,0.0,0.0,0.0,-4.598,-4.6087,-4.5811,-4.5675,-4.5615,-4.5615,-4.6005,-4.6087,-4.5811,-4.6773,-4.7352,-4.7601,-4.8372,-4.9395,-5.0629,-5.1256,-5.1937,-5.2631,-5.3039,-5.3185,-5.3185,-5.3185,-5.3185,-5.3185,-5.3185,-5.3185,-5.3185,-5.3185,-5.3185,-5.3185,-2.7299,-2.7299,-2.7299,-2.7299,-2.754,-2.7661,-2.7351,-2.7558,-2.7644,0.0,0.0,0.0,-2.773,-2.8713,-2.9523,-2.9955,-3.0006,-3.0334,-3.1093,-3.1145,-3.1334,-3.1783,-3.18,-3.18,-3.18,-3.1489,-3.1489,-3.18,-3.1489,-3.1689,-3.2387,-3.2875,-3.3305,-3.3759,-3.5167,-3.5909,-3.6175,-3.6752,-3.7194,-3.7718,-4.0264,0.0,0.0,-4.3286,-4.429,0.0,0.0,0.0,-4.3925,-4.4839,-4.3068,0.0,0.0,0.0,0.0,0.0,0.0,-3.6904,-3.6435,-3.7232,0.0,0.0,0.0,0.0,-4.1413,-4.3269,-4.5132,0.0,0.0,0.0,0.0,0.0,0.0,0.0,0.0,0.0,0.0,0.0,0.0,0.0,0.0,0.0,0.0,0.0,0.0,0.0,-4.5675,-4.5727,-4.5423,-4.5397,-4.5397,-4.5397,-4.5701,-4.5718,-4.5397,-4.597,-4.6372,-4.6585,-4.7169,-4.8219,-4.9628,-5.0245,-5.1239,-5.2408,-5.2739,-5.2995,-5.3185,-5.3185,-5.3185,-5.3185,-5.3185,-5.3185,-5.3185,-5.3185,-5.3185,-5.3185,0.0,-2.7299,-2.7332,-2.7402,-2.7954,-2.8213,-2.7627,-2.8023,-2.8196,0.0,-2.754,-2.7833,-2.8575,-2.9868,-3.0713,-3.0835,-3.0817,-3.1093,-3.1765,-3.18,-3.18,-3.18,-3.18,-3.18,-3.18,-3.1231,-3.1231,-3.18,-3.1231,-3.1481,-3.254,-3.3263,-3.3379,-3.2983,-3.4781,-3.5352,-3.5031,-3.6386,-3.754,-3.8696,-4.0939,-4.1503,0.0,0.0,-4.4364,-4.3944,-4.473,-4.4949,-4.4967,-4.5535,-4.4254,0.0,0.0,0.0,0.0,0.0,-3.6904,-3.7519,-3.7412,-3.7919,-3.8444,0.0,0.0,0.0,-4.2012,-4.285,-4.3889,0.0,0.0,0.0,0.0,0.0,0.0,0.0,0.0,0.0,0.0,0.0,0.0,0.0,0.0,0.0,0.0,0.0,-4.5905,-4.545,-4.5397,-4.5397,-4.5397,-4.5397,-4.5397,-4.5397,-4.5397,-4.5397,-4.5397,-4.5397,-4.5397,-4.5414,-4.6104,-4.7141,-4.8443,-4.9144,-5.0487,-5.2244,-5.2291,-5.2586,-5.3039,-5.31,-5.3143,-5.3185,-5.3185,-5.3185,-5.3185,-5.3185,-5.3185,-5.3185,-2.7299,-2.7299,-2.7489,-2.8075,-2.8299,-2.8558,-2.9006,-2.8696,-2.8558,-2.9006,-2.9075,-2.9368,-3.0162,-3.0506,-3.0938,-3.1524,-3.1576,-3.1645,-3.1783,-3.18,-3.18,-3.18,-3.18,-3.18,-3.18,-3.2231,-3.2248,-3.18,-3.2248,-3.2287,-3.1965,-3.2354,-3.2459,-3.2422,-3.363,-3.4599,-3.536,-3.6285,0.0,-4.0252,-4.0741,0.0,-4.2904,-4.4839,-4.6304,-4.735,-4.7516,-4.7129,-4.634,-4.5113,-4.4857,-4.4675,0.0,0.0,0.0,-4.0056,0.0,0.0,0.0,0.0,0.0,0.0,0.0,0.0,-3.9311,-4.0724,-4.2159,0.0,0.0,0.0,0.0,0.0,0.0,0.0,0.0,0.0,0.0,0.0,0.0,0.0,0.0,0.0,0.0,0.0,-4.5511,-4.5397,-4.5397,-4.5397,-4.5397,-4.5397,-4.5397,-4.5397,-4.5397,-4.5397,-4.5397,-4.5397,-4.5397,-4.5397,-4.5552,-4.6426,-4.7892,-4.8461,-4.96,-5.1131,-5.1569,-5.1817,-5.1939,-5.2384,-5.2806,-5.3185,-5.3185,-5.3185,-5.3185,-5.3185,-5.3185,-5.3185,-2.7299,-2.7299,-2.7523,-2.8265,-2.8696,-2.9075,-2.9455,-2.9523,-2.9679,-3.0041,-3.1093,-3.1783,-3.18,-3.2145,-3.2369,-3.2352,-3.2007,-3.18,-3.18,-3.18,-3.18,-3.18,-3.2145,-3.2352,-3.2352,-3.2714,-3.2714,-3.2352,-3.2352,-3.2236,-3.2001,-3.2126,-3.2616,-3.3385,-3.3808,-3.4781,-3.613,-3.6591,-3.7732,-3.9372,-4.1233,0.0,-4.4656,-4.613,-4.7223,-4.7917,-4.7692,-4.7313,-4.684,-4.6206,-4.5428,0.0,0.0,-4.3251,-4.225,0.0,-4.0799,-4.107,0.0,0.0,0.0,-3.9948,0.0,0.0,0.0,-4.0688,-4.1541,0.0,0.0,0.0,0.0,0.0,0.0,0.0,0.0,0.0,0.0,0.0,0.0,0.0,0.0,0.0,0.0,0.0,-4.5397,-4.5397,-4.5397,-4.5397,-4.5397,-4.5397,-4.5397,-4.5397,-4.5397,-4.5397,-4.5397,-4.5397,-4.5397,-4.5397,-4.5397,-4.6207,-4.7717,-4.7983,-4.9098,-5.0803,-5.1079,-5.1365,-5.1601,-5.1891,-5.2155,-5.2472,-5.2995,-5.3185,-5.3185,-5.3185,-5.3185,-5.3185,-2.7299,-2.7402,-2.7696,-2.8299,-2.9006,-2.9558,-2.9713,-3.0144,-3.0575,-3.0869,-3.2785,-3.3904,-3.3404,-3.3921,-3.4111,-3.3593,-3.3007,-3.261,-3.2455,-3.2317,-3.23,-3.2438,-3.261,-3.2835,-3.3128,-3.299,-3.2835,-3.2697,-3.2231,-3.2067,-3.2126,-3.2126,-3.2894,-3.4294,-3.4358,-3.5314,-3.688,-3.7095,0.0,-3.901,0.0,-4.3761,-4.4967,-4.6329,-4.6951,-4.709,-4.6941,-4.6908,-4.6918,-4.7155,-4.5864,-4.4327,-4.5084,-4.4142,0.0,0.0,0.0,0.0,0.0,0.0,0.0,0.0,0.0,-3.9914,0.0,0.0,0.0,0.0,0.0,0.0,0.0,0.0,0.0,0.0,0.0,0.0,0.0,0.0,0.0,0.0,0.0,0.0,0.0,0.0,-4.5113,-4.538,-4.5147,-4.5113,-4.538,-4.5397,-4.5397,-4.5397,-4.5397,-4.5397,-4.5397,-4.5397,-4.5397,-4.5397,-4.5397,-4.6207,-4.7689,-4.7689,-4.8778,-5.063,-5.063,-5.0884,-5.1314,-5.1398,-5.1442,-5.1551,-5.2631,-5.3039,-5.3039,-5.3039,-5.3103,-5.3185,-2.7299,-2.7833,-2.8299,-2.8385,-2.9006,-2.9748,-3.0437,-3.0041,-3.0127,-3.1489,-3.3095,-3.43,-3.4869,-3.5007,-3.5301,-3.587,-3.5835,0.0,-3.4852,0.0,-3.413,-3.4783,-3.2955,-3.2559,-3.3921,-3.3266,-3.2576,-3.1921,-3.2507,-3.2457,-3.1855,-3.1855,-3.2453,-3.3561,-3.4608,-3.5863,-3.7185,0.0,-3.9635,0.0,-4.2335,-4.1855,0.0,-4.3395,-4.4651,-4.5524,-4.6543,-4.6908,-4.6801,0.0,-4.5961,-4.5714,0.0,-4.4614,-4.5328,0.0,0.0,0.0,0.0,0.0,0.0,0.0,-4.0179,0.0,0.0,0.0,0.0,0.0,0.0,0.0,0.0,0.0,0.0,0.0,0.0,0.0,0.0,0.0,0.0,0.0,0.0,0.0,0.0,0.0,0.0,-4.5294,-4.4241,-4.4076,-4.5328,-4.5397,-4.5397,-4.5397,-4.5397,-4.5397,-4.5397,-4.5397,-4.5397,-4.5397,-4.5397,-4.6207,-4.7689,-4.7689,-4.8573,-5.008,-5.008,-5.0138,-5.0206,-5.0684,-5.0884,-5.0991,-5.206,-5.2495,-5.2495,-5.2495,-5.2783,-5.3143,-2.7385,-2.754,-2.8023,-2.8885,-2.9299,-2.992,-3.1145,-3.18,-3.2559,-3.3628,-3.4697,-3.5663,-3.646,0.0,0.0,0.0,0.0,-3.599,0.0,0.0,-3.47,-3.4579,-3.4059,-3.3889,-3.4113,-3.3785,-3.3214,-3.2438,-3.2317,-3.2093,-3.18,-3.2231,-3.3152,-3.4499,-3.6067,0.0,-3.9006,0.0,-4.0514,0.0,0.0,0.0,0.0,-4.3823,-4.5187,-4.5339,-4.5842,-4.602,-4.6035,0.0,-4.5457,0.0,0.0,0.0,0.0,0.0,0.0,0.0,0.0,0.0,0.0,0.0,0.0,0.0,-3.828,0.0,-3.7619,0.0,0.0,0.0,0.0,0.0,0.0,0.0,0.0,0.0,0.0,0.0,0.0,0.0,0.0,0.0,0.0,0.0,0.0,0.0,0.0,-4.4777,-4.5363,-4.5397,-4.5397,-4.5397,-4.5397,-4.5397,-4.5397,-4.5397,-4.5397,-4.5397,-4.5397,-4.6207,-4.7689,-4.7689,-4.8545,-5.0011,-5.0011,-5.0011,-5.004,-5.0235,-5.0331,-5.0397,-5.1184,-5.1651,-5.1939,-5.1939,-5.2084,-5.2273,-2.8006,-2.8075,-2.8489,-2.9351,-2.9679,-3.0265,-3.1593,-3.3112,-3.4372,-3.5094,0.0,0.0,-3.7719,-3.7456,0.0,0.0,-3.7887,-3.7232,0.0,0.0,-3.5766,0.0,0.0,0.0,-3.5028,-3.4217,-3.3593,-3.3231,-3.2472,-3.2214,-3.2438,-3.2972,-3.398,-3.5428,-3.7269,-3.8889,-4.028,0.0,-4.1459,-4.0898,-4.181,-4.1758,-4.1437,-4.4383,-4.5438,-4.5397,-4.5397,-4.5397,-4.5441,-4.561,-4.4939,0.0,-4.5476,0.0,0.0,0.0,0.0,0.0,-4.1218,0.0,0.0,0.0,0.0,0.0,0.0,0.0,0.0,0.0,0.0,0.0,0.0,0.0,0.0,0.0,0.0,0.0,0.0,0.0,0.0,0.0,0.0,0.0,0.0,0.0,0.0,0.0,-4.4829,0.0,-4.538,-4.5397,-4.5397,-4.5397,-4.5397,-4.5397,-4.5397,-4.5397,-4.5397,-4.5397,-4.5397,-4.6207,-4.7689,-4.7689,-4.8545,-5.0011,-5.0011,-5.0011,-5.0011,-5.0011,-5.0011,-5.0022,-5.0443,-5.0803,-5.1184,-5.1339,-5.1475,-5.1669,-2.9437,-3.0058,-3.0351,-2.9627,-3.0144,-3.0903,-3.1679,-3.3112,-3.4372,0.0,0.0,0.0,0.0,0.0,0.0,0.0,0.0,-4.0411,-3.9612,0.0,-3.8065,0.0,0.0,-3.5166,0.0,-3.4473,-3.33,-3.4061,-3.3266,-3.3266,-3.4027,-3.4061,-3.4653,-3.5762,-3.7715,-3.9193,-4.0271,-4.1486,-4.2834,-4.4078,-4.3421,-4.3991,-4.5113,0.0,-4.4408,-4.5397,-4.5397,0.0,0.0,-4.4587,-4.453,0.0,0.0,0.0,0.0,0.0,0.0,0.0,0.0,0.0,0.0,-3.9226,0.0,0.0,0.0,0.0,-3.6886,0.0,0.0,0.0,0.0,0.0,0.0,-3.4697,0.0,0.0,0.0,0.0,0.0,0.0,0.0,0.0,0.0,0.0,0.0,0.0,-4.3341,0.0,-4.5311,-4.5397,-4.5397,-4.5397,-4.5397,-4.5397,-4.5397,-4.5397,-4.5397,-4.5397,-4.5397,-4.6207,-4.7689,-4.7689,-4.8545,-5.0011,-5.0011,-5.0011,-5.0011,-5.0011,-5.0011,-5.0011,-5.004,-5.004,-5.0092,-5.063,-5.1158,-5.1601,-3.0282,-3.0903,-3.1179,-3.042,-3.0506,-3.1282,-3.3041,-3.3749,0.0,0.0,0.0,0.0,0.0,-4.0359,-4.1015,0.0,0.0,-4.2085,-4.1267,-4.0308,0.0,0.0,0.0,-3.7219,0.0,0.0,0.0,-3.4113,-3.3837,-3.3818,-3.4113,-3.4614,-3.5016,-3.55,-3.8143,-3.9836,0.0,0.0,0.0,0.0,0.0,-4.3793,-4.4691,0.0,0.0,-4.5397,-4.5397,-4.5397,0.0,-4.5104,-4.4785,-4.4481,-4.463,-4.4249,-4.3796,-4.4046,-4.3842,0.0,0.0,0.0,-4.2857,-4.0681,0.0,0.0,0.0,0.0,0.0,0.0,0.0,0.0,0.0,0.0,0.0,-3.5261,0.0,0.0,0.0,0.0,0.0,0.0,0.0,0.0,0.0,0.0,0.0,-4.3155,-4.4147,-4.4898,0.0,-4.5397,-4.5397,-4.5397,-4.5397,-4.5397,-4.5397,-4.5397,-4.5397,-4.5397,-4.5397,-4.6207,-4.7689,-4.7689,-4.8545,-5.0011,-5.0011,-5.0011,-5.0011,-5.0011,-5.0011,-5.0011,-5.0011,-5.0011,-5.0022,-5.0206,-5.0387,-5.063,-3.1127,-3.1679,-3.1955,-3.1214,-3.13,0.0,0.0,0.0,0.0,0.0,-3.822,0.0,-4.0739,0.0,-4.212,0.0,-4.3189,-4.2861,-4.2043,-4.1567,0.0,-4.1291,-4.0101,0.0,0.0,0.0,0.0,0.0,0.0,-3.4869,-3.4887,-3.537,-3.5576,-3.5697,0.0,-3.9888,-4.1032,-4.3051,-4.3949,0.0,0.0,-4.4268,0.0,0.0,-4.5225,-4.5044,0.0,-4.5397,-4.5397,-4.5397,-4.5096,-4.4768,-4.5242,-4.4751,-4.4061,-4.4544,-4.4337,-4.3923,-4.3655,-4.3846,0.0,0.0,-4.1116,0.0,-3.814,0.0,0.0,0.0,0.0,0.0,0.0,0.0,0.0,-3.6326,-3.5955,0.0,0.0,-3.5667,0.0,0.0,0.0,0.0,0.0,0.0,-4.174,-4.3103,-4.382,-4.4535,0.0,0.0,-4.5397,-4.5397,-4.5397,-4.5397,-4.5397,-4.5397,-4.5397,-4.5397,-4.5397,-4.6207,-4.7689,-4.7689,-4.8545,-5.0011,-5.0011,-5.0011,-5.0011,-5.0011,-5.0011,-5.0011,-5.0011,-5.0011,-5.0011,-5.0011,-5.0138,-5.0387,-3.199,-3.2455,-3.2748,0.0,-3.2524,0.0,0.0,0.0,-3.6611,0.0,-3.9531,-4.0946,-4.1067,-4.2378,-4.3276,-4.331,-4.331,-4.2982,-4.2216,-4.2137,0.0,0.0,-4.1429,-4.1343,-4.205,0.0,0.0,0.0,0.0,0.0,-3.6353,-3.6318,-3.6301,-3.637,-3.7905,0.0,-4.0998,-4.2551,-4.4044,-4.5397,-4.5397,-4.538,-4.5345,-4.538,0.0,-4.4397,-4.5147,-4.5397,-4.5397,-4.5397,-4.5397,-4.5397,-4.5397,-4.5397,-4.5397,-4.5397,-4.5397,-4.5242,-4.4527,-4.426,-4.3795,-4.2293,0.0,0.0,0.0,0.0,-3.9081,0.0,0.0,0.0,0.0,0.0,0.0,0.0,0.0,0.0,0.0,0.0,0.0,0.0,0.0,0.0,0.0,-3.789,-3.9146,-4.281,-4.2447,-4.3044,0.0,0.0,0.0,-4.5397,-4.5397,-4.5397,-4.5397,-4.5397,-4.5397,-4.5397,-4.5397,-4.6207,-4.7689,-4.7689,-4.8545,-5.0011,-5.0011,-5.0011,-5.0011,-5.0011,-5.0011,-5.0011,-5.0011,-5.0011,-5.0011,-5.0011,-5.0331,-5.0749,-3.2662,-3.3248,-3.3904,0.0,-3.4024,-3.4111,0.0,0.0,0.0,0.0,-4.017,-4.155,-4.3241,-4.3776,-4.4259,-4.4803,-4.4854,0.0,0.0,0.0,0.0,-4.4484,-4.331,-4.2706,-4.2896,-4.1205,0.0,-3.9422,0.0,0.0,-3.7185,-3.6577,-3.6301,-3.637,0.0,-3.9462,-4.0998,-4.2551,-4.4044,-4.5397,-4.5397,-4.5079,0.0,0.0,-4.4941,-4.4397,-4.5147,-4.5397,-4.5397,-4.5397,-4.5397,-4.5397,-4.5397,-4.5397,-4.5397,-4.5397,-4.5397,-4.5363,-4.5156,-4.5008,-4.4705,-4.3761,-4.2963,-4.2117,0.0,0.0,0.0,0.0,0.0,0.0,0.0,0.0,0.0,0.0,0.0,0.0,0.0,0.0,0.0,0.0,0.0,0.0,0.0,-3.858,-4.0281,-4.126,-4.2312,-4.3613,0.0,0.0,0.0,-4.5363,-4.5397,-4.5397,-4.5397,-4.5397,-4.5397,-4.5397,-4.5397,-4.6207,-4.7689,-4.7689,-4.8545,-5.0011,-5.0011,-5.0011,-5.0011,-5.0011,-5.0011,-5.0011,-5.0011,-5.0011,-5.0011,-5.0011,-5.008,-5.0246,-3.349,-3.43,0.0,-3.5611,0.0,0.0,-3.6663,0.0,0.0,-3.9957,-4.1222,0.0,-4.3672,-4.4389,-4.4958,-4.5363,-4.5397,0.0,-4.4941,0.0,0.0,-4.4923,-4.4423,-4.4147,-4.4147,-4.3,0.0,-4.0698,0.0,0.0,-3.7478,-3.668,-3.6301,-3.637,0.0,-3.925,-4.0532,-4.2741,-4.4147,-4.4958,-4.5259,0.0,0.0,-4.5225,-4.5121,-4.4837,-4.5242,-4.5397,-4.5397,-4.5397,-4.5397,-4.5397,-4.5397,-4.5397,-4.5397,-4.5397,-4.5397,-4.5397,-4.5397,-4.53,-4.5117,-4.4688,-4.4118,-4.3318,-4.2227,-4.1886,-4.168,0.0,0.0,0.0,0.0,0.0,0.0,0.0,0.0,0.0,0.0,0.0,0.0,0.0,0.0,0.0,0.0,-3.8517,-4.0367,-4.059,-4.1257,0.0,0.0,0.0,0.0,-4.4406,-4.5052,-4.5371,-4.53,-4.5371,-4.5371,-4.53,-4.5371,-4.6207,-4.7689,-4.7689,-4.8545,-5.0011,-5.0011,-5.0011,-5.0011,-5.0011,-5.0011,-5.0011,-5.0011,-5.0011,-5.0011,-5.0011,-5.0011,-5.0051,-3.449,-3.5508,0.0,0.0,0.0,0.0,0.0,-3.9043,0.0,-4.1015,0.0,-4.3379,-4.3483,-4.463,-4.5397,-4.5397,0.0,-4.5121,-4.4501,-4.5044,-4.5104,-4.4483,-4.5061,-4.5397,-4.5397,-4.4665,0.0,0.0,0.0,0.0,-3.7633,-3.6715,-3.6353,-3.6525,0.0,0.0,0.0,-4.3086,-4.4363,-4.4492,-4.5121,-4.5397,-4.5397,-4.5397,-4.5397,-4.5397,-4.5397,-4.5397,-4.5397,-4.5397,-4.5397,-4.5397,-4.5397,-4.5397,-4.5397,-4.5397,-4.5397,-4.5397,-4.5397,-4.53,-4.522,-4.5203,-4.5005,-4.449,-4.3102,-4.2681,-4.2591,-4.2591,-4.1576,0.0,0.0,0.0,0.0,0.0,0.0,0.0,0.0,0.0,0.0,0.0,0.0,0.0,0.0,0.0,0.0,-4.0144,-3.9776,0.0,0.0,0.0,0.0,0.0,-4.4708,0.0,-4.5203,0.0,-4.5318,-4.5203,-4.53,-4.6163,-4.7634,-4.7662,-4.8517,-4.9964,-4.9982,-5.0011,-5.0011,-5.0011,-5.0011,-5.0011,-5.0011,-5.0011,-5.0011,-5.0011,-5.0011,-5.0011,-3.5818,0.0,0.0,0.0,0.0,-3.937,-4.1153,-4.1412,-4.174,-4.2672,-4.3552,-4.4345,-4.4958,-4.5242,-4.5397,-4.5397,-4.5397,0.0,0.0,0.0,0.0,-4.5207,-4.5328,-4.5397,-4.5397,-4.4665,-4.3552,0.0,0.0,0.0,-3.8392,-3.6956,-3.6646,0.0,0.0,0.0,-4.1723,-4.3534,0.0,-4.5207,-4.5345,-4.5397,-4.5397,-4.5397,-4.5397,-4.5397,-4.5397,-4.5397,-4.5397,-4.5397,-4.5397,-4.5397,-4.5397,-4.5397,-4.5397,-4.5397,-4.5397,-4.5397,-4.5397,-4.5371,-4.5344,-4.5247,-4.5086,-4.4872,-4.449,-4.4302,-4.4209,-4.4209,-4.4005,-4.3572,-4.2828,0.0,0.0,0.0,0.0,0.0,0.0,0.0,0.0,0.0,0.0,0.0,0.0,0.0,0.0,0.0,0.0,0.0,0.0,0.0,0.0,0.0,0.0,0.0,0.0,0.0,0.0,-4.5203,-4.5203,-4.5956,-4.7273,-4.7466,-4.8346,-4.9755,-4.9935,-5.0011,-5.0011,-5.0011,-5.0011,-5.0011,-5.0011,-5.0011,-5.0011,-5.0011,-5.0011,-5.0011,0.0,0.0,0.0,0.0,0.0,0.0,0.0,-4.3268,0.0,-4.3776,-4.4087,-4.4449,-4.4785,-4.5156,-4.5397,-4.5397,-4.5397,-4.5397,-4.5397,-4.5397,-4.5397,-4.5397,-4.5397,0.0,-4.5397,-4.5061,-4.413,-4.262,0.0,0.0,-3.8582,-3.7025,-3.6508,-3.6922,0.0,-3.9894,0.0,0.0,0.0,-4.4872,-4.5242,-4.5397,-4.5397,-4.5397,-4.5397,-4.5397,-4.5397,-4.5397,-4.5397,-4.5397,-4.5397,-4.5397,-4.5397,-4.5397,-4.5397,-4.5397,-4.5397,-4.5397,-4.5397,-4.5397,-4.5397,-4.53,-4.5194,-4.5059,-4.4923,-4.4803,-4.4682,-4.4598,-4.4615,-4.4141,-4.2574,-4.1085,0.0,0.0,0.0,0.0,0.0,0.0,0.0,0.0,0.0,0.0,0.0,0.0,0.0,0.0,0.0,0.0,0.0,0.0,0.0,0.0,0.0,0.0,0.0,0.0,0.0,-4.4978,-4.5059,-4.5846,-4.7187,-4.729,-4.8186,-4.959,-4.9713,-4.9742,-4.9742,-4.983,-4.9906,-5.0011,-5.0011,-5.0011,-5.0011,-5.0011,-5.0011,-5.0011,0.0,-3.9439,0.0,0.0,-4.1861,0.0,-4.3414,-4.4544,-4.5173,-4.4596,-4.4527,-4.4527,-4.4527,-4.5061,-4.5397,-4.5397,-4.5397,-4.5397,-4.5397,-4.5397,-4.5397,-4.5397,-4.5397,-4.5397,-4.5397,-4.5397,-4.4682,0.0,0.0,0.0,0.0,0.0,0.0,0.0,0.0,0.0,0.0,0.0,-4.4397,-4.4578,-4.5156,-4.5397,-4.5397,-4.5397,-4.5397,-4.5397,-4.5397,-4.5397,-4.5397,-4.5397,-4.5397,-4.5397,-4.5397,-4.5397,-4.5397,-4.5397,-4.5397,-4.5397,-4.5397,-4.5397,-4.5397,-4.5397,-4.5274,-4.514,-4.5032,-4.4886,-4.4737,-4.4626,-4.4615,-4.4141,-4.2574,-4.1636,0.0,0.0,0.0,0.0,0.0,0.0,0.0,0.0,0.0,0.0,0.0,0.0,0.0,0.0,0.0,0.0,0.0,0.0,0.0,0.0,0.0,0.0,-4.4409,0.0,-4.4896,0.0,-4.5084,-4.5879,-4.7118,-4.73,-4.8131,-4.9458,-4.9488,-4.9518,-4.95,-4.9696,-4.9813,-4.9935,-4.9964,-5.0011,-5.0011,-5.0011,-5.0011,-5.0011,0.0,0.0,0.0,0.0,0.0,0.0,0.0,-4.4889,-4.538,-4.5311,-4.5294,-4.5294,-4.5294,-4.5363,-4.5397,-4.5397,-4.5397,-4.5397,-4.5397,-4.5397,-4.5397,-4.5397,-4.5397,-4.5397,-4.5397,-4.5397,-4.4682,0.0,0.0,0.0,0.0,0.0,0.0,0.0,0.0,0.0,0.0,-4.3966,-4.4682,-4.5294,-4.5363,-4.5397,-4.5397,-4.5397,-4.5397,-4.5397,-4.5397,-4.5397,-4.5397,-4.5397,-4.5397,-4.5397,-4.5397,-4.5397,-4.5397,-4.5397,-4.5397,-4.5397,-4.5397,-4.5397,-4.5397,-4.5397,-4.5211,-4.5005,-4.5005,-4.4803,-4.4615,-4.4598,-4.4615,-4.4141,-4.2574,-4.3345,-4.3735,0.0,0.0,0.0,0.0,0.0,0.0,0.0,0.0,0.0,0.0,0.0,0.0,0.0,0.0,0.0,0.0,0.0,0.0,0.0,0.0,-4.2971,-4.3074,-4.4231,0.0,-4.482,-4.5473,-4.618,-4.6861,-4.767,-4.8477,-4.9229,-4.9411,-4.9518,-4.9518,-4.9848,-4.986,-4.9755,-4.9935,-5.0011,-5.0011,-5.0011,-5.0011,-5.0011,0.0,0.0,0.0,0.0,0.0,0.0,0.0,-4.5207,-4.5397,-4.5397,-4.5397,-4.5397,-4.5397,-4.5397,-4.5397,-4.5397,-4.5397,-4.5397,-4.5397,-4.5397,-4.5397,-4.5397,-4.5397,-4.5397,-4.5397,-4.5397,-4.4906,0.0,0.0,0.0,0.0,0.0,0.0,0.0,0.0,-4.2861,-4.3914,-4.4647,-4.5121,-4.5397,-4.5397,-4.5397,-4.5397,-4.5397,-4.5397,-4.5397,-4.5397,-4.5397,-4.5397,-4.5397,-4.5397,-4.5397,-4.5397,-4.5397,-4.5397,-4.5397,-4.5397,-4.5397,-4.5397,-4.5397,-4.5371,-4.53,-4.5194,-4.5086,-4.4913,-4.482,-4.4709,-4.4615,-4.4615,-4.4412,-4.3802,-4.3447,-4.3301,0.0,0.0,0.0,0.0,0.0,0.0,0.0,0.0,0.0,0.0,0.0,0.0,0.0,0.0,0.0,0.0,0.0,0.0,-4.2524,0.0,-4.3865,-4.3919,-4.4449,-4.4682,-4.4699,-4.5433,-4.615,-4.6819,-4.7623,-4.8382,-4.9077,-4.9155,-4.9246,-4.932,-4.9458,-4.9607,-4.9708,-4.9784,-4.9889,-5.0011,-5.0011,-5.0011,-5.0011,-4.3483,0.0,-4.3759,0.0,-4.4613,-4.4803,-4.5311,-4.5397,-4.5397,-4.5397,-4.5397,-4.5397,-4.5397,-4.5397,-4.5397,-4.5397,-4.5397,-4.5397,-4.5397,-4.5397,-4.5397,-4.5397,-4.5397,0.0,-4.5397,-4.5397,-4.5121,-4.4613,-4.3327,0.0,0.0,0.0,0.0,0.0,-4.3172,-4.3931,-4.4647,-4.5173,-4.5397,-4.5397,-4.5397,-4.5397,-4.5397,-4.5397,-4.5397,-4.5397,-4.5397,-4.5397,-4.5397,-4.5397,-4.5397,-4.5397,-4.5397,-4.5397,-4.5397,-4.5397,-4.5397,-4.5397,-4.5397,-4.5397,-4.5371,-4.5274,-4.5194,-4.5086,-4.4913,-4.4803,-4.4709,-4.4626,-4.4615,-4.4615,-4.4615,-4.3718,-4.3345,0.0,0.0,0.0,0.0,0.0,0.0,0.0,-4.2973,-4.2286,-4.2286,0.0,0.0,0.0,0.0,0.0,0.0,0.0,0.0,0.0,0.0,0.0,0.0,0.0,-4.4615,-4.4615,-4.5568,-4.6295,-4.6819,-4.78,-4.8528,-4.9001,-4.9032,-4.9094,-4.9138,-4.9229,-4.9381,-4.956,-4.9619,-4.9725,-4.9848,-4.9906,-4.9906,-4.9935,-4.4138,-4.4294,-4.4535,-4.5259,-4.538,-4.538,-4.5397,-4.5397,-4.5397,-4.5397,-4.5397,-4.5397,-4.5397,-4.5397,-4.5397,-4.5397,-4.5397,-4.5397,-4.5397,-4.5397,-4.5397,0.0,0.0,-4.5397,-4.5397,-4.5397,-4.5397,-4.538,0.0,0.0,-4.3155,0.0,0.0,-4.3224,-4.3966,-4.4699,-4.538,-4.5397,-4.5397,-4.5397,-4.5397,-4.5397,-4.5397,-4.5397,-4.5397,-4.5397,-4.5397,-4.5397,-4.5397,-4.5397,-4.5397,-4.5397,-4.5397,-4.5397,-4.5397,-4.5397,-4.5397,-4.5397,-4.5397,-4.5397,-4.5397,-4.5397,-4.5211,-4.5005,-4.5005,-4.4776,-4.4615,-4.4615,-4.4615,-4.4615,-4.4615,-4.4581,-4.4581,-4.4615,0.0,0.0,0.0,0.0,0.0,0.0,-4.2303,-4.2286,-4.2286,0.0,0.0,0.0,0.0,0.0,0.0,0.0,0.0,-4.2705,-4.2575,0.0,-4.2722,-4.3963,-4.4615,-4.4632,-4.6075,-4.6786,-4.6836,-4.8325,-4.9001,-4.9001,-4.9138,-4.9107,-4.9032,-4.9367,-4.9381,-4.9229,-4.9411,-4.9518,-4.9518,-4.9649,-4.9708,-4.9737,-4.501,-4.5061,-4.513,-4.5363,-4.5397,-4.5397,-4.5397,-4.5397,-4.5397,-4.5397,-4.5397,-4.5397,-4.5397,-4.5397,-4.5397,0.0,-4.5397,-4.5397,0.0,-4.5397,-4.5397,-4.5397,-4.5397,-4.5397,-4.5397,-4.5397,-4.5397,-4.5397,0.0,0.0,0.0,-4.369,-4.3958,-4.4716,-4.4958,-4.5173,-4.5397,-4.5397,-4.5397,-4.5397,-4.5397,-4.5397,-4.5397,-4.5397,-4.5397,-4.5397,-4.5397,-4.5397,-4.5397,-4.5397,-4.5397,-4.5397,-4.5397,-4.5397,-4.5397,-4.5397,-4.5397,-4.5397,-4.5397,-4.5397,-4.5344,-4.5167,-4.5059,-4.4951,-4.4776,-4.4654,-4.4615,-4.4615,-4.4615,-4.4615,-4.4615,-4.4615,-4.4615,-4.4615,0.0,0.0,0.0,0.0,0.0,0.0,0.0,-4.3887,0.0,-4.3887,0.0,0.0,0.0,0.0,0.0,0.0,0.0,0.0,-4.34,0.0,-4.3997,-4.4406,-4.4615,-4.4632,-4.6121,-4.7327,-4.8325,-4.8798,-4.9001,-4.9001,-4.9063,-4.9032,-4.9001,-4.9124,-4.9185,-4.9199,-4.926,-4.9381,-4.9518,-4.9547,-4.956,-4.9607,-4.5397,-4.5397,-4.5397,-4.5397,-4.5397,-4.5397,-4.5397,-4.5397,-4.5397,-4.5397,-4.5397,-4.5397,-4.5397,-4.5397,0.0,-4.5397,-4.5397,-4.5397,-4.5397,-4.5397,-4.5397,-4.5397,-4.5397,-4.5397,-4.5397,0.0,0.0,-4.5397,-4.4941,-4.4699,-4.4699,-4.4699,-4.4958,-4.5397,-4.5397,-4.5397,-4.5397,-4.5397,-4.5397,-4.5397,-4.5397,-4.5397,-4.5397,-4.5397,-4.5397,-4.5397,-4.5397,-4.5397,-4.5397,-4.5397,-4.5397,-4.5397,-4.5397,-4.5397,-4.5397,-4.5397,-4.5397,-4.5397,-4.5397,-4.5397,-4.5344,-4.514,-4.5032,-4.494,-4.4654,-4.4615,-4.4615,-4.4615,-4.4615,-4.4615,-4.4615,-4.4615,-4.4615,-4.4615,0.0,-4.4615,0.0,0.0,0.0,0.0,0.0,0.0,0.0,-4.3752,0.0,0.0,0.0,0.0,0.0,0.0,0.0,-4.3166,-4.4107,0.0,-4.4615,-4.4615,-4.475,-4.501,-4.6515,-4.7851,-4.9001,-4.9001,-4.9001,-4.9001,-4.9001,-4.9001,-4.9001,-4.9001,-4.9063,-4.9107,-4.9107,-4.9199,-4.9307,-4.935,-4.9398,-4.9411,-4.5397,-4.5397,0.0,0.0,-4.5397,0.0,-4.5397,-4.5397,-4.5397,-4.5397,-4.5397,-4.5397,-4.5397,-4.5397,-4.5397,-4.5397,0.0,0.0,0.0,-4.5397,-4.5397,-4.5397,-4.5397,0.0,-4.5397,-4.5397,-4.5397,-4.5397,-4.5397,-4.5397,-4.5397,-4.5397,-4.5397,-4.5397,-4.5397,-4.5397,-4.5397,-4.5397,-4.5397,-4.5397,-4.5397,-4.5397,-4.5397,-4.5397,-4.5397,-4.5397,-4.5397,-4.5397,-4.5397,-4.5397,-4.5397,-4.5397,-4.5397,-4.5397,-4.5397,-4.5397,-4.5397,-4.5397,-4.5397,-4.5397,-4.5371,-4.522,-4.5086,-4.4913,-4.4654,-4.4615,-4.4615,-4.4615,-4.4615,-4.4615,-4.4615,-4.4615,-4.4615,-4.4615,-4.4615,-4.4615,-4.4615,0.0,0.0,0.0,0.0,0.0,0.0,-4.2455,-4.3024,0.0,0.0,0.0,0.0,0.0,0.0,-4.4564,-4.4615,-4.4615,-4.4615,-4.4615,-4.4993,-4.5788,-4.7212,-4.8308,-4.9001,-4.9001,-4.9001,-4.9001,-4.9001,-4.9001,-4.9001,-4.9001,-4.9001,-4.9001,-4.9001,-4.9001,-4.9001,-4.9138,-4.9199,-4.9229,0.0,0.0,-4.5397,-4.5397,-4.5397,-4.5397,-4.5397,-4.5397,-4.5397,-4.5397,-4.5397,-4.5397,-4.5397,-4.5397,-4.5397,-4.5397,-4.5397,-4.5397,-4.5397,-4.5397,-4.5397,-4.5397,-4.5397,-4.5397,-4.5397,-4.5397,-4.5397,-4.5397,-4.5397,-4.5397,-4.5397,-4.5397,-4.5397,-4.5397,-4.5397,-4.5397,-4.5397,-4.5397,-4.5397,-4.5397,-4.5397,-4.5397,-4.5397,-4.5397,-4.5397,-4.5397,-4.5397,-4.5397,-4.5397,-4.5397,-4.5397,-4.5397,-4.5397,-4.5397,-4.5397,-4.5397,-4.5397,-4.5397,-4.5397,-4.5344,-4.522,-4.5086,-4.4886,-4.4682,-4.4598,-4.4615,-4.4615,-4.4615,-4.4615,-4.4615,-4.4615,-4.4615,-4.4615,-4.4615,-4.4615,-4.4615,-4.4615,0.0,0.0,0.0,-4.4073,-4.4073,-4.4073,-4.4073,-4.3735,0.0,0.0,0.0,0.0,0.0,-4.3024,-4.4564,-4.4615,-4.4615,-4.4615,-4.4615,-4.5258,-4.6549,-4.7479,-4.8308,-4.9001,-4.9001,-4.9001,-4.9001,-4.9001,-4.9001,-4.9001,-4.9001,-4.9001,-4.9001,-4.9001,-4.9001,-4.9001,-4.9032,-4.9063,-4.9094,-4.5397,-4.5397,-4.5397,-4.5397,-4.5397,-4.5397,-4.5397,-4.5397,-4.5397,-4.5397,-4.5397,-4.5397,-4.5397,-4.5397,-4.5397,-4.5397,-4.5397,-4.5397,-4.5397,-4.5397,-4.5397,-4.5397,-4.5397,-4.5397,-4.5397,-4.5397,-4.5397,-4.5397,-4.5397,-4.5397,-4.5397,-4.5397,-4.5397,-4.5397,-4.5397,-4.5397,-4.5397,-4.5397,-4.5397,-4.5397,-4.5397,-4.5397,-4.5397,-4.5397,-4.5397,-4.5397,-4.5397,-4.5397,-4.5397,-4.5397,-4.5397,-4.5397,-4.5397,-4.5397,-4.5397,-4.5397,-4.5397,-4.5397,-4.5397,-4.5344,-4.5247,-4.5059,-4.4803,-4.4615,-4.4615,-4.4615,-4.4615,-4.4615,-4.4615,-4.4615,-4.4615,-4.4615,-4.4615,-4.4615,-4.4282,-4.4181,-4.4564,-4.4265,0.0,-4.4564,-4.4615,-4.4615,-4.4615,-4.4615,-4.4259,-4.343,0.0,0.0,-4.3362,-4.3362,-4.3752,-4.4581,-4.4615,-4.4615,-4.4615,-4.5275,-4.602,-4.6802,-4.7902,-4.8612,-4.9001,-4.9001,-4.9001,-4.9001,-4.9001,-4.9001,-4.9001,-4.9001,-4.9001,-4.9001,-4.9001,-4.9001,-4.9001,-4.9001,-4.9001,-4.9032,-4.5397,-4.5397,-4.5397,-4.5397,-4.5397,-4.5397,-4.5397,-4.5397,-4.5397,-4.5397,-4.5397,-4.5397,-4.5397,-4.5397,-4.5397,-4.5397,-4.5397,-4.5397,-4.5397,-4.5397,-4.5397,-4.5397,-4.5397,-4.5397,-4.5397,-4.5397,-4.5397,-4.5397,-4.5397,-4.5397,-4.5397,-4.5397,-4.5397,-4.5397,-4.5397,-4.5397,-4.5397,-4.5397,-4.5397,-4.5397,-4.5397,-4.5397,-4.5397,-4.5397,-4.5397,-4.5397,-4.5397,-4.5397,-4.5397,-4.5397,-4.5397,-4.5397,-4.5397,-4.5397,-4.5397,-4.5397,-4.5397,-4.5371,-4.5371,-4.5344,-4.5264,-4.5005,-4.4776,-4.4615,-4.4615,-4.4615,-4.4615,-4.4615,-4.4615,-4.4615,-4.4615,-4.4615,-4.4564,-4.4445,-4.3944,-4.3792,-4.4333,0.0,-4.3842,-4.453,-4.4615,-4.4615,-4.4615,-4.4615,-4.4615,-4.4615,-4.4615,0.0,0.0,-4.4615,-4.4615,-4.4615,-4.4615,-4.4615,-4.4615,-4.6041,-4.6786,-4.6802,-4.8291,-4.9001,-4.9001,-4.9001,-4.9001,-4.9001,-4.9001,-4.9001,-4.9001,-4.9001,-4.9001,-4.9001,-4.9001,-4.9001,-4.9001,-4.9001,-4.9001,-4.9032,-4.5397,-4.5397,-4.5397,-4.5397,-4.5397,-4.5397,-4.5397,-4.5397,-4.5397,-4.5397,-4.5397,-4.5397,-4.5397,-4.5397,-4.5397,-4.5397,-4.5397,-4.5397,-4.5397,-4.5397,-4.5397,-4.5397,-4.5397,-4.5397,-4.5397,-4.5397,-4.5397,-4.5397,-4.5397,-4.5397,-4.5397,-4.5397,-4.5397,-4.5397,-4.5397,-4.5397,-4.5397,-4.5397,-4.5397,-4.5397,-4.5397,-4.5397,-4.5397,-4.5397,-4.5397,-4.5397,-4.5397,-4.5397,-4.5397,-4.5397,-4.5397,-4.5397,-4.5397,-4.5397,-4.5397,-4.5397,-4.53,-4.523,-4.523,-4.5059,-4.4858,-4.4709,-4.4626,-4.4615,-4.4615,-4.4615,-4.4615,-4.4615,-4.4615,-4.4615,-4.4615,-4.4615,-4.4395,-4.3707,-4.4045,-4.4215,0.0,0.0,-4.4479,-4.4598,-4.4615,-4.4615,-4.4615,-4.4615,-4.4615,-4.4615,-4.4615,-4.4615,-4.4615,-4.4615,-4.4615,-4.4615,-4.4615,-4.4615,-4.4615,-4.6041,-4.6786,-4.6802,-4.8291,-4.9001,-4.9001,-4.9001,-4.9001,-4.9001,-4.9001,-4.9001,-4.9001,-4.9001,-4.9001,-4.9001,-4.9001,-4.9001,-4.9001,-4.9001,-4.9001,-4.9032,-4.5397,-4.5397,-4.5397,-4.5397,-4.5397,-4.5397,-4.5397,-4.5397,-4.5397,-4.5397,-4.5397,-4.5397,-4.5397,-4.5397,-4.5397,-4.5397,-4.5397,-4.5397,-4.5397,-4.5397,-4.5397,-4.5397,-4.5397,-4.5397,-4.5397,-4.5397,-4.5397,-4.5397,-4.5397,-4.5397,-4.5397,-4.5397,-4.5397,-4.5397,-4.5397,-4.5397,-4.5397,-4.5397,-4.5397,-4.5397,-4.5397,-4.5397,-4.5397,-4.5397,-4.5397,-4.5397,-4.5397,-4.5397,-4.5397,-4.5397,-4.5397,-4.5397,-4.5397,-4.5397,-4.5397,-4.5397,-4.53,-4.5177,-4.5113,-4.4951,-4.4793,-4.472,-4.4654,-4.4615,-4.4615,-4.4615,-4.4615,-4.4615,-4.4615,-4.4615,-4.4615,-4.4615,-4.4496,-4.4096,-4.3995,0.0,0.0,-4.3995,-4.4113,-4.4564,-4.4615,-4.4615,-4.4615,-4.4615,-4.4615,-4.4615,-4.4615,-4.4615,-4.4615,-4.4615,-4.4615,-4.4615,-4.4615,-4.4801,-4.5179,-4.6244,-4.7005,-4.7411,-4.8477,-4.9001,-4.9001,-4.9001,-4.9001,-4.9001,-4.9001,-4.9001,-4.9001,-4.9001,-4.9001,-4.9001,-4.9001,-4.9001,-4.9001,-4.9001,-4.9001,-4.9001,-4.5397,-4.5397,-4.5397,-4.5397,-4.5397,-4.5397,-4.5397,-4.5397,-4.5397,-4.5397,-4.5397,-4.5397,-4.5397,-4.5397,-4.5397,-4.5397,-4.5397,-4.5397,-4.5397,-4.5397,-4.5397,-4.5397,-4.5397,-4.5397,-4.5397,-4.5397,-4.5397,-4.5397,-4.5397,-4.5397,-4.5397,-4.5397,-4.5397,-4.5397,-4.5397,-4.5397,-4.5397,-4.5397,-4.5371,-4.5371,-4.5371,-4.5371,-4.5371,-4.5371,-4.5371,-4.5397,-4.5397,-4.5397,-4.5397,-4.5397,-4.5397,-4.5397,-4.5353,-4.5371,-4.5397,-4.5371,-4.5247,-4.514,-4.5032,-4.4886,-4.4748,-4.4748,-4.4682,-4.4615,-4.4615,-4.4615,-4.4615,-4.4615,-4.4615,-4.4615,-4.4615,-4.4615,-4.4547,-4.4333,0.0,0.0,0.0,-4.3944,-4.391,-4.453,-4.4615,-4.4615,-4.4615,-4.4615,-4.4615,-4.4615,-4.4615,-4.4542,-4.4338,-4.4338,-4.4281,-4.4121,-4.4253,-4.4766,-4.5703,-4.6267,-4.7008,-4.7889,-4.8663,-4.9001,-4.9001,-4.9001,-4.9001,-4.9001,-4.9001,-4.9001,-4.9001,-4.9001,-4.9001,-4.9001,-4.9001,-4.9001,-4.9001,-4.9001,-4.9001,-4.9018,-4.5397,-4.5397,-4.5397,-4.5397,-4.5397,-4.5397,-4.5397,-4.5397,-4.5397,-4.5397,-4.5397,-4.5397,-4.5397,-4.5397,-4.5397,-4.5397,-4.5397,-4.5397,-4.5397,-4.5397,-4.5397,-4.5397,-4.5397,-4.5397,-4.5397,-4.5397,-4.5397,-4.5397,-4.5397,-4.5397,-4.5397,-4.5397,-4.5397,-4.5397,-4.5397,-4.5397,-4.5397,-4.5397,-4.5344,-4.5203,-4.5203,-4.5203,-4.5203,-4.5203,-4.53,-4.5397,-4.5397,-4.5397,-4.5397,-4.5397,-4.5397,-4.5371,-4.5247,-4.53,-4.5371,-4.5247,-4.5113,-4.5005,-4.5005,-4.4803,-4.4598,-4.4598,-4.4615,-4.4615,-4.4615,-4.4615,-4.4615,-4.4615,-4.4615,-4.4615,-4.4615,-4.4615,-4.435,-4.3623,0.0,0.0,-4.3589,-4.4079,-4.4547,-4.4598,-4.4615,-4.4615,-4.4615,-4.4615,-4.4615,-4.4615,-4.4615,-4.431,-4.3617,-4.3571,-4.3303,-4.2676,-4.3273,-4.4265,-4.5703,-4.5815,-4.655,-4.7889,-4.8663,-4.9001,-4.9001,-4.9001,-4.9001,-4.9001,-4.9001,-4.9001,-4.9001,-4.9001,-4.9001,-4.9001,-4.9001,-4.9001,-4.9001,-4.9001,-4.9001,-4.9103,-4.5397,-4.5397,-4.5397,-4.5397,-4.5397,-4.5397,-4.5397,-4.5397,-4.5397,-4.5397,-4.5397,-4.5397,-4.5397,-4.5397,-4.5397,-4.5397,-4.5397,-4.5397,-4.5397,-4.5397,-4.5397,-4.5397,-4.5397,-4.5397,-4.5397,-4.5397,-4.5638,-4.6121,-4.6121,-4.6362,-4.6828,-4.6828,-4.6828,-4.6828,-4.6828,-4.6773,-4.6718,-4.6718,-4.6618,-4.6411,-4.5949,-4.5816,-4.5819,-4.5285,-4.5194,-4.5397,-4.53,-4.5344,-4.5397,-4.5397,-4.5397,-4.5397,-4.5344,-4.5371,-4.5371,-4.5247,-4.5113,-4.4978,-4.4913,-4.4737,-4.4615,-4.4615,-4.4615,-4.4615,-4.4615,-4.4615,-4.4615,-4.4615,-4.4615,-4.4615,-4.4615,-4.4615,-4.4513,-4.4181,0.0,-4.4496,-4.4181,-4.4429,-4.4615,-4.4615,-4.4615,-4.4615,-4.4615,-4.4615,-4.4615,-4.4615,-4.4615,-4.4281,-4.3542,-4.3106,-4.2769,-4.252,-4.2332,-4.3182,-4.5052,-4.5568,-4.6502,-4.7905,-4.8664,-4.9001,-4.9001,-4.9001,-4.9001,-4.9001,-4.9001,-4.9001,-4.9001,-4.9001,-4.9001,-4.9001,-4.9001,-4.9001,-4.9001,-4.9001,-4.9001,-4.912,-4.5397,-4.5397,-4.5397,-4.5397,-4.5397,-4.5397,-4.5397,-4.5397,-4.5397,-4.5397,-4.5397,-4.5397,-4.5397,-4.5397,-4.5397,-4.5397,-4.5397,-4.5397,-4.5397,-4.5397,-4.5397,-4.5397,-4.5397,-4.5518,-4.5759,-4.5776,-4.6155,-4.6958,-4.6958,-4.7189,-4.7689,-4.7689,-4.7689,-4.7689,-4.7689,-4.7634,-4.7511,-4.7511,-4.7364,-4.7096,-4.6584,-4.6299,-4.611,-4.5514,-4.5282,-4.5264,-4.5167,-4.5194,-4.5291,-4.53,-4.5344,-4.5344,-4.5344,-4.5318,-4.5247,-4.5203,-4.5086,-4.4913,-4.4831,-4.4709,-4.4615,-4.4615,-4.4615,-4.4615,-4.4615,-4.4615,-4.4615,-4.4615,-4.4615,-4.4615,-4.4615,-4.4615,-4.4615,-4.4615,-4.4615,-4.4615,-4.4615,-4.4615,-4.4615,-4.4615,-4.4615,-4.4615,-4.4615,-4.4615,-4.4615,-4.4615,-4.4384,-4.3856,-4.2923,-4.2426,-4.2078,-4.1901,-4.1641,-4.2338,-4.4022,-4.4789,-4.5963,-4.7556,-4.8081,-4.8322,-4.8322,-4.8322,-4.8322,-4.8322,-4.8322,-4.8322,-4.8322,-4.8562,-4.8656,-4.8688,-4.8909,-4.9001,-4.9001,-4.9001,-4.9154,-4.9458,-4.5397,-4.5397,-4.5397,-4.5397,-4.5397,-4.5397,-4.5397,-4.5397,-4.5397,-4.5397,-4.5397,-4.5397,-4.5397,-4.5397,-4.5397,-4.5397,-4.5397,-4.5397,-4.5397,-4.5414,-4.5414,-4.5414,-4.5414,-4.5776,-4.6596,-4.6613,-4.6975,-4.7717,-4.7717,-4.7707,-4.7707,-4.7707,-4.7707,-4.7707,-4.7707,-4.7651,-4.7528,-4.7528,-4.7324,-4.702,-4.702,-4.6578,-4.5932,-4.5915,-4.5522,-4.5022,-4.5005,-4.5005,-4.5005,-4.515,-4.5203,-4.5203,-4.5203,-4.5113,-4.5032,-4.515,-4.5005,-4.4803,-4.4803,-4.4709,-4.4615,-4.4615,-4.4615,-4.4615,-4.4615,-4.4615,-4.4615,-4.4615,-4.4615,-4.4615,-4.4615,-4.4615,-4.4615,-4.4615,-4.4615,-4.4615,-4.4615,-4.4615,-4.4615,-4.4615,-4.4615,-4.4615,-4.4615,-4.4615,-4.4615,-4.4615,-4.3914,-4.2923,-4.1575,-4.1492,-4.1176,-4.0524,-4.1158,-4.1865,-4.2586,-4.3345,-4.4724,-4.6777,-4.6811,-4.6811,-4.6811,-4.6811,-4.6811,-4.6811,-4.6811,-4.6811,-4.6846,-4.7589,-4.7885,-4.795,-4.8688,-4.9001,-4.9001,-4.9001,-4.9458,-5.0202,-4.5397,-4.5397,-4.5397,-4.5397,-4.5397,-4.5397,-4.5397,-4.5397,-4.5397,-4.5397,-4.5397,-4.5397,-4.5397,-4.5397,-4.5397,-4.5397,-4.5397,-4.5397,-4.5397,-4.5914,-4.6224,-4.6224,-4.6224,-4.6345,-4.6596,-4.7131,-4.7724,-4.8465,-4.8465,-4.8684,-4.9097,-4.9097,-4.9039,-4.8968,-4.8968,-4.8851,-4.8686,-4.8686,-4.8566,-4.8352,-4.7844,-4.7564,-4.733,-4.6179,-4.5762,-4.5685,-4.5073,-4.4913,-4.5005,-4.515,-4.5203,-4.522,-4.53,-4.5247,-4.514,-4.5086,-4.494,-4.4776,-4.4682,-4.4626,-4.4615,-4.4615,-4.4615,-4.4615,-4.4615,-4.4615,-4.4615,-4.4615,-4.4615,-4.4615,-4.4615,-4.4615,-4.4615,-4.4615,-4.4615,-4.4615,-4.4615,-4.4615,-4.4615,-4.4615,-4.4615,-4.4615,-4.4615,-4.4615,-4.4615,-4.4615,-4.3469,-4.2426,-4.1558,-4.1057,-4.0715,-4.0489,-4.0681,-4.138,-4.2602,-4.3345,-4.4497,-4.604,-4.6534,-4.6811,-4.6811,-4.6811,-4.6811,-4.6811,-4.6811,-4.6811,-4.6811,-4.7051,-4.7119,-4.7153,-4.7355,-4.777,-4.8242,-4.8242,-4.903,-5.0202,-4.5397,-4.5397,-4.5397,-4.5397,-4.5397,-4.5397,-4.5397,-4.5397,-4.5397,-4.5397,-4.5397,-4.5397,-4.5397,-4.5397,-4.5397,-4.5397,-4.569,-4.5862,-4.5862,-4.6613,-4.7044,-4.7044,-4.7293,-4.7476,-4.7476,-4.7896,-4.8499,-4.9258,-4.9258,-4.9424,-4.9708,-4.9708,-4.9619,-4.9518,-4.9518,-4.9398,-4.9199,-4.9199,-4.9107,-4.8968,-4.8528,-4.8203,-4.789,-4.695,-4.6326,-4.5875,-4.5348,-4.5003,-4.4886,-4.5059,-4.5167,-4.5203,-4.5371,-4.5238,-4.5032,-4.5005,-4.4858,-4.4709,-4.4626,-4.4615,-4.4615,-4.4615,-4.4615,-4.4615,-4.4615,-4.4615,-4.4615,-4.4615,-4.4615,-4.4615,-4.4615,-4.4615,-4.4615,-4.4615,-4.4615,-4.4615,-4.4615,-4.4615,-4.4615,-4.4615,-4.4615,-4.4615,-4.4615,-4.4615,-4.4384,-4.3798,-4.2754,-4.1804,-4.1142,-4.0715,-4.0489,-4.0489,-4.0489,-4.1166,-4.2602,-4.3023,-4.3928,-4.529,-4.5697,-4.5949,-4.5949,-4.5949,-4.5949,-4.5949,-4.5949,-4.5949,-4.5933,-4.6253,-4.6359,-4.6394,-4.6673,-4.7085,-4.7555,-4.8117,-4.9093,-5.0237,-4.5397,-4.5397,-4.5397,-4.5397,-4.5397,-4.5397,-4.5397,-4.5397,-4.5397,-4.5397,-4.5397,-4.5397,-4.5397,-4.5397,-4.5432,-4.55,-4.6224,-4.67,-4.67,-4.7407,-4.7793,-4.7793,-4.8499,-4.8896,-4.8896,-4.8896,-4.9286,-5.0011,-5.0011,-4.9889,-4.9679,-4.9679,-4.959,-4.9458,-4.9458,-4.935,-4.9168,-4.9168,-4.9107,-4.9001,-4.9001,-4.8612,-4.7973,-4.7922,-4.7039,-4.5788,-4.572,-4.5229,-4.4626,-4.4913,-4.5059,-4.5203,-4.5344,-4.5103,-4.4831,-4.4968,-4.4803,-4.4615,-4.4615,-4.4615,-4.4615,-4.4615,-4.4615,-4.4615,-4.4615,-4.4615,-4.4615,-4.4615,-4.4615,-4.4615,-4.4615,-4.4615,-4.4615,-4.4615,-4.4615,-4.4615,-4.4615,-4.4615,-4.4615,-4.4615,-4.4615,-4.4615,-4.4615,-4.4542,-4.396,-4.2614,-4.1901,-4.1209,-4.0524,-4.0489,-4.0489,-4.0489,-4.0489,-4.1166,-4.2602,-4.2602,-4.3264,-4.461,-4.461,-4.461,-4.461,-4.461,-4.461,-4.461,-4.461,-4.461,-4.4648,-4.5311,-4.5588,-4.566,-4.6324,-4.6687,-4.6955,-4.8293,-4.9373,-5.039,-4.5397,-4.5397,-4.5397,-4.5397,-4.5397,-4.5397,-4.5397,-4.5397,-4.5397,-4.5397,-4.5397,-4.5397,-4.5397,-4.5397,-4.5656,-4.6259,-4.7017,-4.7448,-4.7448,-4.8137,-4.8551,-4.8551,-4.9309,-4.9752,-4.9752,-4.9752,-4.9838,-5.0011,-5.0011,-4.983,-4.953,-4.953,-4.9398,-4.9124,-4.9124,-4.9094,-4.9032,-4.9032,-4.9032,-4.9001,-4.9001,-4.89,-4.8714,-4.8108,-4.7344,-4.6481,-4.5906,-4.5229,-4.4626,-4.4776,-4.494,-4.5059,-4.5086,-4.4951,-4.4803,-4.4831,-4.4737,-4.4615,-4.4615,-4.4615,-4.4615,-4.4615,-4.4615,-4.4615,-4.4615,-4.4615,-4.4615,-4.4615,-4.4615,-4.4615,-4.4615,-4.4615,-4.4615,-4.4615,-4.4615,-4.4615,-4.4615,-4.4615,-4.4615,-4.4615,-4.4615,-4.4615,-4.4615,-4.4076,-4.3393,-4.2552,-4.1901,-4.1209,-4.0524,-4.0489,-4.0489,-4.0489,-4.0489,-4.1166,-4.2602,-4.2602,-4.3264,-4.461,-4.461,-4.461,-4.461,-4.461,-4.461,-4.461,-4.461,-4.461,-4.461,-4.4746,-4.4821,-4.4858,-4.4993,-4.5751,-4.6775,-4.7064,-4.8764,-5.1119,-4.5397,-4.5397,-4.5397,-4.5397,-4.5397,-4.5397,-4.5397,-4.5397,-4.5397,-4.5397,-4.5397,-4.5552,-4.5931,-4.5966,-4.6276,-4.7079,-4.7793,-4.8206,-4.8206,-4.8959,-4.9361,-4.9361,-4.9786,-4.9964,-4.986,-4.986,-4.986,-4.986,-4.9801,-4.9607,-4.935,-4.935,-4.9246,-4.9001,-4.9001,-4.9001,-4.9001,-4.9001,-4.9001,-4.9001,-4.9001,-4.9001,-4.8968,-4.8578,-4.797,-4.7242,-4.6481,-4.5574,-4.4709,-4.4793,-4.4858,-4.4913,-4.4978,-4.4858,-4.4709,-4.4776,-4.4709,-4.4615,-4.4615,-4.4615,-4.4615,-4.4615,-4.4615,-4.4615,-4.4615,-4.4615,-4.4615,-4.4615,-4.4615,-4.4615,-4.4615,-4.4615,-4.4615,-4.4615,-4.431,-4.4076,-4.4076,-4.4076,-4.3943,-4.3634,-4.4179,-4.4468,-4.4105,-4.3152,-4.2395,-4.2046,-4.1393,-4.087,-4.0524,-4.0489,-4.0489,-4.0489,-4.0489,-4.1166,-4.2602,-4.2602,-4.3264,-4.461,-4.461,-4.461,-4.461,-4.461,-4.461,-4.461,-4.461,-4.461,-4.461,-4.461,-4.461,-4.461,-4.461,-4.5239,-4.6262,-4.6991,-4.8854,-5.1211,-4.5397,-4.5397,-4.5397,-4.5397,-4.5397,-4.5397,-4.5397,-4.5518,-4.5604,-4.5604,-4.5707,-4.6035,-4.6734,-4.6906,-4.7234,-4.781,-4.8568,-4.8999,-4.8999,-4.9631,-5.0011,-5.0011,-4.9964,-4.986,-4.9708,-4.9649,-4.9619,-4.9679,-4.953,-4.9398,-4.9199,-4.9199,-4.9138,-4.9001,-4.9001,-4.9001,-4.9001,-4.9001,-4.9001,-4.9001,-4.9001,-4.9001,-4.9001,-4.9001,-4.8545,-4.7787,-4.7056,-4.5908,-4.4765,-4.4765,-4.4765,-4.4793,-4.4913,-4.4776,-4.4626,-4.472,-4.4682,-4.4615,-4.4615,-4.4615,-4.4615,-4.4615,-4.4615,-4.4615,-4.4615,-4.4615,-4.4615,-4.4615,-4.4615,-4.4615,-4.4615,-4.4615,-4.4615,-4.4615,-4.3972,-4.3512,-4.3512,-4.3423,-4.3106,-4.2583,-4.3545,-4.3989,-4.3393,-4.2205,-4.1492,-4.1492,-4.087,-4.0489,-4.0489,-4.0489,-4.0489,-4.0489,-4.0489,-4.1166,-4.2602,-4.2602,-4.3264,-4.461,-4.461,-4.461,-4.461,-4.461,-4.461,-4.461,-4.461,-4.461,-4.461,-4.461,-4.461,-4.4625,-4.4748,-4.5157,-4.5966,-4.7563,-4.9225,-5.0729,-4.5397,-4.5397,-4.5397,-4.5397,-4.5397,-4.5397,-4.5397,-4.5983,-4.6458,-4.6458,-4.6983,-4.7414,-4.7562,-4.8103,-4.8534,-4.8637,-4.939,-4.9855,-4.9855,-4.9942,-5.0011,-5.0011,-4.9813,-4.9737,-4.9708,-4.9411,-4.935,-4.9518,-4.9518,-4.9398,-4.9199,-4.9199,-4.9138,-4.9001,-4.9001,-4.9001,-4.9001,-4.9001,-4.9001,-4.9001,-4.9001,-4.9001,-4.9001,-4.9001,-4.8545,-4.7787,-4.7056,-4.5867,-4.4643,-4.4643,-4.4643,-4.4626,-4.4654,-4.4626,-4.4598,-4.4626,-4.4598,-4.4615,-4.4615,-4.4615,-4.4615,-4.4615,-4.4615,-4.4615,-4.4615,-4.4615,-4.4615,-4.4615,-4.4615,-4.4615,-4.4615,-4.4615,-4.4615,-4.4615,-4.3972,-4.3512,-4.3512,-4.3015,-4.2614,-4.252,-4.2676,-4.2738,-4.2629,-4.1965,-4.1492,-4.1492,-4.087,-4.0489,-4.0489,-4.0489,-4.0489,-4.0489,-4.0489,-4.1166,-4.2602,-4.2602,-4.3264,-4.461,-4.461,-4.461,-4.461,-4.461,-4.461,-4.461,-4.461,-4.461,-4.461,-4.461,-4.461,-4.4671,-4.5218,-4.5865,-4.6722,-4.8836,-4.9313,-4.9147,-4.6069,-4.5707,-4.5535,-4.5983,-4.6069,-4.6207,-4.6621,-4.6983,-4.7207,-4.7207,-4.7482,-4.7844,-4.8258,-4.9028,-4.9465,-4.9465,-4.9804,-5.0011,-5.0011,-5.0011,-5.0011,-5.0011,-4.9918,-4.9801,-4.959,-4.9441,-4.932,-4.9216,-4.9216,-4.9185,-4.9094,-4.9094,-4.9063,-4.9001,-4.9001,-4.9001,-4.9001,-4.9001,-4.9001,-4.9001,-4.9001,-4.9001,-4.9001,-4.9001,-4.8798,-4.8376,-4.7208,-4.6109,-4.5145,-4.475,-4.4615,-4.4615,-4.4615,-4.4615,-4.4615,-4.4615,-4.4615,-4.4615,-4.4615,-4.4615,-4.4615,-4.4615,-4.4615,-4.4615,-4.4615,-4.4615,-4.4615,-4.4615,-4.4615,-4.4615,-4.4615,-4.4615,-4.4468,-4.4047,-4.3393,-4.2831,-4.2426,-4.2141,-4.2078,-4.2458,-4.1836,-4.1525,-4.1901,-4.1327,-4.0922,-4.0922,-4.0681,-4.0489,-4.0489,-4.0489,-4.0489,-4.0489,-4.0924,-4.1601,-4.2602,-4.2971,-4.3618,-4.461,-4.461,-4.461,-4.461,-4.461,-4.461,-4.461,-4.461,-4.461,-4.461,-4.461,-4.461,-4.4687,-4.5326,-4.6234,-4.7321,-4.8683,-4.8934,-4.8687]},{"header":{"parameterUnit":"m.s-1","parameterCategory":1,"la1":30.6,"la2":28.766,"lo1":-90.7593,"lo2":-88.6598,"dy":0.0162,"dx":0.0183,"nx":116,"ny":114,"refTime":"2024-03-27T12:00:00:Z","depth":0,"parameterNumber":3,"parameterNumberName":"V-component_of_WINDS"},"data":[0.0,0.0,0.0,0.0,0.0,0.0,0.0,0.0,0.0,0.0,0.0,0.0,0.0,0.0,0.0,0.0,0.0,0.0,0.0,0.0,0.0,0.0,0.0,0.0,0.0,0.0,0.0,0.0,0.0,0.0,0.0,0.0,0.0,0.0,0.0,0.0,0.0,0.0,0.0,0.0,0.0,0.0,0.0,0.0,0.0,0.0,0.0,0.0,0.0,0.0,0.0,0.0,0.0,0.0,0.0,0.0,0.0,0.0,0.0,0.0,0.0,0.0,0.0,0.0,0.0,0.0,0.0,0.0,0.0,0.0,0.0,0.0,0.0,0.0,0.0,0.0,0.0,0.0,0.0,0.0,0.0,0.0,0.0,0.0,0.0,0.0,0.0,0.0,0.0,0.0,0.0,0.0,0.0,0.0,0.0,0.0,0.0,0.0,0.0,0.0,0.0,0.0,0.0,0.0,0.0,0.0,0.0,0.0,0.0,0.0,0.0,0.0,0.0,0.0,0.0,0.0,0.0,0.0,0.0,0.0,0.0,0.0,0.0,0.0,0.0,0.0,0.0,0.0,0.0,0.0,0.0,0.0,0.0,0.0,0.0,0.0,0.0,0.0,0.0,0.0,0.0,0.0,0.0,0.0,0.0,0.0,0.0,0.0,0.0,0.0,0.0,0.0,0.0,0.0,0.0,0.0,0.0,0.0,0.0,0.0,0.0,0.0,0.0,0.0,0.0,0.0,0.0,0.0,0.0,0.0,0.0,0.0,0.0,0.0,0.0,0.0,0.0,0.0,0.0,0.0,0.0,0.0,0.0,0.0,0.0,0.0,0.0,0.0,0.0,0.0,0.0,0.0,0.0,0.0,0.0,0.0,0.0,0.0,0.0,0.0,0.0,0.0,0.0,0.0,0.0,0.0,0.0,0.0,0.0,0.0,0.0,0.0,0.0,0.0,0.0,0.0,0.0,0.0,0.0,0.0,0.0,0.0,0.0,0.0,0.0,0.0,0.0,0.0,0.0,0.0,0.0,0.0,0.0,0.0,0.0,0.0,0.0,0.0,0.0,0.0,0.0,0.0,0.0,0.0,0.0,0.0,0.0,0.0,0.0,0.0,0.0,0.0,0.0,0.0,0.0,0.0,0.0,0.0,0.0,0.0,0.0,0.0,0.0,0.0,0.0,0.0,0.0,0.0,0.0,0.0,0.0,0.0,0.0,0.0,0.0,0.0,0.0,0.0,0.0,0.0,0.0,0.0,0.0,0.0,0.0,0.0,0.0,0.0,0.0,0.0,0.0,0.0,0.0,0.0,0.0,0.0,0.0,0.0,0.0,0.0,0.0,0.0,0.0,0.0,0.0,0.0,0.0,0.0,0.0,0.0,0.0,0.0,0.0,0.0,0.0,0.0,0.0,0.0,0.0,0.0,0.0,0.0,0.0,0.0,0.0,0.0,0.0,0.0,0.0,0.0,0.0,0.0,0.0,0.0,0.0,0.0,0.0,0.0,0.0,0.0,0.0,0.0,0.0,0.0,0.0,0.0,0.0,0.0,0.0,0.0,0.0,0.0,0.0,0.0,0.0,0.0,0.0,0.0,0.0,0.0,0.0,0.0,0.0,0.0,0.0,0.0,0.0,0.0,0.0,0.0,0.0,0.0,0.0,0.0,0.0,0.0,0.0,0.0,0.0,0.0,0.0,0.0,0.0,0.0,0.0,0.0,0.0,0.0,0.0,0.0,0.0,0.0,0.0,0.0,0.0,0.0,0.0,0.0,0.0,0.0,0.0,0.0,0.0,0.0,0.0,0.0,0.0,0.0,0.0,0.0,0.0,0.0,0.0,0.0,0.0,0.0,0.0,0.0,0.0,0.0,0.0,0.0,0.0,0.0,0.0,0.0,0.0,0.0,0.0,0.0,0.0,0.0,0.0,0.0,0.0,0.0,0.0,0.0,0.0,0.0,0.0,0.0,0.0,0.0,0.0,0.0,0.0,0.0,0.0,0.0,0.0,0.0,0.0,0.0,0.0,0.0,0.0,0.0,0.0,0.0,0.0,0.0,0.0,0.0,0.0,0.0,0.0,0.0,0.0,0.0,0.0,0.0,0.0,0.0,0.0,0.0,0.0,0.0,0.0,0.0,0.0,0.0,0.0,0.0,0.0,0.0,0.0,0.0,0.0,0.0,0.0,0.0,0.0,0.0,0.0,0.0,0.0,0.0,0.0,0.0,0.0,0.0,0.0,0.0,0.0,0.0,0.0,0.0,0.0,0.0,0.0,0.0,0.0,0.0,0.0,0.0,0.0,0.0,0.0,0.0,0.0,0.0,0.0,0.0,0.0,0.0,0.0,0.0,0.0,0.0,0.0,0.0,0.0,0.0,0.0,0.0,0.0,0.0,0.0,0.0,0.0,0.0,0.0,0.0,0.0,0.0,0.0,0.0,0.0,0.0,0.0,0.0,0.0,0.0,0.0,0.0,0.0,0.0,0.0,0.0,0.0,0.0,0.0,0.0,0.0,0.0,0.0,0.0,0.0,0.0,0.0,0.0,0.0,0.0,0.0,0.0,0.0,0.0,0.0,0.0,0.0,0.0,0.0,0.0,0.0,0.0,0.0,0.0,0.0,0.0,0.0,0.0,0.0,0.0,0.0,0.0,0.0,0.0,0.0,0.0,0.0,0.0,0.0,0.0,0.0,0.0,0.0,0.0,0.0,0.0,0.0,0.0,0.0,0.0,0.0,0.0,0.0,0.0,0.0,0.0,0.0,0.0,0.0,0.0,0.0,0.0,0.0,0.0,0.0,0.0,0.0,0.0,0.0,0.0,0.0,0.0,0.0,0.0,0.0,0.0,0.0,0.0,0.0,0.0,0.0,0.0,0.0,0.0,0.0,0.0,0.0,0.0,0.0,0.0,0.0,0.0,0.0,0.0,0.0,0.0,0.0,0.0,0.0,0.0,0.0,0.0,0.0,0.0,0.0,0.0,0.0,0.0,0.0,0.0,0.0,0.0,0.0,0.0,0.0,0.0,0.0,0.0,0.0,0.0,0.0,0.0,0.0,0.0,0.0,0.0,0.0,0.0,0.0,0.0,0.0,0.0,0.0,0.0,0.0,0.0,0.0,0.0,0.0,0.0,0.0,0.0,0.0,0.0,0.0,0.0,0.0,0.0,0.0,0.0,0.0,0.0,0.0,0.0,0.0,0.0,0.0,0.0,0.0,0.0,0.0,0.0,0.0,0.0,0.0,0.0,0.0,0.0,0.0,0.0,0.0,0.0,0.0,0.0,0.0,0.0,0.0,0.0,0.0,0.0,0.0,0.0,0.0,0.0,0.0,0.0,0.0,0.0,0.0,0.0,0.0,0.0,0.0,0.0,0.0,0.0,0.0,0.0,0.0,0.0,0.0,0.0,0.0,0.0,0.0,0.0,0.0,0.0,0.0,0.0,0.0,0.0,0.0,0.0,0.0,0.0,0.0,0.0,0.0,0.0,0.0,0.0,0.0,0.0,0.0,0.0,0.0,0.0,0.0,0.0,0.0,0.0,0.0,0.0,0.0,0.0,0.0,0.0,0.0,0.0,0.0,0.0,0.0,0.0,0.0,0.0,0.0,0.0,0.0,0.0,0.0,0.0,0.0,0.0,0.0,0.0,0.0,0.0,0.0,0.0,0.0,0.0,0.0,0.0,0.0,0.0,0.0,0.0,0.0,0.0,0.0,0.0,0.0,0.0,0.0,0.0,0.0,0.0,0.0,0.0,0.0,0.0,0.0,0.0,0.0,0.0,0.0,0.0,0.0,0.0,0.0,0.0,0.0,0.0,0.0,0.0,0.0,0.0,0.0,0.0,0.0,0.0,0.0,0.0,0.0,0.0,0.0,0.0,0.0,0.0,0.0,0.0,0.0,0.0,0.0,0.0,0.0,0.0,0.0,0.0,0.0,0.0,0.0,0.0,0.0,0.0,0.0,0.0,0.0,0.0,0.0,0.0,0.0,0.0,0.0,0.0,0.0,0.0,0.0,0.0,0.0,0.0,0.0,0.0,0.0,0.0,0.0,0.0,0.0,0.0,0.0,0.0,0.0,0.0,0.0,0.0,0.0,0.0,0.0,0.0,0.0,0.0,0.0,0.0,0.0,0.0,0.0,0.0,0.0,0.0,0.0,0.0,0.0,0.0,0.0,0.0,0.0,0.0,0.0,0.0,0.0,0.0,0.0,0.0,0.0,0.0,0.0,0.0,0.0,0.0,0.0,0.0,0.0,0.0,0.0,0.0,0.0,0.0,0.0,0.0,0.0,0.0,0.0,0.0,0.0,0.0,0.0,0.0,0.0,0.0,0.0,0.0,0.0,0.0,0.0,0.0,0.0,0.0,0.0,0.0,0.0,0.0,0.0,0.0,0.0,0.0,0.0,0.0,0.0,0.0,0.0,0.0,0.0,0.0,0.0,0.0,0.0,0.0,0.0,0.0,0.0,0.0,0.0,0.0,0.0,0.0,0.0,0.0,0.0,0.0,0.0,0.0,0.0,0.0,0.0,0.0,0.0,0.0,0.0,0.0,0.0,0.0,0.0,0.0,0.0,0.0,0.0,0.0,0.0,0.0,0.0,0.0,0.0,0.0,0.0,0.0,0.0,0.0,0.0,0.0,0.0,0.0,0.0,0.0,0.0,0.0,0.0,0.0,0.0,0.0,0.0,0.0,0.0,0.0,0.0,0.0,0.0,0.0,0.0,0.0,0.0,0.0,0.0,0.0,0.0,0.0,0.0,0.0,0.0,0.0,0.0,0.0,0.0,0.0,0.0,0.0,0.0,0.0,0.0,0.0,0.0,0.0,0.0,0.0,0.0,0.0,0.0,0.0,0.0,0.0,0.0,0.0,0.0,0.0,0.0,0.0,0.0,0.0,0.0,0.0,0.0,0.0,0.0,0.0,0.0,0.0,0.0,0.0,0.0,0.0,0.0,0.0,0.0,0.0,0.0,0.0,0.0,0.0,0.0,0.0,0.0,0.0,0.0,0.0,0.0,0.0,0.0,0.0,0.0,0.0,0.0,0.0,0.0,0.0,0.0,0.0,0.0,0.0,0.0,0.0,0.0,0.0,0.0,0.0,0.0,0.0,0.0,0.0,0.0,0.0,0.0,0.0,0.0,0.0,0.0,0.0,0.0,0.0,0.0,0.0,0.0,0.0,0.0,0.0,0.0,0.0,0.0,0.0,0.0,0.0,0.0,0.0,0.0,0.0,0.0,0.0,0.0,0.0,0.0,0.0,0.0,0.0,0.0,0.0,0.0,0.0,0.0,0.0,0.0,0.0,0.0,0.0,0.0,0.0,0.0,0.0,0.0,0.0,0.0,0.0,0.0,0.0,0.0,0.0,0.0,0.0,0.0,0.0,0.0,0.0,0.0,0.0,0.0,0.0,0.0,0.0,0.0,0.0,0.0,0.0,0.0,0.0,0.0,0.0,0.0,0.0,0.0,0.0,0.0,0.0,0.0,0.0,0.0,0.0,0.0,0.0,0.0,0.0,0.0,0.0,0.0,0.0,0.0,0.0,0.0,0.0,0.0,0.0,0.0,0.0,0.0,0.0,0.0,0.0,0.0,0.0,0.0,0.0,0.0,0.0,0.0,0.0,0.0,0.0,0.0,0.0,0.0,0.0,0.0,0.0,0.0,0.0,0.0,0.0,0.0,0.0,0.0,0.0,0.0,0.0,0.0,0.0,0.0,0.0,0.0,0.0,0.0,0.0,0.0,0.0,0.0,0.0,0.0,0.0,0.0,0.0,0.0,0.0,0.0,0.0,0.0,0.0,0.0,0.0,0.0,0.0,0.0,0.0,0.0,0.0,0.0,0.0,0.0,0.0,0.0,0.0,0.0,0.0,0.0,0.0,0.0,0.0,0.0,0.0,0.0,0.0,0.0,0.0,0.0,0.0,0.0,0.0,0.0,0.0,0.0,0.0,0.0,0.0,0.0,0.0,0.0,0.0,0.0,0.0,0.0,0.0,0.0,0.0,0.0,0.0,0.0,0.0,0.0,0.0,0.0,0.0,0.0,0.0,0.0,0.0,0.0,0.0,0.0,0.0,0.0,0.0,0.0,0.0,0.0,0.0,0.0,0.0,0.0,0.0,0.0,0.0,0.6119,0.0,0.0,0.0,0.0,0.0,0.0,0.0,0.0,0.0,0.0,0.0,0.0,0.0,0.0,0.0,0.0,0.0,0.0,0.0,0.0,0.0,0.0,0.0,0.0,0.0843,0.0742,0.064,0.0506,0.0404,0.0404,0.0,0.0,0.0,0.0,0.0,0.2989,0.3859,0.449,0.4888,0.5193,0.5473,0.5694,0.5688,0.5641,0.5603,0.0,0.0,0.0,0.0,0.0,0.0,0.0,0.0,0.0,0.0,0.0,0.0,0.0,0.0,0.0,0.0,0.0,0.0,0.0,0.0,0.0,0.0,0.0,0.0,0.0,0.0,0.0,0.0,0.0,0.0,0.0,0.0,0.0,0.0,0.0,0.0,0.0,0.0,0.0,0.0,0.0,0.0,0.0,0.0,0.0,0.0,0.0,0.0,0.0,0.0,0.0,0.0,0.0,0.0,0.0,0.0,0.0,0.0,0.0,0.0,0.0,0.0,0.0,0.0,0.0,0.0,0.0,0.0,0.0,0.0,0.0,0.6265,0.0,0.0,0.0,0.0,0.0,0.0,0.0,0.0,0.0,0.0,0.0,0.0,0.0,0.0,0.0,0.0,0.0,0.0,0.0,0.0,0.0,0.1043,0.1043,0.0909,0.0777,0.0781,0.0541,0.0371,0.0305,0.027,0.0,0.0,0.1677,0.2453,0.3113,0.4154,0.4832,0.5125,0.5538,0.5803,0.5925,0.6245,0.6242,0.5945,0.5658,0.0,0.0,0.0,0.0,0.0,0.0,0.0,0.0,0.0,0.0,0.0,0.0,0.0,0.0,0.0,0.0,0.0,0.0,0.0,0.0,0.0,0.0,0.0,0.0,0.0,0.0,0.0,0.0,0.0,0.0,0.0,0.0,0.0,0.0,0.0,0.0,0.0,0.0,0.0,0.0,0.0,0.0,0.0,0.0,0.0,0.0,0.0,0.0,0.0,0.0,0.0,0.0,0.0,0.0,0.0,0.0,0.0,0.0,0.0,0.0,0.0,0.0,0.0,0.0,0.6342,0.6246,0.6418,0.6529,0.6706,0.6541,0.6641,0.6771,0.0,0.0,0.0,0.0,0.0,0.0,0.0,0.0,0.0,0.0,0.0,0.0,0.0,0.0,0.0,0.0,0.0,0.0,0.0,0.0,0.0843,0.0843,0.0809,0.0748,0.0626,0.0683,0.0613,0.0313,0.0818,0.1109,0.1076,0.2313,0.322,0.3615,0.4479,0.5191,0.5704,0.615,0.6405,0.6426,0.6563,0.662,0.6563,0.6132,0.5905,0.5878,0.0,0.0,0.0,0.0,0.0,0.0,0.0,0.0,0.0,0.0,0.0,0.0,0.0,0.0,0.0,0.0,0.0,0.0,0.0,0.0,0.0,0.0,0.0,0.0,0.0,0.0,0.0,0.0,0.0,0.0,0.0,0.0,0.0,0.0,0.0,0.0,0.0,0.0,0.0,0.0,0.0,0.5505,0.5626,0.0,0.0,0.0,0.0,0.0,0.0,0.0,0.0,0.0,0.0,0.0,0.0,0.0,0.0,0.6132,0.6336,0.6381,0.6368,0.6738,0.6883,0.6869,0.704,0.7109,0.7133,0.6964,0.0,0.6798,0.6733,0.0,0.0,0.0,0.0,0.0,0.0,0.0,0.0,0.0,0.0,0.0,0.0,0.0,0.0,0.0,0.0,0.0,0.0,0.0,0.0,0.0,0.0861,0.0801,0.0786,0.0603,0.0668,0.1014,0.1211,0.1638,0.2417,0.3231,0.3895,0.4431,0.5098,0.568,0.62,0.6539,0.6685,0.6607,0.6841,0.6905,0.682,0.6583,0.6441,0.6254,0.5891,0.0,0.0,0.0,0.0,0.0,0.0,0.0,0.0,0.0,0.0,0.0,0.0,0.0,0.0,0.0,0.0,0.0,0.0,0.0,0.0,0.0,0.0,0.0,0.0,0.0,0.0,0.0,0.0,0.0,0.0,0.0,0.0,0.0,0.0,0.0,0.0,0.0,0.0,0.0,0.5382,0.5518,0.5667,0.5688,0.5688,0.0,0.0,0.0,0.0,0.0,0.0,0.0,0.0,0.0,0.6361,0.6429,0.6505,0.6589,0.6755,0.6809,0.6747,0.6907,0.6948,0.6885,0.7005,0.7114,0.7114,0.7128,0.7106,0.6983,0.6782,0.6616,0.6475,0.0,0.0,0.0,0.0,0.0,0.6317,0.0,0.0,0.0,0.0,0.0,0.0,0.0,0.0,0.0,0.0,0.0,0.0,0.1084,0.0987,0.093,0.0955,0.0695,0.0908,0.1764,0.1777,0.2384,0.3668,0.4166,0.4631,0.5194,0.5762,0.6224,0.6644,0.6909,0.7004,0.6936,0.7156,0.7159,0.7099,0.7061,0.6875,0.6569,0.6271,0.6017,0.5806,0.0,0.0,0.0,0.0,0.0,0.0,0.0,0.0,0.0,0.0,0.0,0.0,0.0,0.0,0.0,0.0,0.0,0.0,0.0,0.0,0.0,0.0,0.0,0.0,0.0,0.0,0.0,0.0,0.0,0.0,0.0,0.0,0.0,0.0,0.0,0.0,0.0,0.5466,0.5586,0.5798,0.5852,0.5871,0.0,0.0,0.0,0.0,0.0,0.0,0.6361,0.6358,0.6426,0.657,0.6665,0.6785,0.6937,0.7021,0.7021,0.694,0.697,0.6937,0.6853,0.6975,0.7029,0.7032,0.7141,0.7182,0.7188,0.6866,0.6774,0.6785,0.66,0.6446,0.6406,0.6468,0.6484,0.6564,0.0,0.0,0.0,0.0,0.0,0.0,0.0,0.0,0.0,0.0,0.0,0.1084,0.1086,0.1147,0.1176,0.1169,0.1183,0.1486,0.2289,0.283,0.3479,0.4311,0.5028,0.5534,0.574,0.6358,0.681,0.7061,0.7272,0.7421,0.7556,0.757,0.7573,0.756,0.7414,0.7183,0.6842,0.658,0.648,0.6429,0.5962,0.0,0.0,0.0,0.0,0.0,0.0,0.0,0.0,0.0,0.0,0.0,0.0,0.0,0.0,0.0,0.0,0.0,0.0,0.0,0.0,0.0,0.0,0.0,0.0,0.0,0.0,0.0,0.0,0.0,0.0,0.0,0.0,0.0,0.0,0.0,0.0,0.0,0.0,0.6053,0.617,0.0,0.0,0.0,0.0,0.6309,0.632,0.6372,0.6589,0.66,0.6711,0.695,0.6964,0.6915,0.6812,0.6817,0.6817,0.6815,0.6929,0.6983,0.698,0.715,0.7202,0.7196,0.7037,0.7109,0.721,0.7191,0.6999,0.6801,0.6787,0.6646,0.6427,0.6703,0.6785,0.6817,0.0,0.0,0.0,0.0,0.0,0.0975,0.0986,0.1029,0.1065,0.1108,0.1102,0.1128,0.1149,0.1067,0.1245,0.1778,0.1729,0.2254,0.3663,0.394,0.4442,0.5389,0.5811,0.6224,0.6607,0.6953,0.7231,0.7434,0.7492,0.7546,0.76,0.76,0.76,0.7597,0.7543,0.7458,0.7339,0.7034,0.6793,0.6607,0.6444,0.6176,0.0,0.0,0.0,0.0,0.0,0.0,0.0,0.0,0.0,0.0,0.0,0.0,0.0,0.0,0.0,0.0,0.0,0.0,0.0,0.0,0.0,0.0,0.0,0.0,0.0,0.0,0.0,0.0,0.0,0.0,0.0,0.0,0.0,0.0,0.0,0.0,0.0,0.6081,0.6195,0.0,0.6159,0.6361,0.6494,0.6494,0.6709,0.6898,0.6855,0.6855,0.6858,0.6866,0.6945,0.6964,0.6921,0.6991,0.7084,0.7084,0.7128,0.7135,0.7211,0.7252,0.7271,0.7269,0.7228,0.719,0.721,0.721,0.7161,0.7084,0.7084,0.6978,0.6912,0.6997,0.7084,0.7095,0.0,0.0,0.0,0.0,0.0947,0.0988,0.0988,0.1071,0.1113,0.1089,0.1117,0.1148,0.1179,0.1369,0.1755,0.2336,0.2556,0.3315,0.4826,0.4865,0.5273,0.6177,0.6356,0.6664,0.7207,0.7319,0.7468,0.7672,0.7723,0.7773,0.7824,0.7824,0.7824,0.7824,0.777,0.7719,0.7658,0.7451,0.7197,0.6922,0.6868,0.658,0.6162,0.0,0.0,0.0,0.0,0.0,0.0,0.0,0.0,0.0,0.0,0.0,0.0,0.0,0.0,0.0,0.0,0.0,0.0,0.0,0.0,0.0,0.0,0.0,0.0,0.0,0.0,0.0,0.0,0.0,0.0,0.0,0.0,0.0,0.0,0.0,0.6225,0.6225,0.6506,0.6602,0.6274,0.6757,0.695,0.6741,0.7069,0.7172,0.6989,0.6986,0.6967,0.6921,0.6999,0.7043,0.7043,0.7172,0.721,0.721,0.7195,0.7258,0.728,0.732,0.7339,0.7339,0.7339,0.7353,0.7277,0.7277,0.7252,0.7211,0.7226,0.721,0.721,0.721,0.721,0.721,0.0,0.0,0.0,0.0926,0.0947,0.0988,0.0988,0.1071,0.1087,0.1117,0.1147,0.1215,0.1246,0.2131,0.2717,0.2756,0.3684,0.4655,0.5655,0.5594,0.5904,0.667,0.6725,0.6939,0.7419,0.7436,0.7536,0.7824,0.7924,0.8126,0.833,0.833,0.833,0.8323,0.8116,0.7914,0.7824,0.7821,0.7651,0.7415,0.721,0.6888,0.6525,0.0,0.0,0.0,0.0,0.0,0.0,0.0,0.0,0.0,0.0,0.0,0.0,0.0,0.0,0.0,0.0,0.0,0.0,0.0,0.0,0.0,0.0,0.0,0.0,0.0,0.0,0.0,0.0,0.0,0.0,0.0,0.0,0.0,0.6749,0.6622,0.6523,0.6523,0.7108,0.7298,0.6676,0.7367,0.7627,0.704,0.7257,0.7257,0.7043,0.6991,0.704,0.7207,0.721,0.7213,0.7215,0.7215,0.7218,0.7224,0.7285,0.7285,0.7293,0.747,0.7524,0.7524,0.7524,0.7524,0.7519,0.7519,0.7448,0.7271,0.7209,0.7213,0.721,0.721,0.721,0.721,0.0,0.0,0.1066,0.0926,0.0947,0.0988,0.0988,0.1071,0.1087,0.1117,0.1147,0.1435,0.2075,0.2485,0.3201,0.4416,0.4879,0.5499,0.6376,0.6386,0.6541,0.6967,0.7333,0.7563,0.7689,0.7797,0.795,0.8147,0.8187,0.8282,0.8425,0.8425,0.8425,0.8418,0.8272,0.8184,0.8136,0.8024,0.7865,0.7668,0.7411,0.7234,0.7129,0.0,0.0,0.0,0.0,0.0,0.0,0.0,0.0,0.0,0.0,0.0,0.0,0.0,0.0,0.0,0.0,0.0,0.0,0.0,0.0,0.0,0.0,0.0,0.0,0.0,0.0,0.0,0.0,0.0,0.0,0.0,0.0,0.6863,0.6923,0.7106,0.7228,0.7228,0.7464,0.7596,0.7436,0.7478,0.7468,0.7305,0.7278,0.7216,0.7163,0.7163,0.7177,0.721,0.721,0.7195,0.7285,0.7285,0.7331,0.7418,0.7453,0.7513,0.7603,0.7635,0.7652,0.7652,0.7652,0.76,0.7519,0.7519,0.75,0.7456,0.7334,0.7233,0.721,0.721,0.721,0.721,0.0,0.1291,0.1155,0.1057,0.1076,0.1116,0.1129,0.1437,0.167,0.1771,0.1984,0.2398,0.2979,0.3448,0.4189,0.5254,0.5785,0.6307,0.6839,0.6885,0.7044,0.7358,0.7614,0.778,0.7902,0.8058,0.818,0.8323,0.8394,0.8496,0.8577,0.8577,0.8577,0.8567,0.8364,0.8323,0.831,0.8106,0.7938,0.7885,0.7651,0.7482,0.7381,0.701,0.6848,0.6766,0.6529,0.6346,0.622,0.6289,0.0,0.0,0.0,0.0,0.0,0.0,0.0,0.0,0.0,0.0,0.0,0.0,0.0,0.0,0.0,0.0,0.0,0.0,0.0,0.0,0.0,0.0,0.0,0.0,0.7308,0.7453,0.7434,0.7558,0.767,0.7729,0.7967,0.8052,0.7783,0.7906,0.7929,0.7655,0.7723,0.7709,0.7546,0.7543,0.7513,0.7452,0.7452,0.7457,0.7413,0.7413,0.7448,0.7519,0.757,0.7633,0.7703,0.775,0.7771,0.0,0.7771,0.7733,0.7665,0.7665,0.7638,0.0,0.0,0.0,0.0,0.0,0.723,0.7222,0.0,0.157,0.1389,0.1407,0.1391,0.1434,0.1506,0.2076,0.2567,0.2748,0.3201,0.3593,0.3889,0.4723,0.5322,0.5579,0.6417,0.697,0.7112,0.7152,0.7348,0.7794,0.7706,0.778,0.8008,0.8201,0.8337,0.8319,0.8581,0.872,0.8737,0.8737,0.8737,0.8723,0.8445,0.8364,0.8286,0.813,0.8005,0.7978,0.7892,0.7682,0.7428,0.7258,0.7071,0.694,0.6831,0.6668,0.6545,0.6419,0.0,0.0,0.0,0.0,0.0,0.0,0.0,0.0,0.0,0.0,0.0,0.0,0.0,0.0,0.0,0.0,0.0,0.0,0.0,0.0,0.0,0.0,0.0,0.0,0.7779,0.8357,0.8096,0.8024,0.805,0.818,0.8485,0.8517,0.8081,0.8526,0.8657,0.81,0.8318,0.8328,0.8066,0.0,0.0,0.0,0.0,0.7815,0.7655,0.7655,0.7663,0.7677,0.7728,0.7782,0.7785,0.7886,0.7872,0.7872,0.7872,0.7872,0.7872,0.7872,0.7812,0.7706,0.7573,0.7519,0.7505,0.7339,0.7298,0.0,0.0,0.2322,0.2151,0.2512,0.2323,0.2271,0.275,0.2962,0.3112,0.3323,0.3453,0.3817,0.4665,0.5154,0.5665,0.6236,0.6786,0.7119,0.7316,0.755,0.7719,0.7807,0.7902,0.8041,0.8221,0.8255,0.8387,0.8625,0.8682,0.8774,0.8841,0.8841,0.8841,0.8831,0.8706,0.8557,0.8431,0.8289,0.8153,0.7988,0.7958,0.7911,0.7833,0.7614,0.7495,0.7451,0.7295,0.7068,0.6834,0.681,0.6634,0.6467,0.6436,0.6347,0.0,0.0,0.0,0.0,0.0,0.0,0.0,0.0,0.0,0.0,0.0,0.0,0.0,0.0,0.0,0.0,0.0,0.0,0.0,0.7934,0.8046,0.818,0.8537,0.8551,0.8581,0.8558,0.8747,0.8838,0.8728,0.864,0.8543,0.8429,0.8211,0.8149,0.8263,0.8269,0.0,0.8341,0.8347,0.8411,0.8491,0.8491,0.8546,0.8657,0.0,0.0,0.8274,0.7986,0.7872,0.7872,0.7872,0.7872,0.7872,0.7872,0.7858,0.7818,0.7603,0.7519,0.7516,0.7491,0.7483,0.7464,0.0,0.3128,0.2671,0.2983,0.2895,0.2876,0.3292,0.3652,0.3946,0.4114,0.4384,0.4773,0.5327,0.5542,0.5847,0.6359,0.6776,0.7129,0.7402,0.758,0.777,0.7919,0.8072,0.8191,0.832,0.8414,0.8564,0.871,0.8788,0.8807,0.8885,0.8885,0.8885,0.8875,0.8777,0.8669,0.8581,0.8364,0.8225,0.8147,0.8022,0.7988,0.7965,0.779,0.7662,0.758,0.7424,0.718,0.6886,0.6886,0.6776,0.6586,0.6586,0.6536,0.6437,0.0,0.0,0.0,0.0,0.0,0.0,0.0,0.0,0.0,0.0,0.0,0.0,0.0,0.0,0.7302,0.7458,0.0,0.7896,0.8119,0.8343,0.8487,0.8689,0.8777,0.8825,0.8825,0.8838,0.8885,0.8885,0.8768,0.8712,0.8712,0.8664,0.8626,0.8757,0.8829,0.8817,0.8775,0.8778,0.8788,0.8811,0.8811,0.8848,0.8915,0.8732,0.8674,0.8674,0.8485,0.8424,0.8424,0.8424,0.8302,0.8119,0.7994,0.7872,0.7858,0.7741,0.7695,0.7687,0.763,0.7611,0.7592,0.0,0.3962,0.3308,0.3502,0.3447,0.3516,0.3822,0.4359,0.4809,0.4945,0.5344,0.5644,0.5786,0.5827,0.5969,0.6313,0.6658,0.701,0.7309,0.7522,0.7746,0.7934,0.817,0.8333,0.8364,0.8574,0.8723,0.8754,0.8824,0.8885,0.8885,0.8885,0.8885,0.8878,0.8811,0.872,0.8652,0.8414,0.8279,0.8214,0.8089,0.7988,0.7971,0.7868,0.7723,0.7587,0.7492,0.7268,0.7017,0.7017,0.6912,0.678,0.6753,0.6746,0.6692,0.6463,0.6487,0.0,0.0,0.0,0.0,0.0,0.0,0.0,0.0,0.0,0.7071,0.723,0.7414,0.7519,0.7624,0.8013,0.8258,0.8167,0.8544,0.8807,0.8767,0.8807,0.8885,0.8885,0.8885,0.8885,0.8885,0.8885,0.8895,0.8977,0.9086,0.9234,0.9296,0.9357,0.9375,0.9218,0.9221,0.9159,0.9095,0.9098,0.9098,0.9098,0.9034,0.8976,0.8976,0.8915,0.8915,0.8915,0.8915,0.8732,0.8491,0.8119,0.7994,0.7994,0.7933,0.7872,0.7858,0.7769,0.7733,0.7717,0.0,0.477,0.4533,0.4683,0.436,0.432,0.5081,0.5263,0.5349,0.55,0.5555,0.5644,0.5786,0.5922,0.6125,0.6463,0.6617,0.6851,0.7102,0.7556,0.7801,0.7834,0.8116,0.8381,0.8455,0.8625,0.8777,0.8858,0.8875,0.8885,0.8885,0.8885,0.8885,0.8885,0.8865,0.876,0.8506,0.8472,0.8306,0.8015,0.7995,0.7988,0.7971,0.7868,0.7723,0.7614,0.7723,0.7573,0.7322,0.7322,0.7217,0.7024,0.69,0.6859,0.6829,0.6702,0.6759,0.6844,0.6695,0.6773,0.6893,0.7014,0.6967,0.7055,0.0,0.0,0.7441,0.7803,0.7904,0.8045,0.8309,0.8309,0.8394,0.8723,0.8781,0.8777,0.8841,0.8871,0.8885,0.8885,0.8885,0.8885,0.8885,0.8885,0.8991,0.9176,0.92,0.933,0.9544,0.9574,0.9649,0.9731,0.9734,0.9744,0.97,0.97,0.97,0.97,0.9396,0.9275,0.9275,0.9034,0.8915,0.8915,0.8915,0.8854,0.8793,0.8491,0.8369,0.8308,0.7994,0.7872,0.7869,0.7856,0.7853,0.7837,0.0,0.0,0.4839,0.4898,0.4736,0.4796,0.5315,0.5395,0.5419,0.5484,0.5491,0.5515,0.5573,0.5681,0.5823,0.5949,0.6296,0.6569,0.6865,0.7176,0.7536,0.7801,0.8018,0.8208,0.8357,0.8503,0.8652,0.8804,0.8804,0.8852,0.8885,0.8885,0.8885,0.8878,0.879,0.8733,0.8604,0.8431,0.8289,0.8167,0.8025,0.7938,0.7909,0.7884,0.7746,0.7475,0.7533,0.7475,0.0,0.7265,0.7139,0.6964,0.6906,0.6825,0.6783,0.6719,0.681,0.6927,0.717,0.7268,0.7312,0.7282,0.736,0.7478,0.7617,0.7638,0.7706,0.7934,0.8109,0.8211,0.8336,0.8448,0.8587,0.0,0.8825,0.8811,0.8875,0.8885,0.8967,0.9052,0.9062,0.9028,0.8892,0.8885,0.8998,0.92,0.9292,0.9381,0.9598,0.9686,0.9758,0.9819,0.9822,0.9822,0.9822,0.9822,0.9822,0.9822,0.964,0.9579,0.9579,0.9457,0.9396,0.94,0.9217,0.9156,0.9095,0.8793,0.8671,0.8671,0.8546,0.8363,0.8183,0.7994,0.7872,0.7864,0.0,0.0,0.0,0.4955,0.4965,0.5033,0.5293,0.5368,0.5395,0.5395,0.5395,0.5395,0.5395,0.5494,0.5545,0.5586,0.5962,0.6305,0.6563,0.6932,0.724,0.7611,0.7843,0.8092,0.8204,0.8387,0.8537,0.8648,0.8648,0.8703,0.8811,0.8811,0.8811,0.8808,0.8696,0.8625,0.8574,0.8364,0.8272,0.8133,0.8021,0.7909,0.7814,0.7845,0.7682,0.7434,0.7434,0.738,0.7292,0.7132,0.7004,0.6886,0.6886,0.6824,0.6709,0.6753,0.6868,0.7014,0.7383,0.7533,0.7573,0.7461,0.7624,0.7767,0.7594,0.7689,0.7868,0.8062,0.8194,0.8347,0.8377,0.8567,0.8723,0.8767,0.8811,0.8885,0.8885,0.8885,0.8991,0.919,0.921,0.913,0.9066,0.9022,0.9076,0.9323,0.9344,0.9466,0.9656,0.9764,0.9822,0.9822,0.9822,0.9822,0.9822,0.9822,0.9822,0.9822,0.9822,0.9822,0.9822,0.9822,0.9822,0.9761,0.9518,0.9457,0.9396,0.9156,0.9037,0.8973,0.8915,0.8732,0.8491,0.8241,0.8055,0.7872,0.0,0.0,0.0,0.0,0.5106,0.5085,0.5114,0.5267,0.5395,0.5395,0.5395,0.5395,0.5395,0.5399,0.5463,0.5579,0.5864,0.6105,0.6303,0.6817,0.7102,0.7115,0.7678,0.7992,0.7995,0.8333,0.8482,0.8489,0.8489,0.8489,0.8496,0.8496,0.8496,0.8496,0.8489,0.8414,0.8333,0.8327,0.8099,0.7824,0.7821,0.7814,0.778,0.7499,0.7475,0.7594,0.7594,0.74,0.7102,0.7098,0.7004,0.6886,0.6886,0.6824,0.6729,0.6836,0.6977,0.7092,0.7105,0.7373,0.7597,0.7594,0.7702,0.7848,0.7938,0.7913,0.7899,0.8201,0.832,0.836,0.8645,0.8706,0.876,0.8851,0.8878,0.8885,0.8885,0.8885,0.8991,0.919,0.921,0.9265,0.0,0.9289,0.9326,0.9571,0.9462,0.9507,0.9798,0.9819,0.9822,0.9822,0.9822,0.9822,0.9822,0.9822,0.9822,0.9822,0.9822,0.9822,0.9822,0.9822,0.9822,0.9822,0.9761,0.9761,0.9761,0.9396,0.9275,0.9278,0.8973,0.8915,0.8854,0.8854,0.8485,0.7872,0.0,0.0,0.0,0.0,0.0,0.5107,0.5098,0.5264,0.5395,0.5395,0.5395,0.0,0.0,0.0,0.0,0.0,0.5623,0.5844,0.6091,0.639,0.6732,0.7078,0.7287,0.7493,0.7743,0.7845,0.7943,0.8038,0.8038,0.814,0.8391,0.8391,0.8391,0.8472,0.8275,0.816,0.8102,0.7909,0.7767,0.7672,0.7672,0.755,0.7331,0.7482,0.7309,0.7017,0.0,0.7045,0.6943,0.6885,0.6817,0.6776,0.6776,0.6671,0.658,0.6732,0.6881,0.7021,0.7363,0.7519,0.7624,0.7716,0.7851,0.7901,0.7899,0.7877,0.8021,0.8228,0.8323,0.833,0.8523,0.8642,0.8726,0.8777,0.8817,0.8885,0.8885,0.8885,0.9028,0.9276,0.9361,0.0,0.0,0.0,0.0,0.9595,0.9561,0.9615,0.9812,0.9822,0.9822,0.9822,0.9822,0.9822,0.9822,0.9822,0.9822,0.9822,0.9822,0.9822,0.9822,0.9822,0.9822,0.9822,0.9822,0.9822,0.9822,0.97,0.964,0.964,0.9518,0.9335,0.9156,0.9156,0.8912,0.8546,0.0,0.0,0.0,0.0,0.0,0.0,0.0,0.0,0.0,0.0,0.0,0.0,0.0,0.0,0.0,0.0,0.0,0.5671,0.5861,0.6064,0.6373,0.6807,0.6926,0.7102,0.7353,0.7411,0.7509,0.7655,0.7655,0.7784,0.8031,0.8031,0.8079,0.816,0.7967,0.7833,0.7868,0.7621,0.7609,0.7784,0.7626,0.7583,0.7595,0.7513,0.7255,0.0,0.6791,0.6732,0.6675,0.6576,0.6542,0.6542,0.6542,0.6549,0.6583,0.6736,0.6929,0.7173,0.7567,0.7675,0.7709,0.7855,0.7917,0.7965,0.7916,0.8011,0.8167,0.8316,0.8347,0.8391,0.8537,0.8645,0.871,0.871,0.8838,0.8885,0.8885,0.8885,0.9049,0.9347,0.9381,0.9496,0.0,0.0,0.0,0.9676,0.9639,0.9673,0.9815,0.9822,0.9822,0.9822,0.9822,0.9822,0.9822,0.9822,0.9822,0.9822,0.9822,0.9822,0.9822,0.9822,0.9822,0.9822,0.9822,0.9822,0.9822,0.9822,0.9822,0.9822,0.9822,0.964,0.9457,0.9457,0.9278,0.8973,0.0,0.0,0.0,0.0,0.0,0.0,0.0,0.0,0.0,0.0,0.0,0.0,0.0,0.0,0.0,0.0,0.0,0.0,0.5589,0.585,0.6081,0.6279,0.6519,0.6736,0.6849,0.6991,0.7177,0.7371,0.7378,0.7414,0.7567,0.7567,0.7617,0.7624,0.7613,0.761,0.76,0.7492,0.7695,0.8065,0.7667,0.7892,0.8396,0.7605,0.7312,0.7237,0.6724,0.6458,0.63,0.63,0.6306,0.6313,0.633,0.6488,0.6746,0.6905,0.7149,0.7438,0.7729,0.7811,0.7848,0.7951,0.7988,0.7988,0.7988,0.8153,0.8296,0.8431,0.8455,0.8492,0.0,0.0,0.8686,0.8686,0.8828,0.8885,0.8885,0.8885,0.9049,0.0,0.0,0.0,0.0,0.0,0.0,1.0061,0.0,0.9736,0.9872,0.9819,0.9822,0.9822,0.9822,0.9822,0.9822,0.9822,0.9822,0.9822,0.9822,0.9822,0.9822,0.9822,0.9822,0.9822,0.9822,0.9822,0.9822,0.9822,0.9822,0.9822,0.9822,0.9822,0.9822,0.9822,0.9579,0.9275,0.0,0.0,0.0,0.0,0.0,0.0,0.0,0.0,0.0,0.0,0.0,0.0,0.0,0.0,0.0,0.0,0.0,0.0,0.5583,0.5661,0.5817,0.6078,0.6159,0.6274,0.6467,0.6569,0.6661,0.6743,0.6817,0.6949,0.7099,0.7399,0.7591,0.7748,0.7937,0.8059,0.8043,0.787,0.7835,0.7954,0.7822,0.7826,0.7885,0.7794,0.7531,0.7203,0.72,0.6888,0.6486,0.6335,0.6371,0.6497,0.6685,0.681,0.6922,0.7183,0.7312,0.7438,0.7729,0.7811,0.7848,0.7951,0.7988,0.7988,0.7988,0.8019,0.8109,0.8096,0.8062,0.7994,0.0,0.0,0.0,0.8384,0.8696,0.0,0.8885,0.8885,0.0,0.9347,0.0,0.9907,1.1117,1.1511,0.0,0.0,1.1767,1.1166,1.1205,1.0304,0.9822,0.9822,0.9822,0.9822,0.9822,0.9822,0.9822,0.9822,0.9822,0.9822,0.9822,0.9822,0.9822,0.9822,0.9822,0.9822,0.9822,0.9822,0.9822,0.9822,0.9822,0.9822,0.9822,0.9822,0.9761,0.964,0.0,0.0,0.0,0.0,0.0,0.0,0.0,0.0,0.0,0.0,0.0,0.0,0.0,0.0,0.0,0.0,0.0,0.0,0.0,0.5586,0.5831,0.6363,0.641,0.6485,0.6648,0.6885,0.6813,0.643,0.6736,0.6808,0.6729,0.721,0.7462,0.759,0.7916,0.8082,0.8066,0.7889,0.7984,0.0,0.0,0.8087,0.8233,0.8051,0.7816,0.7577,0.7364,0.7034,0.6677,0.6626,0.6585,0.6603,0.6773,0.6873,0.7024,0.7302,0.7461,0.7614,0.7848,0.7913,0.7884,0.7968,0.7988,0.7971,0.7907,0.7941,0.7971,0.7904,0.7872,0.7811,0.7811,0.8062,0.0,0.0,0.0,0.0,0.8885,0.8885,0.9049,0.0,0.9896,0.0,1.1423,1.2579,1.3528,0.0,1.2722,1.1692,1.1692,1.0482,0.9822,0.9822,0.9822,0.9822,0.9822,0.9822,0.9822,0.9822,0.9822,0.9822,0.9822,0.9822,0.9822,0.9822,0.0,0.9822,0.9822,0.9822,0.9822,0.9822,0.9822,0.9822,0.9822,0.9822,0.9822,0.9822,0.0,0.0,0.0,0.0,0.0,0.0,0.0,0.0,0.0,0.0,0.6119,0.0,0.0,0.0,0.0,0.0,0.0,0.0,0.0,0.0,0.0,0.6946,0.6954,0.7026,0.7144,0.751,0.7281,0.6404,0.6922,0.6968,0.6615,0.7141,0.7424,0.742,0.7821,0.802,0.8008,0.79,0.8129,0.8567,0.8316,0.8513,0.8885,0.0,0.0,0.8063,0.745,0.7098,0.6903,0.6973,0.6874,0.6739,0.6776,0.698,0.7186,0.7383,0.7624,0.7872,0.7955,0.7988,0.7988,0.7988,0.7988,0.7948,0.7845,0.7913,0.7911,0.7787,0.7753,0.7746,0.7726,0.7991,0.8214,0.8238,0.0,0.8861,0.8878,0.8885,0.9105,0.9575,1.064,1.145,1.1804,1.3898,1.5315,1.5462,1.3428,1.2109,1.1989,1.0725,1.0001,0.9822,0.9822,0.9822,0.9822,0.9822,0.9822,0.9822,0.9822,0.9822,0.9822,0.9822,0.9822,0.9822,0.0,0.0,0.9822,0.9822,0.9822,0.9822,0.9822,0.9822,0.9822,0.9822,0.9822,0.9822,0.0,0.0,0.0,0.0,0.0,0.0,0.0,0.0,0.0,0.0,0.7284,0.6605,0.0,0.0,0.0,0.0,0.0,0.0,0.0,0.0,0.0,0.0,0.7311,0.7329,0.7361,0.7589,0.7488,0.0,0.0,0.7418,0.7092,0.7693,0.797,0.797,0.8387,0.8576,0.8576,0.8539,0.8587,0.8687,0.8617,0.8651,0.8755,0.0,0.0,0.0,0.7676,0.7403,0.7253,0.7051,0.6947,0.6932,0.7177,0.7377,0.755,0.7692,0.7862,0.7958,0.7982,0.7988,0.7988,0.7988,0.7988,0.7948,0.7845,0.7831,0.0,0.7502,0.7448,0.7407,0.7233,0.7604,0.7933,0.8008,0.8455,0.8794,0.8865,0.8885,0.9433,0.0,1.115,1.2143,1.4323,0.0,0.0,0.0,0.0,0.0,1.3426,1.2109,1.0906,0.9819,0.9822,0.9822,0.9822,0.9822,0.9822,0.9822,0.9822,0.9822,0.9822,0.9822,0.9822,0.9822,0.0,0.0,0.9822,0.9822,0.9822,0.9822,0.9822,0.9822,0.9822,0.9822,0.9822,0.9822,0.0,0.0,0.0,0.0,0.0,0.0,0.0,0.9684,0.9562,0.923,0.8788,0.8159,0.7171,0.7125,0.7158,0.0,0.0,0.0,0.0,0.0,0.0,0.0,0.0,0.0,0.0,0.0,0.0,0.0,0.0,0.0,0.0,0.0,0.0,0.0,0.0,0.0,0.0,0.8703,0.8703,0.0,0.0,0.0,0.0,0.0,0.0,0.0,0.0,0.7793,0.7525,0.7281,0.7148,0.7106,0.7323,0.7478,0.7628,0.777,0.787,0.7988,0.7988,0.7988,0.7988,0.7988,0.7988,0.7931,0.7753,0.0,0.0,0.7312,0.7344,0.7368,0.7156,0.7448,0.775,0.7896,0.8299,0.8645,0.8798,0.8834,0.9489,1.111,1.1893,1.3017,0.0,0.0,0.0,0.0,0.0,0.0,1.4733,1.3426,1.2466,1.1864,1.1804,1.1804,1.1804,1.1144,1.0785,1.0785,1.0122,0.9822,0.9822,0.9822,0.9822,0.9822,0.9822,0.0,0.9822,0.9822,0.9822,0.9822,0.9822,0.9822,0.9822,0.9822,0.9822,0.9822,0.0,0.0,0.0,0.0,0.0,0.0,1.0593,1.0513,1.036,1.0091,1.0118,0.9706,0.8483,0.8103,0.7924,0.0,0.0,0.0,0.0,0.0,0.0,0.0,0.0,0.0,0.0,0.0,0.0,0.0,0.0,0.0,0.0,0.0,0.0,0.0,0.0,0.0,0.0,0.0,0.0,0.0,0.0,0.0,0.0,0.0,0.0,0.0,0.0,0.8117,0.7699,0.7537,0.7323,0.7218,0.7358,0.7492,0.7617,0.7682,0.7848,0.805,0.8031,0.7988,0.7988,0.7988,0.7988,0.7963,0.7712,0.7782,0.7784,0.7337,0.7411,0.7415,0.7231,0.7412,0.7701,0.0,0.8287,0.8724,0.9105,0.9243,0.999,0.0,1.2946,0.0,1.5101,0.0,0.0,0.0,0.0,0.0,1.5682,1.4381,1.3725,1.3725,1.3725,1.3725,1.3725,1.2651,1.2109,1.2113,1.1084,1.0482,1.0183,1.0183,1.0061,0.9822,0.9822,0.0,0.0,0.9822,0.9822,0.9822,0.9822,0.9822,0.9822,0.9822,0.9822,0.9822,0.0,0.0,0.0,0.0,0.0,0.0,1.0593,1.0788,1.0916,1.0883,1.0745,1.058,1.0455,1.0019,0.9652,0.0,0.0,0.0,0.0,0.0,0.0,0.0,0.0,0.0,0.0,0.0,0.0,0.0,0.0,0.0,0.0,0.0,0.0,0.0,0.0,0.0,0.0,0.0,0.0,0.0,0.0,0.0,0.0,0.0,0.0,0.0,0.0,0.8144,0.7799,0.7695,0.7417,0.7134,0.7412,0.7595,0.7664,0.7499,0.0,0.0,0.8054,0.7988,0.7988,0.7988,0.7988,0.796,0.7898,0.0,0.788,0.7834,0.7635,0.7507,0.7462,0.7593,0.7806,0.811,0.8512,0.9193,1.0449,1.0642,1.154,1.399,0.0,0.0,0.0,0.0,0.0,0.0,0.0,0.0,0.0,1.4381,1.3725,1.3725,1.3725,1.3725,1.3725,1.3605,1.3545,1.3485,1.3426,1.2706,1.1511,1.1511,1.0906,0.9822,0.0,0.0,0.0,0.9822,0.9822,0.9822,0.9822,0.9822,0.9822,0.9822,0.9822,0.9822,0.0,0.0,0.0,0.0,0.0,0.0,1.0593,1.0687,1.0767,1.0767,1.0817,1.083,1.0652,1.0621,1.0378,0.9842,0.0,0.0,0.0,0.0,0.0,0.0,0.0,0.0,0.0,0.0,1.0047,1.0168,0.0,0.0,0.0,0.0,0.0,0.0,0.0,0.0,0.0,0.0,0.0,0.0,0.0,0.0,0.0,0.0,0.0,0.0,0.0,0.0,0.7957,0.7798,0.7545,0.7282,0.7188,0.7383,0.7686,0.0,0.7872,0.8023,0.8023,0.7988,0.7988,0.7988,0.8072,0.8098,0.7925,0.0,0.8128,0.7945,0.7896,0.7896,0.7768,0.8122,0.8407,0.8291,0.9244,1.0096,1.039,1.1063,1.2219,1.4103,1.4749,0.0,0.0,0.0,0.0,0.0,0.0,0.0,0.0,1.629,1.5989,1.5989,1.5989,1.5989,1.5989,1.5213,1.4857,1.4857,1.4083,1.3426,1.2886,1.2886,1.2646,1.2165,0.0,0.0,0.0,1.2165,1.1687,1.0967,1.0967,1.0486,0.9822,0.9822,0.9822,0.9822,0.0,0.0,0.0,0.0,0.0,1.0593,1.0593,1.0667,1.072,1.072,1.0868,1.0915,1.0747,1.0827,1.0685,1.0225,1.0174,0.0,0.0,0.0,0.0,0.0,0.0,0.0,0.0,0.0,1.0333,1.0593,1.0072,1.0157,0.0,0.0,0.0,0.0,0.0,0.0,0.0,0.0,0.0,0.0,0.0,0.0,0.0,0.0,0.0,0.0,0.0,0.0,0.0,0.0,0.0,0.7383,0.7134,0.734,0.7663,0.7767,0.7869,0.7959,0.7983,0.794,0.7924,0.7924,0.8007,0.8108,0.0,0.0,0.8324,0.8155,0.816,0.8201,0.8285,0.8675,0.9013,0.9061,1.0117,1.0991,1.117,1.1896,1.2955,0.0,0.0,0.0,0.0,0.0,0.0,0.0,0.0,0.0,0.0,1.7485,1.7485,1.7485,1.7485,1.7485,1.7485,1.6585,1.6166,1.6166,1.5273,1.4619,1.4262,1.4262,1.4083,0.0,0.0,0.0,0.0,1.3725,1.3126,1.229,1.229,1.1507,1.0365,1.0365,1.0122,0.9822,0.0,0.0,0.0,0.0,0.0,0.0,1.0593,1.0841,1.0989,1.0989,1.0989,1.0995,1.0989,1.0767,1.0593,1.0593,1.0593,0.0,0.0,0.0,0.0,0.0,0.0,0.0,0.0,0.0,1.0593,1.0593,1.0593,1.0855,1.1389,1.1183,1.142,0.0,0.0,0.0,0.0,0.0,0.0,0.0,0.0,0.0,1.0481,0.0,0.0,0.0,0.0,0.0,0.0,0.0,0.0,0.0,0.0,0.7484,0.7516,0.759,0.7801,0.8002,0.793,0.7845,0.7814,0.7814,0.7845,0.7969,0.8247,0.8352,0.846,0.8557,0.8384,0.8416,0.9061,0.9187,0.9579,1.0704,1.1114,1.1775,1.3254,1.3463,1.3858,0.0,0.0,0.0,0.0,0.0,0.0,0.0,0.0,0.0,0.0,1.7485,1.7485,1.7485,1.7485,1.7485,1.7485,1.7479,1.7485,1.7485,1.7485,1.6826,1.5575,1.5575,0.0,0.0,0.0,0.0,0.0,1.3725,1.3665,1.3665,1.3665,1.2886,1.1692,1.1692,1.0906,0.9822,0.0,0.0,0.0,0.0,0.0,0.0,1.0593,1.0673,1.0727,1.0727,1.0727,1.0727,1.0727,1.0646,1.0593,1.0593,1.0593,0.0,0.0,0.0,0.0,0.0,0.0,0.0,0.0,1.0593,1.0687,1.0855,1.0855,1.1156,1.173,1.1554,1.1644,1.2003,0.0,0.0,0.0,0.0,0.0,0.0,0.0,1.1149,1.0887,0.0,0.0,0.0,0.0,0.0,0.0,0.0,0.0,0.0,0.0,0.0,0.0,0.8186,0.8039,0.7737,0.7797,0.79,0.793,0.793,0.8075,0.8402,0.8988,0.9167,0.9239,0.927,0.9598,0.9767,0.951,1.0241,1.0953,1.1136,1.2218,1.3127,0.0,0.0,0.0,0.0,0.0,0.0,0.0,0.0,0.0,0.0,0.0,0.0,0.0,0.0,1.7485,1.7485,1.7485,1.7485,1.7485,1.7485,1.7485,1.7485,1.7485,1.7303,1.6885,1.6885,0.0,0.0,0.0,0.0,0.0,1.629,1.5752,1.4976,1.4976,1.4202,1.3066,1.3066,1.223,1.1088,0.0,0.0,0.0,0.0,0.0,0.0,1.0593,1.0593,1.0593,1.0593,1.0593,1.0593,1.0593,1.0593,1.0593,1.0593,1.0593,0.0,0.0,0.0,0.0,0.0,0.0,0.0,1.0593,1.0593,1.0734,1.0995,1.1102,1.1403,1.1906,1.1798,1.1876,1.2114,1.1892,1.1855,0.0,0.0,0.0,0.0,1.1929,1.1781,1.1521,0.0,0.0,0.0,0.0,0.0,0.0,0.0,0.0,0.0,0.0,0.0,0.0,0.0,0.8431,0.7947,0.8119,0.8055,0.7934,0.7996,0.8366,0.882,0.9382,0.9739,0.9903,0.9646,1.012,1.0463,1.0033,1.0939,1.1761,1.1939,1.2986,1.3695,0.0,0.0,0.0,0.0,0.0,0.0,0.0,0.0,0.0,0.0,0.0,0.0,0.0,0.0,1.7485,1.7485,1.7485,1.7485,1.7485,1.7485,1.7485,1.7485,1.7485,1.7485,1.7485,0.0,0.0,0.0,0.0,0.0,0.0,1.7485,1.7003,1.6349,1.6349,1.5515,1.4441,1.4441,1.3605,1.247,0.0,0.0,0.0,0.0,0.0,0.0,0.0,1.0593,1.0593,1.0593,1.0593,1.0593,1.0593,1.0593,1.0593,1.0593,1.0593,0.0,0.0,0.0,0.0,0.0,0.0,0.0,1.0593,1.0593,1.0747,1.1022,1.1316,1.1623,1.1973,1.2021,1.2146,1.2331,1.2127,1.212,1.2305,1.2305,1.2305,1.2305,1.2305,1.2298,0.0,0.0,0.0,0.0,0.0,0.0,0.0,0.0,0.0,0.0,0.0,0.0,0.0,0.0,0.0,0.0,0.0,0.8361,0.7925,0.8188,0.8774,0.9354,0.9598,1.0211,0.0,0.9864,1.0294,1.0727,1.0699,1.1295,1.2074,1.2995,1.3387,1.3725,0.0,1.4588,0.0,0.0,0.0,0.0,0.0,0.0,0.0,0.0,0.0,0.0,0.0,0.0,1.7485,1.7485,1.7485,1.7485,1.7485,1.7485,1.7485,1.7485,1.7485,1.7485,1.7485,1.7485,0.0,0.0,0.0,0.0,0.0,1.7485,1.7485,1.7485,1.7485,1.6767,1.5752,1.5752,1.4917,1.3844,0.0,0.0,0.0,0.0,0.0,0.0,0.0,0.0,0.0,0.0,1.0593,1.0593,1.0593,1.0593,1.0593,0.0,0.0,0.0,0.0,0.0,0.0,0.0,0.0,0.0,1.0593,1.0593,1.0847,1.1323,1.1617,1.2067,1.2576,1.2612,1.2639,1.267,1.2368,1.2261,1.2305,1.2305,1.2305,1.2305,1.2305,1.2224,0.0,0.0,0.0,0.0,1.1409,1.1037,0.0,0.0,0.0,0.0,0.0,0.0,0.0,0.0,0.9188,0.9181,0.9543,0.0,0.867,0.9363,0.9751,1.0183,0.0,1.1321,1.1413,1.1241,1.1757,1.2115,1.1784,1.2146,1.2754,1.3564,1.3773,1.4002,1.4539,0.0,0.0,0.0,0.0,0.0,0.0,0.0,0.0,0.0,0.0,0.0,0.0,0.0,1.7485,1.7485,1.7485,1.7485,1.7485,1.7485,1.7485,1.7485,1.7485,1.7485,1.7485,1.7485,0.0,0.0,0.0,0.0,1.7485,1.7485,1.7485,1.7485,1.7485,1.7303,1.7062,1.7062,1.6231,1.5154,0.0,0.0,0.0,0.0,0.0,0.0,0.0,0.0,0.0,0.0,1.0354,1.0439,1.0579,1.0593,1.0593,0.0,0.0,0.0,0.0,0.0,0.0,0.0,0.0,1.0593,1.0593,1.072,1.0982,1.1389,1.1857,1.2231,1.2583,1.2723,1.271,1.2569,1.2371,1.2305,1.2305,1.2305,1.2305,1.2305,1.2305,0.0,0.0,0.0,0.0,0.0,1.1595,1.1409,0.0,1.1446,1.1105,1.0614,0.0,0.0,0.0,0.0,1.0201,1.0084,1.0596,1.0021,0.9441,1.0065,1.0543,1.1043,1.1558,1.1929,1.2057,1.1757,1.2229,1.2533,1.2018,1.2563,1.3181,0.0,1.396,0.0,0.0,0.0,0.0,0.0,0.0,0.0,0.0,0.0,0.0,0.0,0.0,0.0,0.0,0.0,1.7485,1.7485,1.7485,1.7485,1.7485,1.7485,1.7485,1.7485,1.7485,1.7485,1.7485,1.7485,0.0,0.0,0.0,0.0,1.7485,1.7485,1.7485,1.7485,1.7485,1.7485,1.7485,1.7485,1.7062,1.6467,0.0,0.0,0.0,0.0,0.0,0.0,0.0,0.0,0.0,0.0,0.0,0.0,0.0,0.0,0.0,0.0,0.0,0.0,0.0,0.0,0.0,0.0,1.0624,1.0613,1.066,1.0868,1.1156,1.149,1.2078,1.2392,1.2445,1.2784,1.2737,1.2365,1.2318,1.2305,1.2305,1.2305,1.2305,1.2305,1.2305,0.0,0.0,0.0,0.0,0.0,0.0,0.0,0.0,1.2003,1.1892,1.1781,1.1966,0.0,0.0,0.0,0.0,0.0,1.1534,1.1086,1.0509,1.0709,1.1264,1.1798,1.1837,1.2314,1.2619,1.2015,1.2406,1.2655,1.225,1.2918,0.0,0.0,0.0,0.0,0.0,0.0,0.0,0.0,0.0,0.0,0.0,0.0,0.0,0.0,0.0,0.0,0.0,0.0,0.0,1.7485,1.7485,1.7485,1.7485,1.7485,1.7485,1.7485,1.7485,1.7485,1.7485,1.7485,0.0,0.0,0.0,0.0,1.7485,1.7485,1.7485,1.7485,1.7485,1.7485,1.7485,1.7485,1.7485,1.7485,0.0,0.0,0.0,0.0,0.0,0.0,0.0,0.0,0.0,0.0,0.0,0.0,0.0,0.0,0.0,0.0,0.0,0.0,0.0,0.0,0.0,1.1028,1.0751,1.0707,1.0922,1.0969,1.1256,1.1839,1.2429,1.2851,1.308,1.3367,1.3206,1.2703,1.2412,1.2305,1.2305,1.2305,1.2305,1.2305,1.2305,0.0,0.0,0.0,0.0,0.0,0.0,0.0,0.0,1.2224,1.2114,1.1966,1.2003,0.0,0.0,0.0,0.0,0.0,1.1536,1.204,1.2455,1.2023,1.2051,1.2266,1.248,1.279,1.3009,1.2924,1.3094,1.3478,1.4132,1.4021,1.4127,0.0,0.0,0.0,0.0,0.0,0.0,0.0,0.0,0.0,0.0,0.0,0.0,0.0,0.0,0.0,0.0,0.0,0.0,1.7485,1.7485,1.7485,1.7485,1.7485,1.7485,1.7485,1.7485,1.7485,1.7485,1.7485,1.7485,0.0,0.0,1.7485,1.7485,1.7485,1.7485,1.7485,1.7485,1.7485,1.7485,1.7485,1.7485,1.7485,0.0,0.0,0.0,0.0,0.0,0.0,0.0,0.0,0.0,0.0,0.0,0.0,0.0,0.0,0.0,0.0,0.0,0.0,0.0,0.0,1.1476,1.1752,1.1087,1.0816,1.1114,1.137,1.1677,1.2104,1.2705,1.3073,1.3213,1.3173,1.2926,1.2536,1.2365,1.2305,1.2305,1.2305,1.2305,1.2305,0.0,0.0,0.0,0.0,0.0,0.0,0.0,0.0,0.0,0.0,1.2224,1.2157,1.2157,0.0,0.0,0.0,0.0,0.0,1.1934,1.2434,1.293,1.2828,1.31,1.3424,1.3548,1.3667,1.3755,1.3755,1.3724,1.3881,0.0,0.0,1.4849,1.5791,0.0,0.0,0.0,0.0,0.0,0.0,0.0,0.0,0.0,0.0,0.0,0.0,0.0,0.0,0.0,0.0,0.0,0.0,1.7485,1.7485,1.7485,1.7485,1.7485,1.7485,1.7485,1.7485,1.7485,1.7485,1.7485,1.7485,0.0,1.7485,1.7485,1.7485,1.7485,1.7485,1.7485,1.7485,1.7485,1.7485,1.7485,1.7485,0.0,0.0,0.0,0.0,0.0,0.0,0.0,0.0,0.0,0.0,0.0,0.0,0.0,0.0,0.0,0.0,0.0,0.0,0.0,1.2135,1.1977,1.2304,1.1479,1.118,1.1519,1.1775,1.2084,1.2518,1.3085,1.3426,1.3459,1.3109,1.2806,1.2472,1.2405,1.2378,1.2378,1.2415,1.2452,1.2452,0.0,0.0,0.0,0.0,0.0,0.0,0.0,0.0,0.0,0.0,0.0,0.0,0.0,0.0,0.0,1.2305,1.2305,1.2318,1.2385,1.273,1.3139,1.3428,1.3778,1.4116,1.4289,1.427,1.4302,1.4437,1.4384,0.0,0.0,1.5299,0.0,1.6312,0.0,0.0,0.0,0.0,0.0,0.0,0.0,0.0,0.0,0.0,0.0,0.0,0.0,0.0,0.0,0.0,0.0,0.0,1.7485,1.7543,1.7608,1.7608,1.7608,1.7608,1.7608,1.7661,1.7719,1.7719,1.7661,1.7608,1.7608,1.7543,1.7485,1.7485,1.7485,1.7485,1.7485,1.7485,1.7485,1.7485,1.7485,1.7485,0.0,0.0,0.0,0.0,0.0,0.0,0.0,0.0,0.0,0.0,0.0,0.0,0.0,0.0,0.0,0.0,0.0,0.0,0.0,1.229,1.2096,1.2274,1.1924,1.1967,1.2483,1.2092,1.2328,1.3146,1.3688,1.4048,1.4203,1.3691,1.3265,1.292,1.2685,1.2562,1.2599,1.2783,1.2856,1.2856,1.2856,0.0,0.0,0.0,0.0,0.0,0.0,0.0,0.0,0.0,0.0,0.0,0.0,0.0,1.2305,1.2305,1.2305,1.2365,1.2677,1.3153,1.364,1.3939,1.3756,1.3589,1.4155,1.4249,1.435,1.493,1.518,0.0,0.0,1.6393,0.0,0.0,0.0,0.0,0.0,0.0,0.0,0.0,0.0,0.0,0.0,0.0,0.0,0.0,0.0,0.0,0.0,0.0,0.0,0.0,0.0,1.7667,1.7972,1.7972,1.7972,1.7972,1.7972,1.8077,1.8363,1.8363,1.8194,1.7972,1.7972,1.7784,1.7485,1.7485,1.7485,1.7485,1.7485,1.7485,1.7485,1.7485,1.7485,1.7485,0.0,0.0,0.0,0.0,0.0,0.0,0.0,0.0,0.0,0.0,0.0,1.0795,1.1099,0.0,0.0,0.0,0.0,0.0,0.0,1.3262,1.3225,1.348,1.2805,1.2633,1.3084,1.2908,1.3186,1.3877,1.4248,1.4288,1.3992,1.3794,1.3428,1.2912,1.2838,1.279,1.279,1.2863,1.29,1.29,1.29,1.29,0.0,0.0,0.0,0.0,0.0,0.0,0.0,0.0,1.2599,1.2489,1.2489,1.2415,1.2305,1.2305,1.2305,1.2365,1.2703,1.3186,1.3673,1.4015,1.4087,1.4241,1.4864,1.5094,1.5312,1.5763,1.5899,0.0,0.0,0.0,0.0,0.0,0.0,0.0,0.0,0.0,0.0,0.0,0.0,0.0,0.0,0.0,0.0,0.0,0.0,0.0,0.0,0.0,0.0,0.0,0.0,1.8129,1.8252,1.8252,1.8363,1.8538,1.8369,1.8305,1.8421,1.8421,1.8363,1.8252,1.8252,1.8188,1.8071,1.7901,1.779,1.7784,1.7602,1.7485,1.7485,1.7485,1.7485,1.7485,0.0,0.0,0.0,0.0,0.0,0.0,0.0,0.0,1.0846,0.0,0.0,0.0,0.0,1.1753,0.0,0.0,0.0,0.0,1.4047,1.3918,1.3883,1.4082,1.3411,1.3212,1.3584,1.3615,1.3815,1.4132,1.4586,1.4549,1.402,1.3942,1.3659,1.3158,1.3052,1.3066,1.3151,1.3126,1.3083,1.3083,1.3083,1.3083,0.0,0.0,0.0,0.0,0.0,0.0,0.0,0.0,1.2783,1.2599,1.2599,1.2452,1.2305,1.2305,1.2438,1.2632,1.2878,1.3327,1.3813,1.4148,1.4369,1.4696,1.5378,1.5618,1.5858,1.6482,1.6563,1.6693,1.6983,0.0,0.0,0.0,0.0,0.0,0.0,0.0,0.0,0.0,0.0,0.0,0.0,0.0,0.0,0.0,0.0,0.0,0.0,0.0,0.0,0.0,0.0,0.0,1.8532,1.8532,1.8706,1.9062,1.8829,1.8719,1.8719,1.8719,1.8655,1.8532,1.8532,1.8473,1.8363,1.8194,1.8142,1.8083,1.7784,1.7667,1.7667,1.7543,1.7485,1.7485,0.0,0.0,0.0,0.0,0.0,0.0,0.0,0.0,1.1242,1.1653,1.1703,0.0,0.0,0.0,0.0,0.0,0.0,0.0,1.4451,1.407,1.3799,1.3799,1.3622,1.3663,1.3991,1.4112,1.4074,1.3817,1.4693,1.4883,1.4504,1.4301,1.4019,1.3689,1.3343,1.3379,1.3689,1.3557,1.3492,1.3492,1.3492,1.3492,1.3492,0.0,0.0,0.0,0.0,0.0,0.0,0.0,1.2783,1.2599,1.2599,1.2489,1.2305,1.2305,1.2732,1.3206,1.3213,1.3641,1.4162,1.4449,1.4529,1.4763,1.5631,1.5611,1.5738,1.6965,1.7206,1.7293,1.7528,0.0,0.0,0.0,0.0,0.0,0.0,0.0,0.0,0.0,0.0,0.0,0.0,0.0,0.0,0.0,0.0,0.0,0.0,0.0,0.0,0.0,0.0,0.0,1.8874,1.8874,1.9062,1.9424,1.9424,1.9424,1.9424,1.9424,1.9243,1.8874,1.8874,1.8706,1.8421,1.8421,1.8421,1.8363,1.8083,1.7972,1.7972,1.7602,1.7485,1.7485,0.0,0.0,0.0,0.0,0.0,0.0,0.0,0.0,1.1794,1.1852,1.1927,0.0,0.0,0.0,0.0,0.0,0.0,0.0,1.4029,1.4223,1.4297,1.4297,1.4246,1.3926,1.3299,1.3335,1.3645,1.4301,1.4754,1.4678,1.4128,1.4324,1.4096,1.3572,1.3703,1.3688,1.3557,1.3536,1.3492,1.3492,1.3492,1.3492,1.3492,0.0,0.0,0.0,0.0,0.0,0.0,0.0,0.0,0.0,1.301,1.2863,1.2673,1.2562,1.2767,1.3081,1.3186,1.3788,1.4409,1.4496,1.4938,1.5518,1.6032,1.6072,1.6286,0.0,1.7507,1.7534,1.7569,0.0,0.0,0.0,0.0,0.0,0.0,0.0,0.0,0.0,0.0,0.0,0.0,0.0,0.0,0.0,0.0,0.0,0.0,0.0,0.0,0.0,0.0,0.0,1.9243,1.9243,1.9307,1.9424,1.9424,1.9424,1.9424,1.9424,1.9366,1.9243,1.9243,1.9185,1.9068,1.8829,1.859,1.8421,1.8305,1.82,1.7972,1.7908,1.7726,1.7485,0.0,0.0,0.0,0.0,0.0,0.0,1.1678,1.1902,1.2076,1.2002,1.2051,1.2101,0.0,0.0,0.0,1.2909,1.3323,0.0,1.4112,1.4368,1.4515,1.4515,1.4515,1.418,1.3501,1.3532,1.3795,1.4186,1.455,1.4487,1.4027,1.435,1.4298,1.3924,1.4122,1.4108,1.3872,1.374,1.3616,1.3492,1.3492,1.3492,1.3492,0.0,0.0,0.0,0.0,0.0,0.0,0.0,0.0,0.0,1.32,1.3046,1.2912,1.2962,1.3135,1.345,1.3802,1.4295,1.475,1.4983,1.5391,1.5965,1.6549,0.0,0.0,0.0,1.7582,1.7582,1.7582,0.0,0.0,0.0,0.0,0.0,0.0,0.0,0.0,0.0,0.0,0.0,0.0,0.0,0.0,0.0,0.0,0.0,0.0,0.0,0.0,0.0,0.0,0.0,1.9192,1.9305,1.9424,1.9424,1.9424,1.9424,1.9424,1.9424,1.9424,1.9424,1.9424,1.9424,1.9366,1.9178,1.9004,1.8771,1.8655,1.848,1.8311,1.8194,1.8018,1.7837,0.0,0.0,1.2101,1.2101,0.0,0.0,1.2101,1.2101,1.2101,1.2101,1.2101,1.2119,0.0,0.0,0.0,1.3305,1.37,1.4057,1.4458,1.4515,1.4515,1.4515,1.4455,1.4339,1.4172,1.4363,1.4233,1.3723,1.4208,1.4298,1.3945,1.4342,1.4489,1.4467,1.4496,1.4489,1.4445,1.4115,1.377,1.3492,1.3492,1.3492,1.3492,1.3492,0.0,0.0,0.0,0.0,0.0,0.0,0.0,0.0,1.3265,1.3162,1.3054,1.3448,1.3742,1.411,1.4751,1.4988,1.513,1.5658,1.5804,0.0,1.7045,1.7447,1.7582,1.7582,0.0,1.7582,0.0,0.0,0.0,0.0,0.0,0.0,0.0,0.0,0.0,0.0,0.0,0.0,0.0,0.0,0.0,0.0,0.0,0.0,0.0,0.0,0.0,0.0,0.0,0.0,1.8925,1.9219,1.9424,0.0,1.9424,1.9424,1.9424,1.9424,1.9424,1.9424,1.9424,1.9424,1.9424,1.9424,1.9424,1.9366,1.9062,1.8933,1.8874,1.8532,1.8421,1.8421,0.0,0.0,1.2101,1.2101,0.0,0.0,1.2101,1.2101,1.2101,1.2101,1.2101,1.222,1.2533,1.2634,0.0,1.3718,1.3865,1.4057,1.4458,1.4515,1.4515,1.4515,1.4139,1.3934,1.3883,1.4094,1.4139,1.4005,1.4077,1.3923,1.3616,1.4232,1.4372,1.4137,1.4394,1.4364,1.4108,1.374,1.3558,1.3492,1.3492,1.3492,1.3492,1.3492,1.3492,0.0,0.0,0.0,0.0,0.0,0.0,0.0,1.3754,1.3797,1.3802,1.3991,1.4296,1.4518,1.4542,1.4902,1.5337,1.5458,1.6005,1.6687,1.7341,1.7542,1.7582,1.7582,1.7582,0.0,0.0,0.0,0.0,0.0,0.0,0.0,0.0,0.0,0.0,0.0,0.0,0.0,0.0,0.0,0.0,0.0,0.0,0.0,0.0,0.0,0.0,0.0,0.0,1.8925,1.8925,1.9219,1.9424,0.0,1.9424,1.9424,1.9424,1.9424,1.9424,1.9424,1.9424,1.9424,1.9424,1.9424,1.9424,1.9366,1.9307,1.912,1.8874,1.8823,1.8648,1.8421,0.0,0.0,0.0,0.0,0.0,0.0,0.0,0.0,1.2101,1.2101,1.2266,1.2459,1.267,1.3038,0.0,0.0,1.4066,1.4277,1.4497,1.4515,1.4515,1.4515,1.4267,1.4228,1.4416,1.4446,1.4396,1.4353,1.4204,1.4057,1.3899,1.4148,1.4181,1.3996,1.4364,1.4328,1.4005,1.3799,1.3638,1.3492,1.3492,1.3492,1.3492,1.3492,1.3492,1.3492,1.3492,0.0,0.0,0.0,0.0,0.0,0.0,0.0,1.4265,1.454,1.4636,1.4691,1.4941,1.5167,1.5462,1.5933,0.0,1.686,1.7448,1.7582,1.7582,1.7582,0.0,0.0,0.0,0.0,0.0,0.0,0.0,0.0,0.0,0.0,0.0,0.0,0.0,0.0,0.0,0.0,0.0,0.0,0.0,0.0,0.0,0.0,0.0,0.0,1.8215,1.8571,1.8718,1.9005,1.9225,1.9424,1.9424,1.9424,1.9424,1.9424,1.9424,1.9424,1.9424,1.9424,1.9424,1.9424,1.9424,1.9424,1.9424,1.9301,1.912,1.912,1.901,1.8894,0.0,0.0,0.0,0.0,0.0,0.0,0.0,0.0,0.0,1.2202,1.2551,1.2827,1.2891,1.3507,1.3938,0.0,0.0,0.0,1.4515,1.4515,1.4515,1.4515,1.4579,1.4772,1.5093,1.5062,1.4989,1.4873,1.4706,1.4585,1.4548,1.4186,1.3982,1.3996,1.4306,1.4269,1.402,1.3923,1.374,1.3492,1.3492,1.3492,1.3492,1.3492,1.3492,1.3492,1.3492,1.3536,1.3623,1.3894,0.0,0.0,0.0,0.0,1.4623,1.4959,1.4932,1.4879,1.5521,1.5513,1.5586,1.6476,1.6707,0.0,1.7448,1.7582,1.7582,0.0,0.0,0.0,0.0,0.0,0.0,0.0,0.0,0.0,0.0,0.0,0.0,0.0,0.0,0.0,0.0,0.0,0.0,0.0,0.0,0.0,0.0,0.0,1.7582,1.7582,1.7883,1.8109,1.841,1.8751,1.9045,1.9292,1.9339,1.9424,1.9424,1.9424,1.9424,1.9424,1.9424,1.9424,1.9424,1.9424,1.9424,1.9424,1.9424,1.9424,1.9424,1.9424,1.9424,1.9424,0.0,0.0,0.0,0.0,0.0,0.0,0.0,0.0,0.0,0.0,1.2983,1.3341,1.3709,1.3847,1.4029,1.4396,1.4478,1.4515,1.4515,0.0,0.0,1.4515,1.4836,1.5047,1.5102,1.5747,1.609,1.6078,1.5939,1.5728,1.5491,1.4478,1.3982,1.3982,1.4064,1.4026,1.396,1.3682,1.3536,1.3492,1.3492,1.3492,1.3492,1.3492,1.3492,1.3492,1.3492,1.3675,1.3923,1.3967,1.421,0.0,0.0,0.0,1.4907,1.5238,1.5374,1.5419,1.5504,1.5603,1.5844,0.0,1.6707,1.686,0.0,0.0,1.7582,0.0,0.0,0.0,0.0,0.0,0.0,0.0,0.0,0.0,0.0,0.0,0.0,0.0,0.0,0.0,0.0,0.0,0.0,0.0,0.0,0.0,0.0,1.7582,1.7582,1.7582,1.7883,1.8009,1.8049,1.8595,1.8945,1.8985,1.9245,1.9424,1.9424,1.9424,1.9424,1.9424,1.9424,1.9424,1.9424,1.9424,1.9424,1.9424,1.9424,1.9424,1.9424,1.9424,1.9424,1.9424,0.0,0.0,0.0,0.0,0.0,0.0,0.0,0.0,0.0,0.0,0.0,1.369,1.3892,1.4093,1.4304,1.4467,1.4515,1.4515,1.4515,1.4515,1.4607,1.4836,1.501,1.5313,1.5771,1.6138,1.6254,1.6197,1.5799,1.5458,1.5194,1.4389,1.3982,1.3982,1.3982,1.3879,1.3697,1.3558,1.3492,1.3492,1.3492,1.3637,1.38,1.3594,1.3644,1.3793,1.3587,1.3704,1.4049,1.4232,1.4472,1.4787,1.5075,0.0,0.0,0.0,1.5131,1.5223,1.5489,1.5611,1.5845,0.0,1.6707,1.686,1.7448,0.0,0.0,0.0,0.0,0.0,0.0,0.0,0.0,0.0,0.0,0.0,0.0,0.0,0.0,0.0,0.0,0.0,0.0,0.0,0.0,0.0,0.0,0.0,1.7582,1.7582,1.7582,1.7582,1.7716,0.0,1.7995,1.8249,1.8542,1.8925,1.9225,1.9424,1.9424,1.9424,1.9424,1.9424,1.9424,1.9424,1.9424,1.9424,1.9424,1.9424,1.9424,1.9424,1.9424,1.9424,1.9424,1.9424,0.0,0.0,0.0,0.0,0.0,0.0,0.0,0.0,0.0,0.0,0.0,1.4038,1.4038,0.0,0.0,0.0,1.4515,1.4515,1.4515,1.4607,1.4799,1.5093,1.5304,1.5698,1.6303,1.6413,1.6401,1.6307,1.57,1.5399,1.5351,1.466,1.4372,1.4477,1.4124,1.385,1.3616,1.3536,1.3594,1.374,1.3666,1.388,1.4216,1.3899,1.4004,1.4223,1.391,1.3994,1.4292,1.4538,1.4801,1.5068,1.5309,1.5163,0.0,0.0,0.0,1.4892,1.5325,0.0,1.5702,1.6399,1.6639,1.6804,0.0,0.0,0.0,0.0,0.0,0.0,0.0,0.0,0.0,0.0,0.0,0.0,0.0,0.0,0.0,0.0,0.0,0.0,0.0,0.0,0.0,0.0,0.0,0.0,1.7635,1.7838,1.7996,1.7996,1.7996,1.8105,1.8291,1.8185,1.8417,1.8925,1.9225,1.9424,1.9424,1.9424,1.9424,1.9424,1.9424,1.9424,1.9424,1.9424,1.9424,1.9424,1.9424,1.9424,1.9424,1.9424,1.9424,1.9424,0.0,0.0,0.0,0.0,0.0,0.0,0.0,0.0,0.0,0.0,0.0,1.4478,1.4478,1.4497,1.4515,1.4515,1.4515,1.4515,1.4515,1.4864,1.5084,1.5102,1.5845,0.0,1.6288,1.6688,1.6855,1.6874,1.6307,1.6364,1.6963,1.5795,1.5444,1.5755,1.4552,1.3975,1.3938,1.3623,1.385,1.4421,1.4165,1.4288,1.4577,1.4627,1.4657,1.465,1.4572,1.4739,1.4919,1.4892,1.509,1.5367,1.5382,1.5163,1.49,0.0,0.0,0.0,0.0,1.5014,0.0,1.6018,1.6429,0.0,0.0,0.0,0.0,0.0,0.0,0.0,0.0,0.0,0.0,0.0,0.0,0.0,0.0,0.0,0.0,0.0,0.0,0.0,0.0,0.0,0.0,0.0,0.0,0.0,1.7635,1.8558,1.9124,1.9124,1.9124,1.9131,1.9153,1.8713,1.8617,1.8925,1.9225,1.9424,1.9424,1.9424,1.9424,1.9424,1.9424,1.9424,1.9424,1.9424,1.9424,1.9424,1.9424,1.9424,1.9424,1.9424,1.9424,1.9424,0.0,0.0,0.0,0.0,0.0,0.0,0.0,0.0,0.0,0.0,0.0,0.0,0.0,1.4515,1.4515,1.4515,1.4515,1.4616,1.4873,1.5019,1.5331,1.5863,1.6166,1.6431,1.6688,1.6835,1.6908,1.6908,1.6342,1.6144,1.6199,1.534,1.5004,1.4973,1.4508,1.4218,1.3975,1.3857,1.3945,1.4194,1.436,1.4623,1.4916,1.4724,1.4818,1.4984,0.0,0.0,1.5019,1.4988,1.5162,1.5352,1.5141,1.4896,1.4596,1.4384,1.4392,1.4521,0.0,0.0,0.0,1.5718,1.621,1.6674,0.0,0.0,0.0,0.0,0.0,0.0,0.0,0.0,0.0,0.0,0.0,0.0,0.0,0.0,0.0,0.0,0.0,0.0,0.0,0.0,0.0,0.0,0.0,0.0,1.9702,1.9383,1.9539,2.0261,2.0313,2.0313,2.0313,1.8896,1.8666,1.9666,1.9271,1.9185,1.9424,1.9424,1.9424,1.9424,1.9424,1.9424,1.9424,1.9424,1.9424,1.9424,1.9424,1.9424,1.9424,1.9424,1.9424,1.9424,0.0,0.0,0.0,1.3488,0.0,1.4093,1.4093,1.4332,1.4515,1.4515,0.0,0.0,0.0,0.0,1.4561,1.4698,1.4708,1.4873,1.5276,1.5432,1.5753,1.626,1.645,1.6642,1.6899,1.678,1.6771,1.6908,1.6209,1.5919,1.6007,1.5314,1.4889,1.4808,1.4692,1.4509,1.4296,1.4194,1.4267,1.4477,1.4669,1.4958,1.5218,1.5021,1.5137,0.0,0.0,0.0,0.0,0.0,0.0,0.0,1.5199,1.4816,0.0,0.0,0.0,0.0,1.4533,0.0,0.0,0.0,1.5972,1.6491,0.0,0.0,0.0,0.0,0.0,0.0,0.0,0.0,0.0,0.0,0.0,0.0,0.0,0.0,0.0,0.0,0.0,0.0,0.0,0.0,0.0,0.0,0.0,0.0,2.0885,2.0518,2.0672,2.1395,2.1454,2.1242,2.0885,1.9723,1.9567,2.0511,2.0202,1.997,1.9837,1.994,1.9764,1.9424,1.9424,1.9424,1.9424,1.9424,1.9424,1.9424,1.9424,1.9424,1.9424,1.9424,1.9424,1.9424,1.3332,1.3635,1.3929,1.3929,1.424,1.4515,1.4515,1.4515,1.4515,1.4515,0.0,0.0,0.0,0.0,0.0,1.5084,1.512,1.5285,1.568,1.6092,1.6321,1.6331,1.6707,1.6908,1.6908,1.6532,1.6523,1.6908,1.5926,1.5878,1.6647,1.571,1.5342,1.5358,1.5051,1.4893,1.4878,1.4611,1.4845,1.5362,1.5205,1.5303,1.5518,1.5645,0.0,0.0,1.561,1.5641,0.0,1.5648,0.0,0.0,0.0,0.0,0.0,0.0,0.0,0.0,0.0,0.0,0.0,0.0,0.0,0.0,1.6471,0.0,0.0,0.0,0.0,0.0,0.0,0.0,0.0,0.0,0.0,0.0,0.0,0.0,0.0,0.0,0.0,0.0,0.0,0.0,0.0,0.0,0.0,2.2064,2.1038,2.1962,2.2526,2.2526,2.2526,2.2013,2.0987,2.1219,2.1333,2.1357,2.2022,2.1757,2.0684,2.1013,2.0544,1.9424,1.9424,1.9424,1.9424,1.9424,1.9424,1.9424,1.9424,1.9424,1.9424,1.9424,1.9424,1.9424,1.4176,1.4268,1.4341,1.4341,1.4433,1.4515,1.4515,1.4515,1.4515,0.0,0.0,0.0,1.4515,1.4772,1.5093,1.5487,1.5524,1.5698,1.612,1.6257,1.645,1.6734,1.6844,1.6908,1.6908,1.6798,1.6798,1.6908,1.6617,1.6393,1.6254,1.556,1.5128,1.4978,1.4723,1.4728,1.49,1.4805,1.4871,1.5063,1.5353,1.5665,0.0,0.0,0.0,0.0,0.0,1.6284,1.6264,0.0,1.6123,1.5727,0.0,0.0,1.4474,0.0,0.0,0.0,1.4548,0.0,0.0,0.0,0.0,0.0,1.613,1.6669,0.0,0.0,0.0,0.0,0.0,0.0,0.0,0.0,0.0,0.0,0.0,0.0,0.0,0.0,0.0,0.0,0.0,0.0,0.0,0.0,2.2987,2.2728,2.3279,2.3587,2.3746,2.3746,2.2937,2.2728,2.3279,2.1748,2.1517,2.2513,2.1917,2.1734,2.1883,2.11,2.0721,2.0666,1.9764,1.9424,1.9424,1.9424,1.9424,1.9424,1.9424,1.9424,1.9424,1.9424,1.9424,1.9424,1.4515,1.4515,1.4515,1.4515,1.4643,1.4708,1.4543,1.4653,1.4698,0.0,0.0,0.0,1.4744,1.5267,1.5698,1.5927,1.5955,1.6129,1.6532,1.656,1.6661,1.6899,1.6908,1.6908,1.6908,1.6743,1.6743,1.6908,1.6743,1.6321,1.5709,1.5505,1.5134,1.4591,1.4522,1.4874,1.5449,1.5082,1.498,1.5143,1.5607,0.0,0.0,1.6292,1.6449,0.0,0.0,0.0,1.6532,1.6598,1.6371,0.0,0.0,0.0,0.0,0.0,0.0,1.4863,1.4721,1.5043,0.0,0.0,0.0,0.0,1.6157,1.6555,1.693,0.0,0.0,0.0,0.0,0.0,0.0,0.0,0.0,0.0,0.0,0.0,0.0,0.0,0.0,0.0,0.0,0.0,0.0,0.0,2.3587,2.3488,2.4152,2.4202,2.4202,2.4202,2.3538,2.3546,2.4202,2.292,2.268,2.3481,2.3006,2.2806,2.2879,2.237,2.175,2.1174,2.0443,1.988,1.9424,1.9424,1.9424,1.9424,1.9424,1.9424,1.9424,1.9424,1.9424,1.9424,0.0,1.4515,1.4494,1.457,1.4864,1.5001,1.4689,1.49,1.4992,0.0,1.4643,1.4799,1.5194,1.5881,1.6331,1.6352,1.6386,1.6532,1.689,1.6908,1.6908,1.6908,1.6908,1.6908,1.6908,1.6606,1.6606,1.6908,1.6606,1.6084,1.539,1.5643,1.53,1.4513,1.4585,1.5188,1.6149,1.5351,1.5167,1.5487,1.592,1.6087,0.0,0.0,1.6642,1.6649,1.6668,1.6694,1.6701,1.6742,1.6491,0.0,0.0,0.0,0.0,0.0,1.4863,1.5063,1.5068,1.5272,1.5484,0.0,0.0,0.0,1.6232,1.6448,1.6683,0.0,0.0,0.0,0.0,0.0,0.0,0.0,0.0,0.0,0.0,0.0,0.0,0.0,0.0,0.0,0.0,0.0,2.3138,2.4102,2.4202,2.4202,2.4202,2.4202,2.4202,2.4202,2.4202,2.4202,2.4202,2.4202,2.4202,2.4211,2.4578,2.441,2.3824,2.4036,2.3208,2.1574,2.146,2.078,1.9764,1.9655,1.954,1.9424,1.9424,1.9424,1.9424,1.9424,1.9424,1.9424,1.4515,1.4515,1.4616,1.4928,1.5047,1.5184,1.5423,1.5258,1.5184,1.5423,1.546,1.5615,1.6037,1.6221,1.645,1.6762,1.6789,1.6826,1.6899,1.6908,1.6908,1.6908,1.6908,1.6908,1.6908,1.7138,1.7147,1.6908,1.7147,1.7032,1.6551,1.6175,1.5919,1.5726,1.5548,1.5495,1.5513,1.5589,0.0,1.5907,1.5997,0.0,1.6469,1.6876,1.714,1.741,1.7412,1.7387,1.7268,1.7036,1.6939,1.6814,0.0,0.0,0.0,1.6082,0.0,0.0,0.0,0.0,0.0,0.0,0.0,0.0,1.5684,1.6042,1.6395,0.0,0.0,0.0,0.0,0.0,0.0,0.0,0.0,0.0,0.0,0.0,0.0,0.0,0.0,0.0,0.0,0.0,2.3945,2.4202,2.4202,2.4202,2.4202,2.4202,2.4202,2.4202,2.4202,2.4202,2.4202,2.4202,2.4202,2.4202,2.4284,2.4555,2.4997,2.4096,2.3857,2.4047,2.3095,2.2531,2.2248,2.1231,2.027,1.9424,1.9424,1.9424,1.9424,1.9424,1.9424,1.9424,1.4515,1.4515,1.4634,1.5029,1.5258,1.546,1.5661,1.5698,1.578,1.5973,1.6532,1.6899,1.6908,1.7092,1.7211,1.7202,1.7018,1.6908,1.6908,1.6908,1.6908,1.6908,1.7092,1.7202,1.7202,1.7394,1.7394,1.7202,1.7202,1.696,1.6482,1.6237,1.6306,1.6645,1.5675,1.5851,1.6752,1.5768,1.5677,1.6208,1.6242,0.0,1.6919,1.7823,1.8245,1.8454,1.9027,1.9236,1.9103,1.8376,1.8009,0.0,0.0,1.6602,1.6483,0.0,1.6432,1.6282,0.0,0.0,0.0,1.614,0.0,0.0,0.0,1.6079,1.6259,0.0,0.0,0.0,0.0,0.0,0.0,0.0,0.0,0.0,0.0,0.0,0.0,0.0,0.0,0.0,0.0,0.0,2.4202,2.4202,2.4202,2.4202,2.4202,2.4202,2.4202,2.4202,2.4202,2.4202,2.4202,2.4202,2.4202,2.4202,2.4202,2.4633,2.5372,2.4779,2.4613,2.4778,2.4158,2.3544,2.2974,2.2361,2.1737,2.1067,1.988,1.9424,1.9424,1.9424,1.9424,1.9424,1.4515,1.457,1.4726,1.5047,1.5423,1.5716,1.5799,1.6028,1.6257,1.6413,1.7386,1.8027,1.7761,1.8036,1.8137,1.7862,1.755,1.7339,1.7257,1.7183,1.7174,1.7248,1.7339,1.7458,1.7614,1.7541,1.7458,1.7385,1.7138,1.6737,1.6237,1.6237,1.658,1.7098,1.6021,1.6514,1.8037,1.6371,0.0,1.7013,0.0,1.6963,1.7036,1.8542,1.9089,1.9265,2.0471,2.0885,2.0767,1.9774,1.9115,1.8588,1.7816,1.7277,0.0,0.0,0.0,0.0,0.0,0.0,0.0,0.0,0.0,1.6482,0.0,0.0,0.0,0.0,0.0,0.0,0.0,0.0,0.0,0.0,0.0,0.0,0.0,0.0,0.0,0.0,0.0,0.0,0.0,0.0,2.3987,2.4192,2.4005,2.3987,2.4192,2.4202,2.4202,2.4202,2.4202,2.4202,2.4202,2.4202,2.4202,2.4202,2.4202,2.4633,2.5424,2.5424,2.5325,2.5174,2.5174,2.4612,2.3656,2.3424,2.3376,2.3087,2.0666,1.9764,1.9764,1.9764,1.9591,1.9424,1.4515,1.4799,1.5047,1.5093,1.5423,1.5817,1.6184,1.5973,1.6019,1.6743,1.7551,1.8238,1.854,1.8614,1.877,1.9072,1.9054,0.0,1.8531,0.0,1.81,1.8495,1.7523,1.7312,1.8036,1.7688,1.7321,1.6972,1.7284,1.7212,1.6804,1.6804,1.6714,1.6642,1.7776,1.7978,1.7538,0.0,1.8799,0.0,1.896,1.7713,0.0,1.803,1.8724,1.8915,2.0358,2.0885,2.0837,0.0,1.9687,1.9169,0.0,1.911,1.8775,0.0,0.0,0.0,0.0,0.0,0.0,0.0,1.8417,0.0,0.0,0.0,0.0,0.0,0.0,0.0,0.0,0.0,0.0,0.0,0.0,0.0,0.0,0.0,0.0,0.0,0.0,0.0,0.0,0.0,0.0,2.4146,2.3338,2.319,2.4165,2.4202,2.4202,2.4202,2.4202,2.4202,2.4202,2.4202,2.4202,2.4202,2.4202,2.4633,2.5424,2.5424,2.5759,2.6418,2.6418,2.6309,2.6136,2.5064,2.4612,2.439,2.1964,2.101,2.101,2.101,2.0328,1.954,1.4561,1.4643,1.49,1.5359,1.5579,1.5909,1.656,1.6908,1.7312,1.788,1.8449,1.8962,1.9335,0.0,0.0,0.0,0.0,1.9136,0.0,0.0,1.8402,1.8338,1.8109,1.7972,1.8091,1.7917,1.766,1.7248,1.7183,1.7064,1.6908,1.7138,1.7442,1.7816,1.8526,0.0,1.9025,0.0,1.927,0.0,0.0,0.0,0.0,2.0029,2.1312,2.1991,2.2607,2.282,2.2702,0.0,2.1197,0.0,0.0,0.0,0.0,0.0,0.0,0.0,0.0,0.0,0.0,0.0,0.0,0.0,1.8054,0.0,1.7944,0.0,0.0,0.0,0.0,0.0,0.0,0.0,0.0,0.0,0.0,0.0,0.0,0.0,0.0,0.0,0.0,0.0,0.0,0.0,0.0,2.3746,2.4183,2.4202,2.4202,2.4202,2.4202,2.4202,2.4202,2.4202,2.4202,2.4202,2.4202,2.4633,2.5424,2.5424,2.5812,2.6591,2.6591,2.6591,2.6537,2.6081,2.5852,2.5679,2.3935,2.2862,2.2248,2.2248,2.1907,2.1452,1.4891,1.4928,1.5148,1.5606,1.578,1.6092,1.6798,1.756,1.8228,1.866,0.0,0.0,2.0003,1.9916,0.0,0.0,2.0145,1.9797,0.0,0.0,1.9017,0.0,0.0,0.0,1.8576,1.8145,1.7862,1.7669,1.7266,1.7128,1.7248,1.7532,1.7925,1.8443,1.9092,1.9655,2.0193,0.0,2.0277,2.0002,2.0449,2.0423,2.0322,2.1767,2.3152,2.4202,2.4202,2.4202,2.4035,2.3114,2.2406,0.0,2.1569,0.0,0.0,0.0,0.0,0.0,2.0326,0.0,0.0,0.0,0.0,0.0,0.0,0.0,0.0,0.0,0.0,0.0,0.0,0.0,0.0,0.0,0.0,0.0,0.0,0.0,0.0,0.0,0.0,0.0,0.0,0.0,0.0,0.0,2.3773,0.0,2.4192,2.4202,2.4202,2.4202,2.4202,2.4202,2.4202,2.4202,2.4202,2.4202,2.4202,2.4633,2.5424,2.5424,2.5812,2.6591,2.6591,2.6591,2.6591,2.6591,2.6591,2.6527,2.5633,2.4778,2.3935,2.36,2.3255,2.2869,1.5652,1.5982,1.6138,1.5753,1.6028,1.6431,1.6844,1.756,1.8228,0.0,0.0,0.0,0.0,0.0,0.0,0.0,0.0,2.1431,2.1062,0.0,2.0186,0.0,0.0,1.8649,0.0,1.833,1.7706,1.8063,1.7688,1.7688,1.8045,1.8063,1.7943,1.783,1.9633,2.0348,2.0298,2.1654,2.2656,2.3313,2.2966,2.3268,2.3861,0.0,2.2933,2.4202,2.4202,0.0,0.0,2.3645,2.2996,0.0,0.0,0.0,0.0,0.0,0.0,0.0,0.0,0.0,0.0,2.0747,0.0,0.0,0.0,0.0,2.0394,0.0,0.0,0.0,0.0,0.0,0.0,1.9982,0.0,0.0,0.0,0.0,0.0,0.0,0.0,0.0,0.0,0.0,0.0,0.0,2.2742,0.0,2.4156,2.4202,2.4202,2.4202,2.4202,2.4202,2.4202,2.4202,2.4202,2.4202,2.4202,2.4633,2.5424,2.5424,2.5812,2.6591,2.6591,2.6591,2.6591,2.6591,2.6591,2.6591,2.6537,2.6537,2.6354,2.5174,2.3991,2.2974,1.6101,1.6431,1.6578,1.6175,1.6221,1.6633,1.7568,1.7944,0.0,0.0,0.0,0.0,0.0,2.1403,2.1751,0.0,0.0,2.2318,2.1942,2.1376,0.0,0.0,0.0,1.9738,0.0,0.0,0.0,1.8091,1.7944,1.7981,1.8091,1.8356,1.8472,1.8431,2.0121,2.1014,0.0,0.0,0.0,0.0,0.0,2.3224,2.37,0.0,0.0,2.4202,2.4202,2.4202,0.0,2.4045,2.3563,2.3217,2.3605,2.3281,2.2799,2.2868,2.3006,0.0,0.0,0.0,2.3028,2.163,0.0,0.0,0.0,0.0,0.0,0.0,0.0,0.0,0.0,0.0,0.0,2.041,0.0,0.0,0.0,0.0,0.0,0.0,0.0,0.0,0.0,0.0,0.0,2.2885,2.335,2.381,0.0,2.4202,2.4202,2.4202,2.4202,2.4202,2.4202,2.4202,2.4202,2.4202,2.4202,2.4633,2.5424,2.5424,2.5812,2.6591,2.6591,2.6591,2.6591,2.6591,2.6591,2.6591,2.6591,2.6591,2.6527,2.6136,2.5743,2.5174,1.6551,1.6844,1.6991,1.6597,1.6642,0.0,0.0,0.0,0.0,0.0,2.0268,0.0,2.1604,0.0,2.2336,0.0,2.2904,2.273,2.2355,2.2044,0.0,2.1897,2.1266,0.0,0.0,0.0,0.0,0.0,0.0,1.854,1.855,1.8806,1.8916,1.8981,0.0,2.1209,2.176,2.2831,2.3306,0.0,0.0,2.3538,0.0,0.0,2.411,2.395,0.0,2.4202,2.4202,2.4202,2.3978,2.3804,2.4119,2.3794,2.3428,2.3684,2.3574,2.3354,2.3151,2.3498,0.0,0.0,2.2266,0.0,2.087,0.0,0.0,0.0,0.0,0.0,0.0,0.0,0.0,2.1026,2.0811,0.0,0.0,2.0489,0.0,0.0,0.0,0.0,0.0,0.0,2.2135,2.2858,2.3299,2.3742,0.0,0.0,2.4202,2.4202,2.4202,2.4202,2.4202,2.4202,2.4202,2.4202,2.4202,2.4633,2.5424,2.5424,2.5812,2.6591,2.6591,2.6591,2.6591,2.6591,2.6591,2.6591,2.6591,2.6591,2.6591,2.6591,2.6309,2.5743,1.7009,1.7257,1.7413,0.0,1.7293,0.0,0.0,0.0,1.9467,0.0,2.0964,2.1714,2.1778,2.2474,2.295,2.2968,2.2968,2.2794,2.2447,2.2346,0.0,0.0,2.197,2.1925,2.23,0.0,0.0,0.0,0.0,0.0,1.9329,1.9311,1.9301,1.9338,2.0154,0.0,2.1742,2.2565,2.3419,2.4202,2.4202,2.4192,2.4174,2.4192,0.0,2.3544,2.4005,2.4202,2.4202,2.4202,2.4202,2.4202,2.4202,2.4202,2.4202,2.4202,2.4202,2.4119,2.3675,2.3719,2.3717,2.2963,0.0,0.0,0.0,0.0,2.2111,0.0,0.0,0.0,0.0,0.0,0.0,0.0,0.0,0.0,0.0,0.0,0.0,0.0,0.0,0.0,0.0,2.0306,2.0814,2.2702,2.251,2.2887,0.0,0.0,0.0,2.4202,2.4202,2.4202,2.4202,2.4202,2.4202,2.4202,2.4202,2.4633,2.5424,2.5424,2.5812,2.6591,2.6591,2.6591,2.6591,2.6591,2.6591,2.6591,2.6591,2.6591,2.6591,2.6591,2.5852,2.4889,1.7367,1.7678,1.8027,0.0,1.8091,1.8137,0.0,0.0,0.0,0.0,2.1302,2.2034,2.2931,2.3215,2.3471,2.3822,2.3849,0.0,0.0,0.0,0.0,2.3715,2.2968,2.2648,2.2748,2.1851,0.0,2.0961,0.0,0.0,1.9719,1.9448,1.9301,1.9338,0.0,2.0927,2.1742,2.2565,2.3419,2.4202,2.4202,2.3969,0.0,0.0,2.3895,2.3544,2.4005,2.4202,2.4202,2.4202,2.4202,2.4202,2.4202,2.4202,2.4202,2.4202,2.4202,2.4183,2.4073,2.4184,2.421,2.3698,2.357,2.3406,0.0,0.0,0.0,0.0,0.0,0.0,0.0,0.0,0.0,0.0,0.0,0.0,0.0,0.0,0.0,0.0,0.0,0.0,0.0,2.1002,2.1757,2.2286,2.2557,2.3189,0.0,0.0,0.0,2.4183,2.4202,2.4202,2.4202,2.4202,2.4202,2.4202,2.4202,2.4633,2.5424,2.5424,2.5812,2.6591,2.6591,2.6591,2.6591,2.6591,2.6591,2.6591,2.6591,2.6591,2.6591,2.6591,2.6418,2.6017,1.7807,1.8238,0.0,1.8935,0.0,0.0,1.9494,0.0,0.0,2.1245,2.1861,0.0,2.316,2.3602,2.3904,2.4183,2.4202,0.0,2.3895,0.0,0.0,2.3886,2.362,2.3474,2.3474,2.2803,0.0,2.164,0.0,0.0,1.9875,1.9503,1.9301,1.9338,0.0,2.0869,2.1495,2.2666,2.3474,2.3904,2.4128,0.0,0.0,2.411,2.4055,2.384,2.4119,2.4202,2.4202,2.4202,2.4202,2.4202,2.4202,2.4202,2.4202,2.4202,2.4202,2.4202,2.4202,2.4341,2.4433,2.4201,2.4267,2.4259,2.3648,2.3698,2.3822,0.0,0.0,0.0,0.0,0.0,0.0,0.0,0.0,0.0,0.0,0.0,0.0,0.0,0.0,0.0,0.0,2.1076,2.1803,2.2211,2.2168,0.0,0.0,0.0,0.0,2.3611,2.4018,2.4251,2.4341,2.4251,2.4251,2.4341,2.4251,2.4633,2.5424,2.5424,2.5812,2.6591,2.6591,2.6591,2.6591,2.6591,2.6591,2.6591,2.6591,2.6591,2.6591,2.6591,2.6591,2.6473,1.8339,1.888,0.0,0.0,0.0,0.0,0.0,2.0759,0.0,2.1751,0.0,2.3004,2.3059,2.373,2.4202,2.4202,0.0,2.4055,2.3599,2.395,2.4045,2.359,2.396,2.4202,2.4202,2.3749,0.0,0.0,0.0,0.0,1.9957,1.9522,1.9329,1.9421,0.0,0.0,0.0,2.2849,2.3526,2.3657,2.4055,2.4202,2.4202,2.4202,2.4202,2.4202,2.4202,2.4202,2.4202,2.4202,2.4202,2.4202,2.4202,2.4202,2.4202,2.4202,2.4202,2.4202,2.4202,2.4341,2.4489,2.448,2.4883,2.5043,2.4324,2.4394,2.459,2.459,2.4004,0.0,0.0,0.0,0.0,0.0,0.0,0.0,0.0,0.0,0.0,0.0,0.0,0.0,0.0,0.0,0.0,2.2252,2.1541,0.0,0.0,0.0,0.0,0.0,2.3834,0.0,2.448,0.0,2.435,2.448,2.4341,2.4675,2.5528,2.5476,2.5865,2.6636,2.6646,2.6591,2.6591,2.6591,2.6591,2.6591,2.6591,2.6591,2.6591,2.6591,2.6591,2.6591,1.9045,0.0,0.0,0.0,0.0,2.0934,2.1824,2.1961,2.2135,2.2629,2.3096,2.3517,2.3904,2.4119,2.4202,2.4202,2.4202,0.0,0.0,0.0,0.0,2.4101,2.4165,2.4202,2.4202,2.3749,2.3096,0.0,0.0,0.0,2.036,1.965,1.9485,0.0,0.0,0.0,2.2126,2.3087,0.0,2.4101,2.4174,2.4202,2.4202,2.4202,2.4202,2.4202,2.4202,2.4202,2.4202,2.4202,2.4202,2.4202,2.4202,2.4202,2.4202,2.4202,2.4202,2.4202,2.4202,2.4251,2.4301,2.444,2.4735,2.5001,2.5043,2.5257,2.546,2.546,2.5343,2.5156,2.4727,0.0,0.0,0.0,0.0,0.0,0.0,0.0,0.0,0.0,0.0,0.0,0.0,0.0,0.0,0.0,0.0,0.0,0.0,0.0,0.0,0.0,0.0,0.0,0.0,0.0,0.0,2.448,2.448,2.5017,2.6069,2.5839,2.6182,2.6944,2.6691,2.6591,2.6591,2.6591,2.6591,2.6591,2.6591,2.6591,2.6591,2.6591,2.6591,2.6591,0.0,0.0,0.0,0.0,0.0,0.0,0.0,2.3006,0.0,2.3215,2.338,2.3572,2.3813,2.4073,2.4202,2.4202,2.4202,2.4202,2.4202,2.4202,2.4202,2.4202,2.4202,0.0,2.4202,2.396,2.3464,2.2602,0.0,0.0,2.0461,1.9687,1.9412,1.9632,0.0,2.1156,0.0,0.0,0.0,2.3859,2.4119,2.4202,2.4202,2.4202,2.4202,2.4202,2.4202,2.4202,2.4202,2.4202,2.4202,2.4202,2.4202,2.4202,2.4202,2.4202,2.4202,2.4202,2.4202,2.4202,2.4202,2.4341,2.4538,2.4784,2.503,2.5284,2.5538,2.5684,2.5693,2.5421,2.458,2.3721,0.0,0.0,0.0,0.0,0.0,0.0,0.0,0.0,0.0,0.0,0.0,0.0,0.0,0.0,0.0,0.0,0.0,0.0,0.0,0.0,0.0,0.0,0.0,0.0,0.0,2.4932,2.4784,2.5217,2.6224,2.6078,2.6436,2.7206,2.7062,2.7008,2.7008,2.6845,2.6745,2.6591,2.6591,2.6591,2.6591,2.6591,2.6591,2.6591,0.0,2.097,0.0,0.0,2.2199,0.0,2.3023,2.3684,2.4082,2.3712,2.3675,2.3675,2.3675,2.396,2.4202,2.4202,2.4202,2.4202,2.4202,2.4202,2.4202,2.4202,2.4202,2.4202,2.4202,2.4202,2.3758,0.0,0.0,0.0,0.0,0.0,0.0,0.0,0.0,0.0,0.0,0.0,2.3544,2.3703,2.4073,2.4202,2.4202,2.4202,2.4202,2.4202,2.4202,2.4202,2.4202,2.4202,2.4202,2.4202,2.4202,2.4202,2.4202,2.4202,2.4202,2.4202,2.4202,2.4202,2.4202,2.4202,2.439,2.4637,2.4833,2.5137,2.544,2.5635,2.5693,2.5421,2.458,2.3978,0.0,0.0,0.0,0.0,0.0,0.0,0.0,0.0,0.0,0.0,0.0,0.0,0.0,0.0,0.0,0.0,0.0,0.0,0.0,0.0,0.0,0.0,2.487,0.0,2.5079,0.0,2.5183,2.5562,2.6387,2.6422,2.6817,2.7485,2.7431,2.7377,2.7368,2.7053,2.6836,2.6691,2.6636,2.6591,2.6591,2.6591,2.6591,2.6591,0.0,0.0,0.0,0.0,0.0,0.0,0.0,2.3868,2.4192,2.4156,2.4146,2.4146,2.4146,2.4183,2.4202,2.4202,2.4202,2.4202,2.4202,2.4202,2.4202,2.4202,2.4202,2.4202,2.4202,2.4202,2.3758,0.0,0.0,0.0,0.0,0.0,0.0,0.0,0.0,0.0,0.0,2.3316,2.3758,2.4146,2.4183,2.4202,2.4202,2.4202,2.4202,2.4202,2.4202,2.4202,2.4202,2.4202,2.4202,2.4202,2.4202,2.4202,2.4202,2.4202,2.4202,2.4202,2.4202,2.4202,2.4202,2.4202,2.4548,2.4883,2.4883,2.5284,2.5693,2.5684,2.5693,2.5421,2.458,2.4962,2.5187,0.0,0.0,0.0,0.0,0.0,0.0,0.0,0.0,0.0,0.0,0.0,0.0,0.0,0.0,0.0,0.0,0.0,0.0,0.0,0.0,2.3758,2.357,2.4707,0.0,2.5294,2.5727,2.6261,2.6919,2.7039,2.7357,2.7853,2.753,2.7377,2.7377,2.6854,2.6791,2.6944,2.6691,2.6591,2.6591,2.6591,2.6591,2.6591,0.0,0.0,0.0,0.0,0.0,0.0,0.0,2.4101,2.4202,2.4202,2.4202,2.4202,2.4202,2.4202,2.4202,2.4202,2.4202,2.4202,2.4202,2.4202,2.4202,2.4202,2.4202,2.4202,2.4202,2.4202,2.3877,0.0,0.0,0.0,0.0,0.0,0.0,0.0,0.0,2.273,2.3288,2.3739,2.4055,2.4202,2.4202,2.4202,2.4202,2.4202,2.4202,2.4202,2.4202,2.4202,2.4202,2.4202,2.4202,2.4202,2.4202,2.4202,2.4202,2.4202,2.4202,2.4202,2.4202,2.4202,2.4251,2.4341,2.4538,2.4735,2.5088,2.5294,2.5489,2.5693,2.5693,2.5577,2.5226,2.5021,2.5,0.0,0.0,0.0,0.0,0.0,0.0,0.0,0.0,0.0,0.0,0.0,0.0,0.0,0.0,0.0,0.0,0.0,0.0,2.3998,0.0,2.4881,2.4785,2.5276,2.5538,2.5547,2.6033,2.6511,2.7031,2.7357,2.7723,2.8121,2.8023,2.7862,2.7691,2.7485,2.7215,2.6989,2.689,2.6736,2.6591,2.6591,2.6591,2.6591,2.3059,0.0,2.3206,0.0,2.3721,2.3822,2.4156,2.4202,2.4202,2.4202,2.4202,2.4202,2.4202,2.4202,2.4202,2.4202,2.4202,2.4202,2.4202,2.4202,2.4202,2.4202,2.4202,0.0,2.4202,2.4202,2.4055,2.3721,2.2977,0.0,0.0,0.0,0.0,0.0,2.2895,2.3297,2.3739,2.4082,2.4202,2.4202,2.4202,2.4202,2.4202,2.4202,2.4202,2.4202,2.4202,2.4202,2.4202,2.4202,2.4202,2.4202,2.4202,2.4202,2.4202,2.4202,2.4202,2.4202,2.4202,2.4202,2.4251,2.439,2.4538,2.4735,2.5088,2.5284,2.5489,2.5635,2.5693,2.5693,2.5693,2.5177,2.4962,0.0,0.0,0.0,0.0,0.0,0.0,0.0,2.4748,2.4414,2.4414,0.0,0.0,0.0,0.0,0.0,0.0,0.0,0.0,0.0,0.0,0.0,0.0,0.0,2.5693,2.5693,2.6309,2.6728,2.7031,2.7598,2.8018,2.8291,2.8237,2.813,2.8014,2.7853,2.7584,2.726,2.7152,2.6999,2.6854,2.6745,2.6745,2.6691,2.3407,2.3489,2.3618,2.4128,2.4192,2.4192,2.4202,2.4202,2.4202,2.4202,2.4202,2.4202,2.4202,2.4202,2.4202,2.4202,2.4202,2.4202,2.4202,2.4202,2.4202,0.0,0.0,2.4202,2.4202,2.4202,2.4202,2.4192,0.0,0.0,2.2885,0.0,0.0,2.2922,2.3316,2.3767,2.4192,2.4202,2.4202,2.4202,2.4202,2.4202,2.4202,2.4202,2.4202,2.4202,2.4202,2.4202,2.4202,2.4202,2.4202,2.4202,2.4202,2.4202,2.4202,2.4202,2.4202,2.4202,2.4202,2.4202,2.4202,2.4202,2.4548,2.4883,2.4883,2.5333,2.5693,2.5693,2.5693,2.5693,2.5693,2.5674,2.5674,2.5693,0.0,0.0,0.0,0.0,0.0,0.0,2.4424,2.4414,2.4414,0.0,0.0,0.0,0.0,0.0,0.0,0.0,0.0,2.3794,2.4026,0.0,2.3803,2.5063,2.5693,2.5703,2.6602,2.7012,2.7041,2.79,2.8291,2.8291,2.8014,2.8067,2.8237,2.7647,2.7584,2.7853,2.753,2.7377,2.7377,2.7098,2.6989,2.6935,2.3932,2.396,2.3996,2.4183,2.4202,2.4202,2.4202,2.4202,2.4202,2.4202,2.4202,2.4202,2.4202,2.4202,2.4202,0.0,2.4202,2.4202,0.0,2.4202,2.4202,2.4202,2.4202,2.4202,2.4202,2.4202,2.4202,2.4202,0.0,0.0,0.0,2.3169,2.3373,2.3776,2.3904,2.4082,2.4202,2.4202,2.4202,2.4202,2.4202,2.4202,2.4202,2.4202,2.4202,2.4202,2.4202,2.4202,2.4202,2.4202,2.4202,2.4202,2.4202,2.4202,2.4202,2.4202,2.4202,2.4202,2.4202,2.4202,2.4301,2.4587,2.4784,2.4981,2.5333,2.5586,2.5693,2.5693,2.5693,2.5693,2.5693,2.5693,2.5693,2.5693,0.0,0.0,0.0,0.0,0.0,0.0,0.0,2.5274,0.0,2.5274,0.0,0.0,0.0,0.0,0.0,0.0,0.0,0.0,2.4868,0.0,2.5083,2.5509,2.5693,2.5703,2.6561,2.7324,2.79,2.8174,2.8291,2.8291,2.8184,2.8237,2.8291,2.8077,2.797,2.7906,2.7799,2.7584,2.7377,2.7323,2.726,2.7215,2.4202,2.4202,2.4202,2.4202,2.4202,2.4202,2.4202,2.4202,2.4202,2.4202,2.4202,2.4202,2.4202,2.4202,0.0,2.4202,2.4202,2.4202,2.4202,2.4202,2.4202,2.4202,2.4202,2.4202,2.4202,0.0,0.0,2.4202,2.3895,2.3767,2.3767,2.3767,2.3904,2.4202,2.4202,2.4202,2.4202,2.4202,2.4202,2.4202,2.4202,2.4202,2.4202,2.4202,2.4202,2.4202,2.4202,2.4202,2.4202,2.4202,2.4202,2.4202,2.4202,2.4202,2.4202,2.4202,2.4202,2.4202,2.4202,2.4202,2.4301,2.4637,2.4833,2.5039,2.5586,2.5693,2.5693,2.5693,2.5693,2.5693,2.5693,2.5693,2.5693,2.5693,0.0,2.5693,0.0,0.0,0.0,0.0,0.0,0.0,0.0,2.5196,0.0,0.0,0.0,0.0,0.0,0.0,0.0,2.4922,2.5401,0.0,2.5693,2.5693,2.5771,2.5986,2.6855,2.7627,2.8291,2.8291,2.8291,2.8291,2.8291,2.8291,2.8291,2.8291,2.8184,2.8067,2.8067,2.7906,2.7755,2.7638,2.7593,2.753,2.4202,2.4202,0.0,0.0,2.4202,0.0,2.4202,2.4202,2.4202,2.4202,2.4202,2.4202,2.4202,2.4202,2.4202,2.4202,0.0,0.0,0.0,2.4202,2.4202,2.4202,2.4202,0.0,2.4202,2.4202,2.4202,2.4202,2.4202,2.4202,2.4202,2.4202,2.4202,2.4202,2.4202,2.4202,2.4202,2.4202,2.4202,2.4202,2.4202,2.4202,2.4202,2.4202,2.4202,2.4202,2.4202,2.4202,2.4202,2.4202,2.4202,2.4202,2.4202,2.4202,2.4202,2.4202,2.4202,2.4202,2.4202,2.4202,2.4251,2.4489,2.4735,2.5088,2.5586,2.5693,2.5693,2.5693,2.5693,2.5693,2.5693,2.5693,2.5693,2.5693,2.5693,2.5693,2.5693,0.0,0.0,0.0,0.0,0.0,0.0,2.4512,2.4777,0.0,0.0,0.0,0.0,0.0,0.0,2.5664,2.5693,2.5693,2.5693,2.5693,2.5977,2.6435,2.7327,2.7891,2.8291,2.8291,2.8291,2.8291,2.8291,2.8291,2.8291,2.8291,2.8291,2.8291,2.8291,2.8291,2.8291,2.8014,2.7906,2.7853,0.0,0.0,2.4202,2.4202,2.4202,2.4202,2.4202,2.4202,2.4202,2.4202,2.4202,2.4202,2.4202,2.4202,2.4202,2.4202,2.4202,2.4202,2.4202,2.4202,2.4202,2.4202,2.4202,2.4202,2.4202,2.4202,2.4202,2.4202,2.4202,2.4202,2.4202,2.4202,2.4202,2.4202,2.4202,2.4202,2.4202,2.4202,2.4202,2.4202,2.4202,2.4202,2.4202,2.4202,2.4202,2.4202,2.4202,2.4202,2.4202,2.4202,2.4202,2.4202,2.4202,2.4202,2.4202,2.4202,2.4202,2.4202,2.4202,2.4301,2.4489,2.4735,2.5137,2.5538,2.5684,2.5693,2.5693,2.5693,2.5693,2.5693,2.5693,2.5693,2.5693,2.5693,2.5693,2.5693,2.5693,0.0,0.0,0.0,2.5382,2.5382,2.5382,2.5382,2.5187,0.0,0.0,0.0,0.0,0.0,2.4777,2.5664,2.5693,2.5693,2.5693,2.5693,2.6064,2.6875,2.7412,2.7891,2.8291,2.8291,2.8291,2.8291,2.8291,2.8291,2.8291,2.8291,2.8291,2.8291,2.8291,2.8291,2.8291,2.8237,2.8184,2.813,2.4202,2.4202,2.4202,2.4202,2.4202,2.4202,2.4202,2.4202,2.4202,2.4202,2.4202,2.4202,2.4202,2.4202,2.4202,2.4202,2.4202,2.4202,2.4202,2.4202,2.4202,2.4202,2.4202,2.4202,2.4202,2.4202,2.4202,2.4202,2.4202,2.4202,2.4202,2.4202,2.4202,2.4202,2.4202,2.4202,2.4202,2.4202,2.4202,2.4202,2.4202,2.4202,2.4202,2.4202,2.4202,2.4202,2.4202,2.4202,2.4202,2.4202,2.4202,2.4202,2.4202,2.4202,2.4202,2.4202,2.4202,2.4202,2.4202,2.4301,2.444,2.4784,2.5284,2.5693,2.5693,2.5693,2.5693,2.5693,2.5693,2.5693,2.5693,2.5693,2.5693,2.5693,2.5566,2.5508,2.5664,2.5557,0.0,2.5664,2.5693,2.5693,2.5693,2.5693,2.5489,2.5011,0.0,0.0,2.4972,2.4972,2.5196,2.5674,2.5693,2.5693,2.5693,2.6074,2.6502,2.7021,2.7656,2.8066,2.8291,2.8291,2.8291,2.8291,2.8291,2.8291,2.8291,2.8291,2.8291,2.8291,2.8291,2.8291,2.8291,2.8291,2.8291,2.8237,2.4202,2.4202,2.4202,2.4202,2.4202,2.4202,2.4202,2.4202,2.4202,2.4202,2.4202,2.4202,2.4202,2.4202,2.4202,2.4202,2.4202,2.4202,2.4202,2.4202,2.4202,2.4202,2.4202,2.4202,2.4202,2.4202,2.4202,2.4202,2.4202,2.4202,2.4202,2.4202,2.4202,2.4202,2.4202,2.4202,2.4202,2.4202,2.4202,2.4202,2.4202,2.4202,2.4202,2.4202,2.4202,2.4202,2.4202,2.4202,2.4202,2.4202,2.4202,2.4202,2.4202,2.4202,2.4202,2.4202,2.4202,2.4251,2.4251,2.4301,2.4449,2.4883,2.5333,2.5693,2.5693,2.5693,2.5693,2.5693,2.5693,2.5693,2.5693,2.5693,2.5664,2.5596,2.5371,2.5283,2.5596,0.0,2.5312,2.5645,2.5693,2.5693,2.5693,2.5693,2.5693,2.5693,2.5693,0.0,0.0,2.5693,2.5693,2.5693,2.5693,2.5693,2.5693,2.6582,2.7012,2.7021,2.7881,2.8291,2.8291,2.8291,2.8291,2.8291,2.8291,2.8291,2.8291,2.8291,2.8291,2.8291,2.8291,2.8291,2.8291,2.8291,2.8291,2.8237,2.4202,2.4202,2.4202,2.4202,2.4202,2.4202,2.4202,2.4202,2.4202,2.4202,2.4202,2.4202,2.4202,2.4202,2.4202,2.4202,2.4202,2.4202,2.4202,2.4202,2.4202,2.4202,2.4202,2.4202,2.4202,2.4202,2.4202,2.4202,2.4202,2.4202,2.4202,2.4202,2.4202,2.4202,2.4202,2.4202,2.4202,2.4202,2.4202,2.4202,2.4202,2.4202,2.4202,2.4202,2.4202,2.4202,2.4202,2.4202,2.4202,2.4202,2.4202,2.4202,2.4202,2.4202,2.4202,2.4202,2.4341,2.443,2.443,2.4784,2.5186,2.5489,2.5635,2.5693,2.5693,2.5693,2.5693,2.5693,2.5693,2.5693,2.5693,2.5693,2.5567,2.5234,2.543,2.5527,0.0,0.0,2.5615,2.5684,2.5693,2.5693,2.5693,2.5693,2.5693,2.5693,2.5693,2.5693,2.5693,2.5693,2.5693,2.5693,2.5693,2.5693,2.5693,2.6582,2.7012,2.7021,2.7881,2.8291,2.8291,2.8291,2.8291,2.8291,2.8291,2.8291,2.8291,2.8291,2.8291,2.8291,2.8291,2.8291,2.8291,2.8291,2.8291,2.8237,2.4202,2.4202,2.4202,2.4202,2.4202,2.4202,2.4202,2.4202,2.4202,2.4202,2.4202,2.4202,2.4202,2.4202,2.4202,2.4202,2.4202,2.4202,2.4202,2.4202,2.4202,2.4202,2.4202,2.4202,2.4202,2.4202,2.4202,2.4202,2.4202,2.4202,2.4202,2.4202,2.4202,2.4202,2.4202,2.4202,2.4202,2.4202,2.4202,2.4202,2.4202,2.4202,2.4202,2.4202,2.4202,2.4202,2.4202,2.4202,2.4202,2.4202,2.4202,2.4202,2.4202,2.4202,2.4202,2.4202,2.4341,2.4529,2.4686,2.4981,2.5342,2.543,2.5586,2.5693,2.5693,2.5693,2.5693,2.5693,2.5693,2.5693,2.5693,2.5693,2.5625,2.5459,2.54,0.0,0.0,2.54,2.5469,2.5664,2.5693,2.5693,2.5693,2.5693,2.5693,2.5693,2.5693,2.5693,2.5693,2.5693,2.5693,2.5693,2.5693,2.5801,2.6084,2.6699,2.7139,2.7373,2.7988,2.8291,2.8291,2.8291,2.8291,2.8291,2.8291,2.8291,2.8291,2.8291,2.8291,2.8291,2.8291,2.8291,2.8291,2.8291,2.8291,2.8291,2.4202,2.4202,2.4202,2.4202,2.4202,2.4202,2.4202,2.4202,2.4202,2.4202,2.4202,2.4202,2.4202,2.4202,2.4202,2.4202,2.4202,2.4202,2.4202,2.4202,2.4202,2.4202,2.4202,2.4202,2.4202,2.4202,2.4202,2.4202,2.4202,2.4202,2.4202,2.4202,2.4202,2.4202,2.4202,2.4202,2.4202,2.4202,2.4251,2.4251,2.4251,2.4251,2.4251,2.4251,2.4251,2.4202,2.4202,2.4202,2.4202,2.4202,2.4202,2.4202,2.4242,2.4251,2.4202,2.4251,2.444,2.4637,2.4833,2.5137,2.5382,2.5382,2.5538,2.5693,2.5693,2.5693,2.5693,2.5693,2.5693,2.5693,2.5693,2.5693,2.5654,2.5596,0.0,0.0,0.0,2.5371,2.5352,2.5645,2.5693,2.5693,2.5693,2.5693,2.5693,2.5693,2.5693,2.5781,2.6052,2.6052,2.6149,2.638,2.6197,2.6172,2.6387,2.705,2.7483,2.7718,2.8096,2.8291,2.8291,2.8291,2.8291,2.8291,2.8291,2.8291,2.8291,2.8291,2.8291,2.8291,2.8291,2.8291,2.8291,2.8291,2.8291,2.8301,2.4202,2.4202,2.4202,2.4202,2.4202,2.4202,2.4202,2.4202,2.4202,2.4202,2.4202,2.4202,2.4202,2.4202,2.4202,2.4202,2.4202,2.4202,2.4202,2.4202,2.4202,2.4202,2.4202,2.4202,2.4202,2.4202,2.4202,2.4202,2.4202,2.4202,2.4202,2.4202,2.4202,2.4202,2.4202,2.4202,2.4202,2.4202,2.4301,2.448,2.448,2.448,2.448,2.448,2.4341,2.4202,2.4202,2.4202,2.4202,2.4202,2.4202,2.4251,2.444,2.4341,2.4251,2.444,2.4686,2.4883,2.4883,2.5284,2.5684,2.5684,2.5693,2.5693,2.5693,2.5693,2.5693,2.5693,2.5693,2.5693,2.5693,2.5693,2.5605,2.5185,0.0,0.0,2.5166,2.5449,2.5654,2.5684,2.5693,2.5693,2.5693,2.5693,2.5693,2.5693,2.5693,2.61,2.7057,2.7094,2.7521,2.8448,2.7568,2.6861,2.6387,2.7733,2.8178,2.7718,2.8096,2.8291,2.8291,2.8291,2.8291,2.8291,2.8291,2.8291,2.8291,2.8291,2.8291,2.8291,2.8291,2.8291,2.8291,2.8291,2.8291,2.835,2.4202,2.4202,2.4202,2.4202,2.4202,2.4202,2.4202,2.4202,2.4202,2.4202,2.4202,2.4202,2.4202,2.4202,2.4202,2.4202,2.4202,2.4202,2.4202,2.4202,2.4202,2.4202,2.4202,2.4202,2.4202,2.4202,2.433,2.4587,2.4587,2.4716,2.4964,2.4964,2.4964,2.4964,2.4964,2.5066,2.5168,2.5168,2.5312,2.5528,2.5274,2.507,2.4942,2.478,2.4538,2.4202,2.4341,2.4301,2.4202,2.4202,2.4202,2.4202,2.4301,2.4251,2.4251,2.444,2.4686,2.4932,2.5088,2.544,2.5693,2.5693,2.5693,2.5693,2.5693,2.5693,2.5693,2.5693,2.5693,2.5693,2.5693,2.5693,2.5635,2.5508,0.0,2.5625,2.5508,2.5586,2.5693,2.5693,2.5693,2.5693,2.5693,2.5693,2.5693,2.5693,2.5693,2.6149,2.7142,2.7793,2.8308,2.868,2.8958,2.8922,2.8701,2.8543,2.8706,2.9069,2.8522,2.8291,2.8291,2.8291,2.8291,2.8291,2.8291,2.8291,2.8291,2.8291,2.8291,2.8291,2.8291,2.8291,2.8291,2.8291,2.8291,2.8359,2.4202,2.4202,2.4202,2.4202,2.4202,2.4202,2.4202,2.4202,2.4202,2.4202,2.4202,2.4202,2.4202,2.4202,2.4202,2.4202,2.4202,2.4202,2.4202,2.4202,2.4202,2.4202,2.4202,2.4266,2.4395,2.4404,2.4606,2.4968,2.4968,2.5157,2.5424,2.5424,2.5424,2.5424,2.5424,2.5528,2.5796,2.5796,2.5985,2.6307,2.6022,2.573,2.5428,2.5294,2.4907,2.4449,2.4587,2.4538,2.4399,2.4341,2.4301,2.4301,2.4301,2.435,2.444,2.448,2.4735,2.5088,2.5235,2.5489,2.5693,2.5693,2.5693,2.5693,2.5693,2.5693,2.5693,2.5693,2.5693,2.5693,2.5693,2.5693,2.5693,2.5693,2.5693,2.5693,2.5693,2.5693,2.5693,2.5693,2.5693,2.5693,2.5693,2.5693,2.5693,2.5693,2.6014,2.6744,2.8075,2.8819,2.9326,2.9612,2.9977,3.0479,3.1112,2.9998,2.9777,3.0442,2.9681,2.9323,2.9323,2.9323,2.9323,2.9323,2.9323,2.9323,2.9323,2.8963,2.8804,2.8751,2.8451,2.8291,2.8291,2.8291,2.8379,2.8555,2.4202,2.4202,2.4202,2.4202,2.4202,2.4202,2.4202,2.4202,2.4202,2.4202,2.4202,2.4202,2.4202,2.4202,2.4202,2.4202,2.4202,2.4202,2.4202,2.4211,2.4211,2.4211,2.4211,2.4404,2.4776,2.4785,2.4977,2.5372,2.5372,2.5433,2.5433,2.5433,2.5433,2.5433,2.5433,2.5537,2.5806,2.5806,2.6097,2.6602,2.6602,2.6352,2.5987,2.5977,2.5559,2.4892,2.4883,2.4883,2.4883,2.4578,2.448,2.448,2.448,2.4686,2.4833,2.4578,2.4883,2.5284,2.5284,2.5489,2.5693,2.5693,2.5693,2.5693,2.5693,2.5693,2.5693,2.5693,2.5693,2.5693,2.5693,2.5693,2.5693,2.5693,2.5693,2.5693,2.5693,2.5693,2.5693,2.5693,2.5693,2.5693,2.5693,2.5693,2.5693,2.5693,2.6648,2.8075,3.0068,3.0215,3.0678,3.1661,3.0734,3.1191,3.3272,3.2147,3.1608,3.1626,3.1575,3.1575,3.1575,3.1575,3.1575,3.1575,3.1575,3.1575,3.1524,3.039,2.9922,2.9817,2.8751,2.8291,2.8291,2.8291,2.8555,2.8984,2.4202,2.4202,2.4202,2.4202,2.4202,2.4202,2.4202,2.4202,2.4202,2.4202,2.4202,2.4202,2.4202,2.4202,2.4202,2.4202,2.4202,2.4202,2.4202,2.4477,2.4643,2.4643,2.4643,2.4707,2.4776,2.506,2.5442,2.5837,2.5837,2.609,2.6519,2.6519,2.6626,2.6795,2.6795,2.7009,2.7265,2.7265,2.7478,2.7775,2.7484,2.7185,2.6846,2.646,2.5891,2.5389,2.5242,2.5088,2.4883,2.4578,2.448,2.4489,2.4341,2.444,2.4637,2.4735,2.5039,2.5333,2.5538,2.5635,2.5693,2.5693,2.5693,2.5693,2.5693,2.5693,2.5693,2.5693,2.5693,2.5693,2.5693,2.5693,2.5693,2.5693,2.5693,2.5693,2.5693,2.5693,2.5693,2.5693,2.5693,2.5693,2.5693,2.5693,2.5693,2.5693,2.7295,2.8819,3.0125,3.0869,3.1383,3.1705,3.1427,3.1896,3.3284,3.2147,3.196,3.2689,3.1982,3.1575,3.1575,3.1575,3.1575,3.1575,3.1575,3.1575,3.1575,3.1216,3.1114,3.1062,3.0753,3.0141,2.9418,2.9418,2.917,2.8984,2.4202,2.4202,2.4202,2.4202,2.4202,2.4202,2.4202,2.4202,2.4202,2.4202,2.4202,2.4202,2.4202,2.4202,2.4202,2.4202,2.4358,2.445,2.445,2.4785,2.5014,2.5014,2.5212,2.5243,2.5243,2.5534,2.5855,2.626,2.626,2.6487,2.6989,2.6989,2.7152,2.7377,2.7377,2.7593,2.7906,2.7906,2.8067,2.8271,2.8018,2.776,2.7441,2.7039,2.6478,2.5889,2.5788,2.5526,2.5137,2.4784,2.4587,2.448,2.4251,2.4498,2.4833,2.4883,2.5186,2.5489,2.5635,2.5693,2.5693,2.5693,2.5693,2.5693,2.5693,2.5693,2.5693,2.5693,2.5693,2.5693,2.5693,2.5693,2.5693,2.5693,2.5693,2.5693,2.5693,2.5693,2.5693,2.5693,2.5693,2.5693,2.5693,2.5693,2.6014,2.6839,2.8366,2.9749,3.0722,3.1383,3.1705,3.1705,3.1705,3.2235,3.3284,3.2641,3.2803,3.3819,3.3201,3.2851,3.2851,3.2851,3.2851,3.2851,3.2851,3.2851,3.2839,3.2387,3.2235,3.2185,3.1779,3.1165,3.0515,3.0286,3.001,2.9814,2.4202,2.4202,2.4202,2.4202,2.4202,2.4202,2.4202,2.4202,2.4202,2.4202,2.4202,2.4202,2.4202,2.4202,2.422,2.4257,2.4643,2.4831,2.4831,2.5207,2.5479,2.5479,2.5855,2.6067,2.6067,2.6067,2.6206,2.6591,2.6591,2.6736,2.7043,2.7043,2.7206,2.7485,2.7485,2.7638,2.796,2.796,2.8067,2.8291,2.8291,2.8066,2.7767,2.7738,2.7158,2.6435,2.6396,2.6113,2.5635,2.5088,2.4784,2.448,2.4301,2.4745,2.5235,2.499,2.5284,2.5693,2.5693,2.5693,2.5693,2.5693,2.5693,2.5693,2.5693,2.5693,2.5693,2.5693,2.5693,2.5693,2.5693,2.5693,2.5693,2.5693,2.5693,2.5693,2.5693,2.5693,2.5693,2.5693,2.5693,2.5693,2.5693,2.5781,2.661,2.8541,2.9612,3.0633,3.1661,3.1705,3.1705,3.1705,3.1705,3.2235,3.3284,3.3284,3.3801,3.4775,3.4775,3.4775,3.4775,3.4775,3.4775,3.4775,3.4775,3.4775,3.4726,3.3758,3.335,3.325,3.2286,3.1863,3.1746,3.1138,3.1077,3.1182,2.4202,2.4202,2.4202,2.4202,2.4202,2.4202,2.4202,2.4202,2.4202,2.4202,2.4202,2.4202,2.4202,2.4202,2.4339,2.4661,2.5065,2.5295,2.5295,2.5663,2.5883,2.5883,2.6287,2.6454,2.6454,2.6454,2.6499,2.6591,2.6591,2.6845,2.7314,2.7314,2.7593,2.8077,2.8077,2.813,2.8237,2.8237,2.8237,2.8291,2.8291,2.8232,2.8125,2.7845,2.7334,2.6836,2.6504,2.6113,2.5635,2.5333,2.5039,2.4784,2.4735,2.4981,2.5284,2.5235,2.544,2.5693,2.5693,2.5693,2.5693,2.5693,2.5693,2.5693,2.5693,2.5693,2.5693,2.5693,2.5693,2.5693,2.5693,2.5693,2.5693,2.5693,2.5693,2.5693,2.5693,2.5693,2.5693,2.5693,2.5693,2.5693,2.5693,2.6418,2.7379,2.8634,2.9612,3.0633,3.1661,3.1705,3.1705,3.1705,3.1705,3.2235,3.3284,3.3284,3.3801,3.4775,3.4775,3.4775,3.4775,3.4775,3.4775,3.4775,3.4775,3.4775,3.4775,3.4568,3.447,3.4421,3.4213,3.3854,3.3441,3.3339,3.266,3.1711,2.4202,2.4202,2.4202,2.4202,2.4202,2.4202,2.4202,2.4202,2.4202,2.4202,2.4202,2.4284,2.4486,2.4505,2.467,2.5032,2.5479,2.5699,2.5699,2.6032,2.6315,2.6315,2.6472,2.6636,2.6791,2.6791,2.6791,2.6791,2.6899,2.7215,2.7638,2.7638,2.7862,2.8291,2.8291,2.8291,2.8291,2.8291,2.8291,2.8291,2.8291,2.8291,2.8271,2.8047,2.7695,2.7275,2.6836,2.618,2.5489,2.5342,2.5186,2.5088,2.4932,2.5186,2.5489,2.5333,2.5489,2.5693,2.5693,2.5693,2.5693,2.5693,2.5693,2.5693,2.5693,2.5693,2.5693,2.5693,2.5693,2.5693,2.5693,2.5693,2.5693,2.5693,2.61,2.6418,2.6418,2.6418,2.66,2.7067,2.6284,2.5868,2.637,2.7757,2.8866,2.9372,3.0351,3.1149,3.1661,3.1705,3.1705,3.1705,3.1705,3.2235,3.3284,3.3284,3.3801,3.4775,3.4775,3.4775,3.4775,3.4775,3.4775,3.4775,3.4775,3.4775,3.4775,3.4775,3.4775,3.4775,3.4775,3.4791,3.4703,3.4376,3.3812,3.3098,2.4202,2.4202,2.4202,2.4202,2.4202,2.4202,2.4202,2.4266,2.4312,2.4312,2.4367,2.4542,2.4849,2.4941,2.5115,2.5488,2.5892,2.6122,2.6122,2.6389,2.6591,2.6591,2.6636,2.6791,2.6989,2.7098,2.7152,2.7043,2.7314,2.7593,2.7906,2.7906,2.8014,2.8291,2.8291,2.8291,2.8291,2.8291,2.8291,2.8291,2.8291,2.8291,2.8291,2.8291,2.8027,2.766,2.7168,2.6305,2.5391,2.5391,2.5391,2.5342,2.5088,2.5333,2.5635,2.543,2.5538,2.5693,2.5693,2.5693,2.5693,2.5693,2.5693,2.5693,2.5693,2.5693,2.5693,2.5693,2.5693,2.5693,2.5693,2.5693,2.5693,2.5693,2.6552,2.7189,2.7189,2.7332,2.7793,2.8588,2.721,2.6562,2.7379,2.9143,3.0215,3.0215,3.1149,3.1705,3.1705,3.1705,3.1705,3.1705,3.1705,3.2235,3.3284,3.3284,3.3801,3.4775,3.4775,3.4775,3.4775,3.4775,3.4775,3.4775,3.4775,3.4775,3.4775,3.4775,3.4775,3.4787,3.4883,3.528,3.5671,3.5115,3.495,3.4947,2.4202,2.4202,2.4202,2.4202,2.4202,2.4202,2.4202,2.4514,2.4702,2.4702,2.5047,2.5277,2.5289,2.5644,2.5874,2.5929,2.6261,2.6509,2.6509,2.6554,2.6591,2.6591,2.6836,2.6935,2.6989,2.753,2.7638,2.7377,2.7377,2.7593,2.7906,2.7906,2.8014,2.8291,2.8291,2.8291,2.8291,2.8291,2.8291,2.8291,2.8291,2.8291,2.8291,2.8291,2.8027,2.766,2.7168,2.6415,2.5645,2.5645,2.5645,2.5635,2.5586,2.5635,2.5684,2.5635,2.5684,2.5693,2.5693,2.5693,2.5693,2.5693,2.5693,2.5693,2.5693,2.5693,2.5693,2.5693,2.5693,2.5693,2.5693,2.5693,2.5693,2.5693,2.6552,2.7189,2.7189,2.7934,2.8541,2.868,2.8448,2.8355,2.8484,2.9521,3.0215,3.0215,3.1149,3.1705,3.1705,3.1705,3.1705,3.1705,3.1705,3.2235,3.3284,3.3284,3.3801,3.4775,3.4775,3.4775,3.4775,3.4775,3.4775,3.4775,3.4775,3.4775,3.4775,3.4775,3.4775,3.4823,3.5328,3.5833,3.6258,3.6054,3.6657,3.7203,2.456,2.4367,2.4275,2.4514,2.456,2.4633,2.4854,2.5047,2.5166,2.5166,2.5313,2.5506,2.5727,2.6068,2.637,2.637,2.6481,2.6591,2.6591,2.6591,2.6591,2.6591,2.6682,2.6899,2.7206,2.7476,2.7691,2.7916,2.7916,2.797,2.813,2.813,2.8184,2.8291,2.8291,2.8291,2.8291,2.8291,2.8291,2.8291,2.8291,2.8291,2.8291,2.8291,2.8174,2.793,2.7256,2.6621,2.6064,2.5771,2.5693,2.5693,2.5693,2.5693,2.5693,2.5693,2.5693,2.5693,2.5693,2.5693,2.5693,2.5693,2.5693,2.5693,2.5693,2.5693,2.5693,2.5693,2.5693,2.5693,2.5693,2.5693,2.5868,2.6466,2.7379,2.8215,2.8819,2.9235,2.9326,2.8773,2.9704,3.017,2.9612,3.0441,3.1048,3.1048,3.1427,3.1705,3.1705,3.1705,3.1705,3.1705,3.1973,3.2503,3.3284,3.3573,3.4078,3.4775,3.4775,3.4775,3.4775,3.4775,3.4775,3.4775,3.4775,3.4775,3.4775,3.4775,3.4775,3.4835,3.5412,3.6122,3.6888,3.7104,3.7548,3.7868]}]]